     2              OBSERVATION DATA    GPS                 RINEX VERSION / TYPE
ASRINEXO V2.2.0 UX USGS 02-FEB-94 15:29                     PGM / RUN BY / DATE
                                                            COMMENT
Original Marker Name: whec Whitaker_Ecc_Ca_Div_Hwys         COMMENT
Campaign Name: USGS-Northridge                              COMMENT
4-Character Station Name: WHEC                              COMMENT
6-Character Antenna Code: ASHP12                            COMMENT
Vertical Measurement Point: EGP                             COMMENT
Vertical Offset to Rinex Ref. Point: 0.0593                 COMMENT
Radial Measurement Point: EGP                               COMMENT
Radial Offset to Rinex Ref. Point: 0.1425                   COMMENT
Antenna Height from Field Measurement: 1.3400 m             COMMENT
Additional Antenna Identification Info.:                    COMMENT
Ashtech L1/L2 Revision B                                    COMMENT
Original XYZ: -2528911.2200 -4610871.4300 3599118.6800      COMMENT
New XYZ position is based on association with SCEC monument COMMENT
E1E9L2T1+0031. Position of that monument is believed to be  COMMENT
valid to within 1 m horizontally; vertical accuracy         COMMENT
should be no worse than 3-times this value.                 COMMENT
                                                            COMMENT
Revised Rinex header created by UCSD GPS archive for        COMMENT
GSAC on 31-Aug-1999 (1999:243) 21:18:59 GMT                 COMMENT
For assistance contact dagnew@ucsd.edu or hjohnson@ucsd.edu COMMENT
                                                            COMMENT
WHEC WHITAKER_ECC_CA_DIV_HWYS                               MARKER NAME
                                                            MARKER NUMBER
KWC US GEOLOGICAL SURVEY                                    OBSERVER / AGENCY
765 ASHTECH L-XII 7A                                        REC # / TYPE / VERS
58 ASHTECH GEODETIC P                                       ANT # / TYPE
 -2528851.0000 -4610849.0000  3599156.0000                  APPROX POSITION XYZ
        1.2731        0.0000        0.0000                  ANTENNA: DELTA H/E/N
     1     2     0                                          WAVELENGTH FACT L1/2
     3    C1    L1    L2                                    # / TYPES OF OBSERV
    30                                                      INTERVAL
  1994     2     1     0    47    0.000000                  TIME OF FIRST OBS
  1994     2     1     7    16   60.000000                  TIME OF LAST OBS
                                                            END OF HEADER
 94  2  1  0 47  0.0000000  0  4  2 19 16 18
  26232573.967       56339.29319    -85130.670
  26619621.559      232983.27718     86428.981
  29634206.686      -19876.01715     97368.344
  29429731.801     -236506.98416    365139.210
 94  2  1  0 47 30.0000000  0  5  2 19 16 26 18
  21131499.587         -88.44519   -103975.651
  21531944.155        1092.93918    122442.231 2
  24547196.649        1194.86615    136118.513
  24110276.543       97366.55115   -213757.191
  24354331.527        1993.80616    451418.762
 94  2  1  0 48  0.0000000  0  7  2 27 19 31 16 26 18
  21126963.488      -23922.952 9   -122551.012 1
  20267513.283      195784.20418      3790.905 1
  21540803.832       47642.668 7    158714.729 4
  23938431.339      372645.67816    207656.797
  24556714.580       51235.912 5    175111.503 1
  24093761.696       10572.542 5   -281389.238
  24375411.764      112795.894 6    537758.027 1
 94  2  1  0 48 30.0000000  0  7  2 27 19 31 16 26 18
  21122489.625      -47429.733 9   -140868.085 4
  20267959.673      198143.411 8      5629.466 5
  21549721.758       94529.433 7    195249.866 5
  23956275.016      466368.522 6    280687.604 1
  24566299.335      101622.447 4    214373.714 1
  24077309.475      -75892.969 5   -348764.836 1
  24396525.937      223716.413 5    624189.484 1
 94  2  1  0 49  0.0000000  0  7  2 27 19 31 16 26 18
  21118079.858      -70601.500 9   -158924.001 6
  20268485.599      200902.517 8      7779.407 7
  21558714.093      141774.957 7    232064.531 5
  23974172.716      560446.772 6    353995.395 2
  24575951.992      152352.008 4    253903.148 1
  24060918.263     -162027.595 5   -415882.636 1
  24417648.084      334735.803 5    710698.090 2
 94  2  1  0 49 30.0000000  0  7  2 27 19 31 16 26 18
  21113727.531      -93480.045 9   -176751.410 6
  20269081.737      204044.728 8     10227.894 8
  21567773.041      189378.261 7    269158.029 6
  23992139.637      654867.611 6    427570.108 2
  24585673.123      203384.701 4    293668.869 1
  24044592.825     -247837.435 6   -482747.322 1
  24438780.994      445802.014 5    797243.100 2
 94  2  1  0 50  0.0000000  0  8  2 27 19  7 31 16 26 18
  21109428.387     -116075.546 9   -194358.283 7
  20269755.580      207583.579 8     12985.443 9
  21576895.936      237308.649 7    306506.369 6
  22231793.340      -99433.47017   -236714.432
  24010173.443      749630.699 6    501411.529 2
  24595443.119      254721.939 4    333671.869 1
  24028317.032     -333324.329 6   -549360.409 2
  24459924.427      556896.581 5    883810.182 2
 94  2  1  0 50 30.0000000  0  8  2 27 19  7 31 16 26 18
  21105177.989     -138398.954 9   -211753.131 7
  20270508.719      211536.226 8     16065.442 9
  21586074.502      285550.441 7    344097.369 6
  22214412.602     -190787.710 7   -307900.128 2
  24028269.035      844724.531 5    575510.650 3
  24605265.369      306372.186 4    373918.774 1
  24012112.710     -418497.424 6   -615729.000 2
  24481069.658      668017.458 5    970397.808 2
 94  2  1  0 51  0.0000000  0  8  2 27 19  7 31 16 26 18
  21100978.676     -160479.612 9   -228958.810 8
  20271341.272      215919.938 8     19481.340 9
  21595313.566      334119.919 7    381943.735 6
  22197093.352     -281788.323 7   -378809.644 4
  24046428.904      940137.167 5    649858.191 3
  24615151.925      358325.538 4    414401.829 1
  23995964.959     -503345.817 6   -681844.557 2
  24502221.455      779177.735 5   1057016.150 2
 94  2  1  0 51 30.0000000  0  8  2 27 19  7 31 16 26 18
  21096819.716     -182329.902 9   -245984.981 8
  20272260.076      220738.443 8     23236.043 9
  21604617.535      382992.447 7    420026.238 6
  22179840.146     -372453.000 7   -449457.379 5
  24064636.139     1035832.681 5    724426.184 3
  24625094.902      410567.763 4    455110.081 1
  23979878.276     -587893.829 6   -747726.017 2
  24523382.276      890380.098 5   1143667.246 2
 94  2  1  0 52  0.0000000  0  8  2 27 19  7 31 16 26 18
  21092705.334     -203946.217 9   -262828.862 8
  20273254.788      225972.331 8     27314.391 9
  21613971.449      432149.104 7    458330.099 6
  22162649.117     -462791.689 7   -519851.126 5
  24082898.476     1131792.252 5    799199.898 3
  24635092.560      463090.480 4    496036.755 1
  23963851.581     -672156.029 6   -813384.818 2
  24544558.266     1001646.917 5   1230368.610 2
 94  2  1  0 52 30.0000000  0  8  2 27 19  7 31 16 26 18
  21088633.583     -225334.182 9   -279494.788 8
  20274327.595      231602.470 8     31701.524 9
  21623381.544      481612.355 7    496872.903 6
  22145521.584     -552800.388 7   -589987.700 5
  24101206.652     1228008.415 5    874173.533 3
  24645142.863      515883.966 4    537174.508 1
  23947862.210     -756127.769 6   -878817.203 2
  24565742.470     1112984.178 5   1317124.840 2
 94  2  1  0 53  0.0000000  0  8  2 27 19  7 31 16 26 18
  21084609.978     -246482.156 9   -295973.708 9
  20275470.074      237615.024 8     36386.672 9
  21632850.129      531376.525 7    535650.164 6
  22128457.877     -642477.230 7   -659865.697 6
  24119560.006     1324480.158 5    949346.395 3
  24655228.151      568938.890 4    578515.925 1
  23931940.952     -839795.731 6   -944012.905 2
  24586943.553     1224384.414 5   1403930.138 2
 94  2  1  0 53 30.0000000  0  8  2 27 19  7 31 16 26 18
  21080634.850     -267375.321 9   -312254.079 9
  20276683.184      243994.487 8     41357.678 9
  21642376.814      581421.797 7    574646.476 6
  22111451.850     -731836.837 7   -729496.512 6
  24137974.218     1421200.258 5   1024712.689 3
  24665379.123      622251.665 4    620058.308 1
  23916077.764     -923153.742 6  -1008967.138 2
  24608149.792     1335825.920 5   1490767.623 2
 94  2  1  0 54  0.0000000  0  8  2 27 19  7 31 16 26 18
  21076707.059     -288015.958 9   -328337.658 9
  20277963.298      250714.981 8     46594.455 9
  21651955.543      631768.927 7    613878.006 6
  22094510.159     -820866.807 7   -798870.456 6
  24156420.508     1518164.984 5   1100269.700 3
  24675575.005      675816.583 4    661797.179 1
  23900279.931    -1006175.465 6  -1073659.287 2
  24629360.558     1447294.304 5   1577626.063 2
 94  2  1  0 54 30.0000000  0  8  2 27 19  7 31 16 26 18
  21072828.884     -308393.173 9   -344215.990 9
  20279310.386      257794.312 8     52110.839 9
  21661593.841      682431.769 7    653355.550 6
  22077632.563     -909558.359 7   -867980.689 6
  24174916.324     1615373.256 5   1176016.420 3
  24685815.496      729634.536 4    703733.125 1
  23884546.223    -1088855.796 6  -1138085.430 2
  24650572.284     1558761.221 5   1664483.301 2
 94  2  1  0 55  0.0000000  0  9  2 27 19 15  7 31 16 26 18
  21069001.943     -328502.735 9   -359885.758 9
  20280728.164      265247.002 8     57918.139 9
  21671298.722      733406.517 7    693076.101 6
  24630508.404       27290.12715   -135628.486
  22060818.043     -997918.831 7   -936832.954 6
  24193465.472     1712818.729 5   1251947.967 3
  24696108.900      783705.127 4    745865.992 1
  23868879.159    -1171182.436 6  -1202235.962 2
  24671787.547     1670234.333 5   1751345.413 2
 94  2  1  0 55 30.0000000  0  9  2 27 19 15  7 31 16 26 18
  21065223.539     -348357.229 9   -375356.770 9
  20282220.441      273078.736 8     64020.807 9
  21681060.084      784706.347 7    733050.003 6
  24619186.892      -32184.111 5   -181971.201
  22044067.320    -1085949.461 7  -1005428.193 6
  24212053.684     1810498.993 5   1328062.490 3
  24706436.840      838017.493 4    788187.320 1
  23853278.109    -1253158.805 6  -1266113.584 2
  24693001.431     1781716.515 5   1838214.588 2
 94  2  1  0 56  0.0000000  0  9  2 27 19 15  7 31 16 26 18
  21061497.449     -367950.912 9   -390624.567 9
  20283785.657      281303.177 8     70429.480 9
  21690885.932      836340.887 7    773284.707 6
  24607917.633      -91374.049 5   -228094.996
  22027375.925    -1173639.860 7  -1073758.320 6
  24230689.563     1908432.772 5   1404374.556 3
  24716818.413      892572.902 4    830697.968 1
  23837745.412    -1334795.413 6  -1329726.421 2
  24714212.856     1893222.981 5   1925102.624 2
 94  2  1  0 56 30.0000000  0  9  2 27 19 15  7 31 16 26 18
  21057816.177     -387285.851 9   -405690.719 9
  20285430.918      289946.312 8     77164.414 9
  21700770.629      888288.550 7    813763.390 6
  24596708.453     -150279.791 5   -273996.857
  22010752.193    -1261010.668 7  -1141839.418 6
  24249372.299     2006624.523 5   1480887.684 3
  24727261.983      947374.819 4    873400.777 1
  23822277.441    -1416120.219 6  -1393096.303 2
  24735441.340     2004761.996 5   2012016.117 2
 94  2  1  0 57  0.0000000  0  9  2 27 19 15  7 31 16 26 18
  21054182.753     -406381.203 9   -420570.186 9
  20287153.256      299009.471 8     84226.644 9
  21710712.586      940537.284 7    854476.686 6
  24585554.915     -208903.962 5   -319678.351
  21994186.741    -1348071.922 7  -1209679.306 6
  24268103.302     2105067.745 5   1557596.755 3
  24737726.688     1002413.606 4    916288.054 1
  23806853.238    -1497145.238 6  -1456232.565 2
  24756673.392     2116331.133 5   2098953.004 2
 94  2  1  0 57 30.0000000  0  9  2 27 19 15  7 31 16 26 18
  21050597.535     -425222.318 9   -435251.552 9
  20288960.345      308500.940 8     91622.607 9
  21720712.104      993091.349 7    895427.909 6
  24574450.662     -267238.878 5   -365134.065 1
  21977678.130    -1434801.031 7  -1277260.398 6
  24286886.948     2203771.655 5   1634508.952 3
  24748245.476     1057702.714 4    959370.439 1
  23791487.706    -1577868.887 6  -1519134.029 2
  24777913.897     2227914.533 5   2185901.026 2
 94  2  1  0 58  0.0000000  0  9  2 27 19 15  7 31 16 26 18
  21047058.095     -443815.748 9   -449739.911 9
  20290844.870      318412.508 8     99345.930 9
  21730769.062     1045930.601 7    936601.364 6
  24563409.695     -325286.252 5   -410365.751 1
  21961238.951    -1521208.944 7  -1344591.188 6
  24305714.904     2302720.239 5   1711611.793 3
  24758814.989     1113245.934 4   1002650.802 1
  23776187.408    -1658302.050 6  -1581809.102 2
  24799140.822     2339486.255 5   2272839.990 2
 94  2  1  0 58 30.0000000  0  9  2 27 19 15  7 31 16 26 18
  21043565.333     -462179.308 9   -464049.151 9
  20292809.440      328724.525 8    107381.274 9
  21740876.235     1099039.117 7    977984.603 6
  24552418.015     -383045.262 5   -455372.614 1
  21944858.860    -1607287.786 7  -1411665.567 6
  24324589.057     2401901.479 5   1788895.955 2
  24769431.180     1169031.351 4   1046119.999 1
  23760937.355    -1738427.427 6  -1644244.377 2
  24820363.910     2451025.533 5   2359753.659 2
 94  2  1  0 59  0.0000000  0  8  2 27 19 15  7 31 26 18
  21040115.411     -480317.633 9   -478182.882 9
  20294840.115      339408.377 8    115706.376 9
  21751027.357     1152409.216 7   1019571.688 6
  24541480.866     -440511.236 5   -500151.218 1
  21928543.765    -1693013.359 7  -1478464.671 6
  24343505.902     2501306.833 5   1866354.725 2
  23745758.114    -1818205.972 6  -1706409.384 2
  24841584.149     2562524.400 5   2446635.807 2
 94  2  1  0 59 30.0000000  0  8  2 27 19 15  7 31 26 18
  21036704.882     -498238.153 9   -492146.893 9
  20296940.401      350449.481 8    124309.847 9
  21761235.980     1206038.281 7   1061360.570 6
  24530603.437     -497680.646 5   -544698.686 1
  21912299.781    -1778381.442 7  -1544985.215 6
  24362465.316     2600938.854 5   1943990.146 2
  23730644.886    -1897621.102 6  -1768291.231 2
  24862797.853     2674001.013 5   2533500.637 2
 94  2  1  1  0  0.0000000  0  7  2 27 19 15  7 31 26
  21033331.528     -515961.004 9   -505956.888 9
  20299110.208      361845.182 8    133189.617 9
  21771489.811     1259928.105 7   1103352.631 6
  24519776.792     -554554.887 5   -589016.187 1
  21896122.860    -1863401.525 7  -1611234.588 7
  24381469.370     2700798.042 5   2021802.529 2
  23715600.551    -1976664.870 6  -1829883.686 2
 94  2  1  1  0 30.0000000  0  7  2 27 19 15  7 31 26
  21029998.285     -533478.795 9   -519607.074 9
  20301349.778      373601.961 8    142350.758 9
  21781800.453     1314097.406 7   1145562.480 6
  24509015.082     -611124.742 5   -633096.475 1
  21880010.274    -1948062.978 7  -1677204.514 7
  24400512.577     2800886.529 5   2099793.623 2
  23700633.863    -2055316.923 6  -1891170.900 2
 94  2  1  1  1  0.0000000  0  7  2 27 19 15  7 31 26
  21026702.397     -550786.965 9   -533093.930 9
  20303657.580      385736.376 8    151806.169 9
  21792166.047     1368562.586 7   1188002.876 6
  24498310.393     -667390.304 5   -676939.701 1
  21863968.799    -2032377.086 7  -1742903.776 7
  24419601.592     2901175.967 5   2177941.276 2
  23685743.291    -2133587.422 6  -1952160.822 2
 94  2  1  1  1 30.0000000  0  7  2 27 19 15  7 31 26
  21023452.617     -567879.811 9   -546413.003 9
  20306041.470      398270.635 8    161573.134 9
  21802585.784     1423336.263 7   1230683.656 6
  24487657.657     -723351.390 5   -720545.609 1
  21847987.433    -2116351.470 7  -1808338.333 7
  24438722.085     3001669.621 5   2256248.095 2
  23670914.807    -2211502.570 6  -2012873.878 2
 94  2  1  1  2  0.0000000  0  7  2 27 19 15  7 31 26
  21020242.709     -584745.764 9   -559555.272 9
  20308503.486      411209.112 8    171655.092 9
  21813069.676     1478413.900 7   1273601.307 6
  24477063.142     -779008.961 5   -763915.101 1
  21832071.511    -2199987.233 7  -1873509.017 7
  24457879.662     3102350.050 5   2334700.462 2
  23656151.767    -2289072.922 6  -2073318.198 2
 94  2  1  1  2 30.0000000  0  7  2 27 19 15  7 31 26
  21017075.461     -601383.297 9   -572519.542 9
  20311044.287      424554.651 8    182054.217 9
  21823603.873     1533772.595 7   1316737.954 6
  24466533.831     -834366.157 4   -807050.396 1
  21816221.124    -2283274.971 7  -1938408.503 7
  24477072.435     3203194.816 5   2413280.884 2
  23641454.921    -2366313.143 6  -2133505.327 2
 94  2  1  1  3  0.0000000  0  7  2 27 19 15  7 31 26
  21013953.573     -617788.058 9   -585302.450 9
  20313666.092      438323.970 8    192783.576 9
  21834189.755     1589410.350 7   1360092.060 6
  24456050.778     -889413.353 4   -849944.196 1
  21800442.658    -2366197.785 7  -2003023.642 7
  24496295.368     3304214.426 5   2491997.538 2
  23626820.043    -2443219.913 6  -2193432.604 2
 94  2  1  1  3 30.0000000  0  7  2 27 19 15  7 31 26
  21010875.693     -633967.130 9   -597909.488 9
  20316363.624      452503.443 8    203832.533 9
  21844823.813     1645309.442 7   1403649.783 6
  24445641.265     -944153.608 4   -892598.873 1
  21784730.745    -2448765.163 7  -2067361.819 7
  24515546.780     3405418.299 5   2570857.821 2
  23612240.746    -2519800.188 6  -2253105.445 2
 94  2  1  1  4  0.0000000  0  7  2 27 19 15  7 31 26
  21007840.744     -649915.549 9   -610336.793 9
  20319138.203      467097.727 8    215204.720 9
  21855516.031     1701488.342 7   1447425.563 5
  24435281.966     -998571.860 4   -935002.577 1
  21769091.591    -2530956.251 7  -2131406.777 7
  24534847.449     3506805.722 5   2649861.050 2
  23597740.114    -2596035.422 6  -2312509.459 2
 94  2  1  1  4 30.0000000  0  7  2 27 19 15  7 31 26
  21004850.405     -665633.763 9   -622584.713 9
  20321991.088      482096.151 8    226891.805 9
  21866260.743     1757954.092 7   1491424.831 5
  24424984.275    -1052670.755 4   -977157.443 1
  21753521.630    -2612767.629 7  -2195155.873 7
  24554178.636     3608383.641 5   2729012.718 2
  23583301.360    -2671923.807 6  -2371643.197 2
 94  2  1  1  5  0.0000000  0  7  2 27 19 15  7 31 26
  21001903.864     -681116.137 9   -634648.878 9
  20324922.279      497485.181 8    238883.276 9
  21877068.021     1814734.008 7   1535668.936 5
  24414752.449    -1106445.012 4  -1019059.360 1
  21738023.619    -2694208.454 7  -2258616.206 7
  24573548.916     3710168.394 5   2808325.613 2
  23568923.704    -2747448.181 6  -2430493.292 2
 94  2  1  1  5 30.0000000  0  7  2 27 19 15  7 31 26
  20999001.634     -696355.755 9   -646523.870 9
  20327921.283      513252.586 8    251169.592 9
  21887933.549     1871824.498 7   1580155.031 5
  24404578.152    -1159894.560 4  -1060708.232 1
  21722596.419    -2775281.396 7  -2321789.887 7
  24592955.171     3812168.949 5   2887806.604 2
  23554623.993    -2822610.408 6  -2489061.198 2
 94  2  1  1  6  0.0000000  0  7  2 27 19 15  7 31 26
  20996147.280     -711348.194 9   -658206.249 9
  20330997.723      529406.122 8    263756.764 9
  21898858.706     1929236.106 7   1624891.370 5
  24394474.037    -1213011.393 4  -1102097.866 2
  21707243.268    -2855961.075 7  -2384657.109 7
  24612406.246     3914393.166 5   2967461.902 2
  23540391.496    -2897397.413 6  -2547336.728 2
 94  2  1  1  6 30.0000000  0  7  2 27 19 15  7 31 26
  20993343.741     -726100.467 9   -669701.488 9
  20334143.206      545944.591 8    276643.915 9
  21909838.874     1986948.665 7   1669862.196 5
  24384429.581    -1265799.598 4  -1143231.414 2
  21691961.707    -2936261.725 7  -2447228.997 7
  24631906.156     4016834.718 5   3047286.537 2
  23526233.288    -2971807.148 6  -2605318.280 2
 94  2  1  1  7  0.0000000  0  7  2 27 19 15  7 31 26
  20990574.438     -740640.412 9   -681031.287 9
  20337362.047      562862.655 8    289826.833 9
  21920873.005     2044941.102 7   1715051.094 5
  24374441.785    -1318259.609 4  -1184109.178 2
  21676749.758    -3016201.928 7  -2509520.019 7
  24651436.076     4119475.581 5   3127266.482 2
  23512139.475    -3045844.979 6  -2663010.037 2
 94  2  1  1  7 30.0000000  0  7  2 27 19 15  7 31 26
  20987847.675     -754973.553 9   -692199.933 9
  20340656.317      580179.780 8    303320.715 9
  21931961.849     2103200.456 7   1760447.996 5
  24364527.259    -1370386.578 4  -1224727.462 2
  21661605.263    -3095780.284 7  -2571529.070 7
  24671000.802     4222298.270 4   3207388.069 2
  23498120.370    -3119523.967 6  -2720422.160 2
 94  2  1  1  8  0.0000000  0  6  2 27 19 15  7 26
  20985155.539     -769125.228 9   -703227.164 9
  20344032.220      597911.110 8    317137.371 9
  21943098.479     2161734.100 7   1806058.649 5
  24354680.935    -1422177.178 4  -1265083.670 2
  21646530.559    -3175002.832 7  -2633260.857 8
  23484164.611    -3192842.854 6  -2777553.689 2
 94  2  1  1  8 30.0000000  0  6  2 27 19 15  7 26
  20982496.440     -783097.065 9   -714114.278 9
  20347484.420      616055.081 8    331275.535 9
  21954290.121     2220535.893 7   1851878.203 5
  24344881.799    -1473629.864 4  -1305176.574 2
  21631518.811    -3253893.667 7  -2694734.202 8
  23470285.210    -3265800.897 6  -2834404.028 3
 94  2  1  1  9  0.0000000  0  6  2 27 19 15  7 26
  20979873.796     -796882.611 9   -724856.211 9
  20351016.185      634605.069 8    345730.115 9
  21965532.009     2279612.362 7   1897911.825 5
  24335164.027    -1524741.059 4  -1345003.301 2
  21616568.971    -3332446.416 7  -2755944.065 8
  23456470.653    -3338397.541 6  -2890972.741 3
 94  2  1  1  9 30.0000000  0  6  2 27 19 15  7 26
  20977288.655     -810460.525 9   -735436.370 9
  20354626.405      653572.917 8    360510.276 9
  21976826.180     2338978.155 7   1944170.874 5
  24325501.895    -1575507.364 4  -1384561.313 2
  21601689.192    -3410640.782 8  -2816874.694 8
  23442724.569    -3410630.317 6  -2947257.934 3
 94  2  1  1 10  0.0000000  0  6  2 27 19 15  7 26
  20974749.263     -823813.667 9   -745841.387 9
  20358311.754      672945.501 8    375605.810 9
  21988181.179     2398648.352 7   1990667.121 5
  24315906.468    -1625924.570 4  -1423847.346 2
  21586883.012    -3488459.648 8  -2877512.740 8
  23429050.826    -3482476.743 6  -3003242.084 3
 94  2  1  1 10 30.0000000  0  6  2 27 19 15  7 26
  20972256.159     -836903.331 9   -756041.088 9
  20362072.381      692714.431 8    391010.196 9
  21999596.616     2458629.086 7   2037405.332 5
  24306379.064    -1675979.812 4  -1462851.262 2
  21572149.981    -3565882.204 8  -2937841.933 8
  23415462.523    -3553915.447 6  -3058908.500 2
 94  2  1  1 11  0.0000000  0  6  2 27 19 15  7 26
  20969812.581     -849738.194 9   -766042.247 9
  20365912.692      712880.453 8    406723.999 9
  22011068.774     2518922.021 7   2084386.827 5
  24296915.725    -1725671.083 4  -1501571.629 2
  21557496.965    -3642882.400 8  -2997842.045 8
  23401943.951    -3624954.256 6  -3114263.344 2
 94  2  1  1 11 30.0000000  0  6  2 27 19 15  7 26
  20967420.986     -862327.892 9   -775852.358 9
  20369823.844      733452.474 8    422754.166 9
  22022602.629     2579535.190 7   2131617.863 5
  24287533.450    -1774994.911 4  -1540005.671 2
  21542926.992    -3719447.856 7  -3057503.370 8
  23388500.178    -3695596.396 6  -3169309.124 2
 94  2  1  1 12  0.0000000  0  6  2 27 19 15  7 26
  20965066.087     -874694.293 9   -785488.491 9
  20373817.560      754419.665 8    439092.247 9
  22034196.533     2640454.580 7   2179087.509 5
  24278222.916    -1823949.056 4  -1578151.702 2
  21528438.472    -3795591.962 8  -3116836.408 8
  23375131.953    -3765834.613 6  -3224040.123 2
 94  2  1  1 12 30.0000000  0  6  2 27 19 15  7 26
  20962750.100     -886865.443 9   -794972.476 9
  20377881.906      775783.776 8    455739.615 9
  22045842.181     2701655.807 7   2226776.757 5
  24268975.908    -1872534.310 4  -1616010.204 2
  21514025.710    -3871326.183 7  -3175850.024 8
  23361839.365    -3835691.940 6  -3278474.366 2
 94  2  1  1 13  0.0000000  0  6  2 27 19 15  7 26
  20960464.093     -898863.126 9   -804321.273 9
  20382024.168      797549.252 8    472699.752 9
  22057541.882     2763133.229 7   2274681.245 5
  24259801.329    -1920751.827 4  -1653582.180 2
  21499692.692    -3946652.549 8  -3234545.836 8
  23348621.036    -3905176.658 6  -3332618.217 2
 94  2  1  1 13 30.0000000  0  6  2 27 19 15  7 26
  20958219.696     -910665.551 9   -813517.944 9
  20386241.649      819722.944 8    489977.968 9
  22069291.707     2824888.620 7   2322802.322 5
  24250691.506    -1968587.301 4  -1690856.458 2
  21485435.493    -4021574.712 8  -3292926.690 8
  23335470.070    -3974258.882 6  -3386448.468 2
 94  2  1  1 14  0.0000000  0  6  2 27 19 15  7 26
  20956010.256     -922278.056 9   -822566.620 9
  20390538.994      842296.962 8    507568.132 9
  22081090.999     2886892.013 7   2371116.644 5
  24241660.827    -2016048.343 4  -1727838.966 2
  21471252.461    -4096110.709 8  -3351006.643 8
  23322396.991    -4042941.898 6  -3439967.621 2
 94  2  1  1 14 30.0000000  0  6  2 27 19 15  7 26
  20953843.986     -933675.093 9   -831447.397 9
  20394909.128      865280.256 8    525477.205 9
  22092941.135     2949142.389 7   2419623.418 5
  24232701.560    -2063130.871 4  -1764526.550 2
  21457145.367    -4170246.981 8  -3408775.108 8
  23309404.405    -4111222.542 6  -3493173.250 2
 94  2  1  1 15  0.0000000  0  6  2 27 19 15  7 26
  20951718.877     -944829.306 9   -840138.959 9
  20399368.661      888693.842 8    543721.574 9
  22104832.793     3011657.842 7   2468336.762 5
  24223816.251    -2109822.390 4  -1800909.419 2
  21443112.892    -4243966.088 8  -3466218.532 8
  23296498.070    -4179068.047 6  -3546039.814 2
 94  2  1  1 15 30.0000000  0  6  2 27 19 15  7 26
  20949644.913     -955735.446 9   -848637.209 9
  20403905.090      912544.445 8    562306.484 9
  22116779.702     3074437.570 7   2517256.040 5
  24215011.706    -2156127.956 4  -1836991.564 2
  21429166.757    -4317278.374 8  -3523344.922 8
  23283669.561    -4246487.436 6  -3598574.305 2
 94  2  1  1 16  0.0000000  0  6  2 27 19 15  7 26
  20947616.337     -966395.255 9   -856943.519 9
  20408529.779      936845.345 8    581242.258 9
  22128785.431     3137504.263 7   2566398.930 5
  24206262.533    -2202045.604 4  -1872771.395 2
  21415289.693    -4390184.774 8  -3580155.042 8
  23270917.499    -4313484.074 6  -3650779.450 2
 94  2  1  1 16 30.0000000  0  6  2 27 19 15  7 26
  20945634.679     -976805.062 9   -865055.022 9
  20413241.377      961597.204 8    600529.444 9
  22140842.244     3200880.999 7   2615783.401 4
  24197605.037    -2247573.831 5  -1908247.825 2
  21401492.465    -4462680.764 7  -3636645.371 8
  23258249.859    -4380046.963 6  -3702646.556 3
 94  2  1  1 17  0.0000000  0  6  2 27 19 15  7 26
  20943697.810     -986988.748 9   -872990.323 9
  20418034.339      986797.322 8    620165.917 9
  22152968.549     3264590.640 7   2665427.259 4
  24189016.612    -2292711.293 5  -1943419.793 2
  21387776.151    -4534769.235 7  -3692818.157 8
  23245670.717    -4446178.159 6  -3754177.294 3
 94  2  1  1 17 30.0000000  0  6  2 27 19 15  7 26
  20941797.935     -996965.844 9   -880764.650 9
  20422913.941     1012423.221 8    640134.160 9
  22165151.125     3328636.683 7   2715333.269 4
  24180498.849    -2337460.669 5  -1978289.335 2
  21374135.114    -4606464.974 7  -3748684.922 8
  23233162.716    -4511891.062 6  -3805382.088 3
 94  2  1  1 18  0.0000000  0  6  2 27 19 15  7 26
  20939935.894    -1006748.152 9   -888387.199 9
  20427866.212     1038460.839 8    660423.237 9
  22177403.853     3393011.069 7   2765495.135 4
  24172064.248    -2381815.442 5  -2012851.390 2
  21360567.707    -4677755.951 8  -3804236.279 8
  23220739.437    -4577170.757 6  -3856249.330 3
 94  2  1  1 18 30.0000000  0  6  2 27 19 15  7 26
  20938110.428    -1016344.466 9   -895864.808 9
  20432897.030     1064898.666 8    681024.155 9
  22189710.663     3457688.012 7   2815892.735 4
  24163691.375    -2425772.487 5  -2047103.513 2
  21347081.183    -4748626.923 8  -3859460.358 8
  23208396.232    -4642020.940 6  -3906781.869 3
 94  2  1  1 19  0.0000000  0  6  2 27 19 15  7 26
  20936318.928    -1025758.605 9   -903200.452 9
  20438003.125     1091729.030 8    701930.957 9
  22202072.305     3522652.082 7   2866514.098 4
  24155405.171    -2469328.163 5  -2081042.939 2
  21333673.985    -4819078.098 8  -3914357.318 8
  23196140.596    -4706457.596 6  -3956992.160 3
 94  2  1  1 19 30.0000000  0  6  2 27 19 15  7 26
  20934564.303    -1034976.027 9   -910382.846 9
  20443184.828     1118957.787 8    723148.168 9
  22214487.670     3587878.404 7   2917339.788 4
  24147192.177    -2512476.926 5  -2114665.256 2
  21320349.889    -4889101.061 8  -3968920.639 8
  23183954.272    -4770475.333 6  -4006876.055 3
 94  2  1  1 20  0.0000000  0  6  2 27 19 15  7 26
  20932846.852    -1044000.120 9   -917414.568 9
  20448443.967     1146588.022 8    744678.242 9
  22226938.591     3653340.275 7   2968349.053 4
  24139053.381    -2555227.225 5  -2147977.071 2
  21307104.878    -4958689.952 8  -4023145.689 8
  23171851.261    -4834083.164 6  -4056440.516 3
 94  2  1  1 20 30.0000000  0  6  2 27 19 15  7 26
  20931171.132    -1052818.647 9   -924286.108 9
  20453775.026     1174620.529 8    766521.766 9
  22239445.632     3719050.397 7   3019551.746 4
  24130999.337    -2597573.444 5  -2180974.005 2
  21293946.508    -5027843.747 8  -4077031.710 8
  23159827.065    -4897281.663 6  -4105686.065 3
 94  2  1  1 21  0.0000000  0  6  2 27 19 15  7 26
  20929528.179    -1061434.914 9   -931000.021 9
  20459188.768     1203052.714 8    788676.760 9
  22251997.523     3785015.872 6   3070953.441 4
  24123023.778    -2639518.029 5  -2213658.005 2
  21280872.678    -5096569.967 8  -4130584.530 8
  23147877.638    -4960068.518 6  -4154610.790 3
 94  2  1  1 21 30.0000000  0  6  2 27 19 15  7 26
  20927930.495    -1069840.755 9   -937549.992 9
  20464678.238     1231898.165 8    811153.754 9
  22264604.065     3851248.760 7   3122563.496 4
  24115110.636    -2681056.453 5  -2246025.510 2
  21267873.947    -5164860.561 8  -4183797.938 9
  23136010.563    -5022422.310 6  -4203198.106 3
 94  2  1  1 22  0.0000000  0  6  2 27 19 15  7 26
  20926370.405    -1078036.478 9   -943936.228 9
  20470243.525     1261157.035 8    833952.886 9
  22277261.813     3917770.977 6   3174398.979 4
  24107291.210    -2722181.590 5  -2278070.979 2
  21254961.227    -5232715.181 8  -4236671.617 9
  23124231.148    -5084332.608 6  -4251439.849 3
 94  2  1  1 22 30.0000000  0  6  2 27 19 15  7 26
  20924849.738    -1086027.180 9   -950162.703 9
  20475887.118     1290826.546 8    857072.010 9
  22289979.308     3984592.661 6   3226467.848 4
  24099544.393    -2762892.882 5  -2309793.939 2
  21242129.720    -5300146.475 8  -4289215.425 9
  23112533.216    -5145803.229 6  -4299338.993 3
 94  2  1  1 23  0.0000000  0  6  2 27 19 15  7 26
  20923367.624    -1093810.729 9   -956227.764 9
  20481617.891     1320933.440 8    880531.940 9
  22302751.936     4051718.266 6   3278773.501 4
  24091877.440    -2803181.033 5  -2341187.222 2
  21229381.015    -5367145.100 8  -4341422.094 9
  23100923.244    -5206828.190 6  -4346890.849 3
 94  2  1  1 23 30.0000000  0  6  2 27 19 15  7 26
  20921923.104    -1101390.652 9   -962134.153 9
  20487430.717     1351472.577 8    904328.709 9
  22315582.304     4119149.243 6   3331317.167 4
  24084294.130    -2843043.620 5  -2372248.839 2
  21216711.037    -5433715.172 8  -4393294.811 9
  23089394.605    -5267415.249 6  -4394101.502 3
 94  2  1  1 24  0.0000000  0  6  2 27 19 15  7 26
  20920521.304    -1108774.954 9   -967888.110 9
  20493320.469     1382429.076 8    928450.657 9
  22328468.793     4186867.431 6   3384084.584 4
  24076787.687    -2882480.786 5  -2402979.030 2
  21204123.711    -5499869.105 8  -4444843.276 9
  23077939.715    -5327587.412 6  -4440988.843 3
 94  2  1  1 24 30.0000000  0  6  2 27 19 15  7 26
  20919154.731    -1115955.195 9   -973483.074 9
  20499291.376     1413805.498 8    952899.841 9
  22341411.523     4254878.486 6   3437080.212 4
  24069358.380    -2921488.036 5  -2433374.191 2
  21191616.819    -5565590.473 8  -4496054.675 9
  23066568.407    -5387346.797 6  -4487554.530 3
 94  2  1  1 25  0.0000000  0  6  2 27 19 15  7 26
  20917823.922    -1122940.218 9   -978925.910 9
  20505340.738     1445588.751 8    977666.029 9
  22354405.847     4323183.206 6   3490304.647 4
  24062022.788    -2960065.535 5  -2463434.496 2
  21179192.580    -5630873.036 8  -4546924.145 9
  23055275.525    -5446685.568 6  -4533792.486 3
 94  2  1  1 25 30.0000000  0  6  2 27 19 15  7 26
  20916532.596    -1129732.207 9   -984218.334 9
  20511461.900     1477763.132 8   1002736.990 9
  22367461.059     4391773.095 6   3543751.309 4
  24054752.222    -2998217.674 5  -2493163.331 2
  21166855.311    -5695721.485 8  -4597455.338 9
  23044064.636    -5505600.577 6  -4579700.226 3
 94  2  1  1 26  0.0000000  0  6  2 27 19 15  7 26
  20915275.146    -1136323.271 9   -989354.196 9
  20517665.206     1510349.430 8   1028128.918 9
  22380567.955     4460647.516 6   3597419.686 4
  24047587.931    -3035937.190 5  -2522555.122 2
  21154597.697    -5760122.751 8  -4647638.111 9
  23032940.657    -5564062.813 6  -4625255.183 3
 94  2  1  1 26 30.0000000  0  6  2 27 19 15  7 26
  20914063.085    -1142722.653 9   -994340.702 9
  20523941.781     1543358.602 8   1053850.365 9
  22393731.182     4529817.889 6   3651318.682 4
  24040487.917    -3073223.741 5  -2551609.487 2
  21142430.980    -5824070.319 8  -4697467.323 9
  23021906.196    -5622054.617 6  -4670443.548 3
 94  2  1  1 27  0.0000000  0  6  2 27 19 15  7 26
  20912879.205    -1148934.056 9   -999180.720 9
  20530308.713     1576801.708 8   1079909.945 9
  22406948.193     4599270.320 6   3705437.440 4
  24033476.311    -3110070.118 5  -2580320.851 2
  21130346.735    -5887577.445 8  -4746953.334 9
  23010960.563    -5679563.004 6  -4715255.243 3
 94  2  1  1 27 30.0000000  0  6  2 27 19 15  7 26
  20911737.865    -1154941.461 9  -1003861.795 9
  20536758.358     1610694.336 8   1106319.802 9
  22420214.698     4668988.567 6   3759763.346 4
  24026542.381    -3146476.572 5  -2608689.465 2
  21118342.925    -5950645.061 8  -4796096.882 9
  23000109.545    -5736591.271 6  -4759692.776 3
 94  2  1  1 28  0.0000000  0  6  2 27 19 15  7 26
  20910632.111    -1160734.376 9  -1008375.698 9
  20543294.343     1645044.418 8   1133086.118 9
  22433529.830     4738979.775 6   3814301.937 4
  24019708.282    -3182438.274 5  -2636711.505 2
  21106425.456    -6013267.382 8  -4844893.427 9
  22989348.285    -5793141.478 6  -4803757.809 3
 94  2  1  1 28 30.0000000  0  6  2 27 19 15  7 26
  20909569.286    -1166319.453 9  -1012727.681 9
  20549914.480     1679838.874 8   1160198.689 9
  22446901.024     4809235.621 6   3869046.743 4
  24012948.891    -3217958.890 5  -2664389.828 2
  21094594.056    -6075442.481 8  -4893341.510 9
  22978675.854    -5849234.226 6  -4847466.397 3
 94  2  1  1 29  0.0000000  0  6  2 27 19 15  7 26
  20908548.733    -1171683.539 9  -1016907.449 9
  20556622.876     1715082.487 8   1187661.274 9
  22460322.013     4879748.702 6   3923992.013 4
  24006265.858    -3253032.990 5  -2691720.197 2
  21082850.616    -6137155.300 8  -4941429.371 9
  22968087.064    -5904864.503 7  -4890814.614 3
 94  2  1  1 29 30.0000000  0  6  2 27 19 15  7 26
  20907572.099    -1176822.733 9  -1020911.995 9
  20563414.914     1750772.999 8   1215472.071 9
  22473791.478     4950528.127 6   3979144.792 4
  23999681.726    -3287658.286 5  -2718700.870 2
  21071198.793    -6198394.491 8  -4989148.149 9
  22957589.981    -5960044.261 7  -4933811.778 3
 94  2  1  1 30  0.0000000  0  6  2 27 19 15  7 26
  20906631.410    -1181753.951 9  -1024754.452 9
  20570290.714     1786899.058 8   1243622.271 9
  22487311.488     5021588.282 6   4034516.370 4
  23993178.778    -3321828.331 5  -2745326.800 2
  21059632.290    -6259167.627 8  -5036503.797 9
  22947174.292    -6014763.953 7  -4976450.445 3
 94  2  1  1 30 30.0000000  0  6  2 27 19 15  7 26
  20905730.894    -1186497.928 9  -1028451.027 9
  20577244.040     1823441.379 8   1272096.822 9
  22500887.949     5092924.256 6   4090102.846 4
  23986760.281    -3355541.797 5  -2771596.974 2
  21048155.395    -6319483.065 8  -5083502.765 9
  22936848.750    -6069020.004 7  -5018727.830 3
 94  2  1  1 31  0.0000000  0  6  2 27 19 15  7 26
  20904863.594    -1191055.100 9  -1032002.033 9
  20584274.833     1860386.792 8   1300885.478 9
  22514517.924     5164551.260 6   4145916.098 4
  23980433.192    -3388794.308 5  -2797507.896 2
  21036762.472    -6379349.968 8  -5130152.256 9
  22926617.373    -6122801.139 7  -5060635.162 3
 94  2  1  1 31 30.0000000  0  6  2 27 19 15  7 26
  20904026.604    -1195444.921 9  -1035422.637 9
  20591373.529     1897704.823 8   1329964.480 9
  22528204.948     5236474.148 6   4201959.914 4
  23974188.844    -3421593.652 5  -2823065.768 2
  21025452.532    -6438785.734 8  -5176465.768 9
  22916470.448    -6176113.422 7  -5102177.149 3
 94  2  1  1 32  0.0000000  0  6  2 27 19 15  7 26
  20903226.188    -1199662.815 9  -1038709.276 9
  20598547.023     1935390.780 8   1359330.185 9
  22541946.385     5308693.513 6   4258234.752 4
  23968042.649    -3453929.351 5  -2848262.353 2
  21014228.332    -6497773.796 8  -5222430.450 9
  22906418.466    -6228932.781 6  -5143335.046 3
 94  2  1  1 32 30.0000000  0  6  2 27 19 15  7 26
  20902456.321    -1203700.025 9  -1041855.122 9
  20605790.008     1973454.083 8   1388989.908 9
  22555742.325     5381189.573 6   4314725.203 4
  23961977.668    -3485800.879 5  -2873097.252 2
  21003091.073    -6556296.429 8  -5268032.447 9
  22896457.532    -6281271.798 6  -5184118.646 3
 94  2  1  1 33  0.0000000  0  6  2 27 19 15  7 26
  20901724.287    -1207540.515 9  -1044847.684 9
  20613110.191     2011922.055 8   1418964.961 8
  22569591.117     5453954.599 6   4371425.219 4
  23956000.916    -3517207.747 5  -2897570.044 2
  20992045.369    -6614344.041 8  -5313264.302 9
  22886589.384    -6333136.394 6  -5224532.552 3
 94  2  1  1 33 30.0000000  0  6  2 27 19 15  7 26
  20901031.647    -1211185.683 9  -1047688.039 9
  20620510.118     2050820.727 8   1449275.631 8
  22583482.780     5526961.307 6   4428313.575 4
  23950109.304    -3548155.796 5  -2921685.374 2
  20981090.353    -6671921.757 8  -5358130.002 9
  22876808.955    -6384537.388 6  -5264585.218 3
 94  2  1  1 34  0.0000000  0  6  2 27 19 15  7 26
  20900378.759    -1214620.524 9  -1050364.507 9
  20628002.321     2090184.727 8   1479948.894 8
  22597418.663     5600197.521 6   4485380.745 4
  23944304.333    -3578634.831 5  -2945435.150 2
  20970223.626    -6729025.895 8  -5402626.686 9
  22867110.189    -6435470.592 6  -5304273.385 3
 94  2  1  1 34 30.0000000  0  6  2 27 19 15  7 26
  20899763.645    -1217852.013 9  -1052882.502 9
  20635585.421     2130029.982 8   1510997.164 8
  22611403.621     5673672.989 6   4542634.372 4
  23938599.762    -3608645.255 5  -2968819.860 2
  20959441.381    -6785677.621 8  -5446770.826 9
  22857507.807    -6485946.853 6  -5343605.490 3
 94  2  1  1 35  0.0000000  0  6  2 27 19 15  7 26
  20899185.375    -1220885.361 9  -1055246.110 9
  20643255.731     2170349.634 8   1542415.099 8
  22625432.559     5747409.283 6   4600091.230 4
  23932977.335    -3638183.970 5  -2991836.976 2
  20948744.006    -6841886.524 8  -5490569.914 9
  22847994.163    -6535943.815 6  -5382564.113 3
 94  2  1  1 35 30.0000000  0  6  2 27 19 15  7 26
  20898649.016    -1223726.995 9  -1057460.336 9
  20651015.499     2211121.624 8   1574185.490 8
  22639513.931     5821414.913 6   4657757.960 4
  23927447.962    -3667247.070 5  -3014483.484 2
  20938132.522    -6897656.867 8  -5534027.274 9
  22838572.615    -6585444.664 6  -5421136.156 3
 94  2  1  1 36  0.0000000  0  6  2 27 19 15  7 26
  20898140.658    -1226383.545 9  -1059530.335 9
  20658855.612     2252309.588 8   1606280.038 8
  22653650.224     5895699.953 6   4715642.394 3
  23922007.839    -3695836.685 5  -3036761.036 2
  20927604.741    -6952983.662 8  -5577139.004 9
  22829249.999    -6634457.931 6  -5459328.239 3
 94  2  1  1 36 30.0000000  0  6  2 27 19 15  7 26
  20897672.143    -1228843.947 9  -1061447.493 9
  20666770.163     2293901.879 8   1638689.642 8
  22667844.977     5970290.617 6   4773765.009 3
  23916657.892    -3723945.987 5  -3058664.303 2
  20917162.250    -7007848.045 8  -5619890.424 9
  22820017.680    -6682968.628 6  -5497128.733 3
 94  2  1  1 37  0.0000000  0  6  2 27 19 15  7 26
  20897243.110    -1231102.417 9  -1063207.321 9
  20674757.263     2335891.036 8   1671408.464 8
  22682091.055     6045183.584 6   4832123.159 3
  23911405.319    -3751572.996 5  -3080191.746 2
  20906815.783    -7062226.071 8  -5662262.860 9
  22810885.433    -6730966.417 7  -5534529.562 3
 94  2  1  1 37 30.0000000  0  6  2 27 19 15  7 26
  20896852.030    -1233163.508 9  -1064813.338 9
  20682822.940     2378277.916 8   1704437.209 8
  22696400.959     6120366.776 6   4890707.442 3
  23906237.676    -3778720.155 5  -3101345.316 2
  20896562.161    -7116113.205 8  -5704252.786 9
  22801847.709    -6778475.856 7  -5571549.893 3
 94  2  1  1 38  0.0000000  0  6  2 27 19 15  7 26
  20896492.549    -1235037.794 9  -1066273.789 9
  20690966.442     2421074.363 8   1737785.113 8
  22710764.345     6195834.378 6   4949513.367 3
  23901160.931    -3805389.475 5  -3122126.544 2
  20886399.167    -7169505.712 8  -5745857.275 9
  22792894.647    -6825514.284 6  -5608203.150 3
 94  2  1  1 38 30.0000000  0  6  2 27 19 15  7 26
  20896170.962    -1236727.968 9  -1067590.774 9
  20699191.578     2464301.427 8   1771468.556 8
  22725175.129     6271577.211 6   5008533.759 3
  23896182.397    -3831574.096 5  -3142530.081 2
  20876336.393    -7222397.150 8  -5787071.343 9
  22784033.802    -6872074.622 7  -5644483.878 3
 94  2  1  1 39  0.0000000  0  7  2 27 19 15 13  7 26
  20895880.193    -1238251.446 9  -1068777.864 9
  20707505.152     2507976.027 8   1805500.723 8
  22739642.243     6347579.900 6   5067756.646 3
  23891283.459    -3857271.939 5  -3162554.312 2
  24618280.709     -212289.38015   -329441.350
  20866366.675    -7274787.529 8  -5827894.959 9
  22775261.425    -6918172.829 7  -5680404.523 3
 94  2  1  1 39 30.0000000  0  7  2 27 19 15 13  7 26
  20895625.250    -1239605.370 9  -1069832.854 9
  20715900.930     2552107.652 8   1839889.021 8
  22754148.721     6423835.286 6   5127176.438 3
  23886494.184    -3882480.382 5  -3182197.183 2
  24595204.364     -333555.732 5   -423934.498
  20856491.481    -7326686.819 8  -5868335.911 9
  22766576.677    -6963811.807 7  -5715967.332 3
 94  2  1  1 40  0.0000000  0  7  2 27 19 15 13  7 26
  20895399.656    -1240786.476 9  -1070753.144 9
  20724388.714     2596690.317 8   1874628.800 8
  22768708.561     6500339.647 6   5186790.205 3
  23881783.485    -3907198.132 5  -3201457.712 2
  24572144.119     -454765.782 5   -518383.623 1
  20846707.695    -7378098.573 8  -5908396.971 9
  22757980.308    -7008977.941 7  -5751161.681 3
 94  2  1  1 40 30.0000000  0  7  2 27 19 15 13  7 26
  20895206.649    -1241784.873 9  -1071531.096 9
  20732956.003     2641713.968 8   1909712.157 8
  22783310.193     6577091.343 6   5246596.737 3
  23877178.913    -3931428.578 5  -3220338.527 2
  24549091.038     -575921.975 5   -612791.044 1
  20837013.875    -7429031.562 8  -5948084.971 9
  22749479.213    -7053658.540 7  -5785977.690 3
 94  2  1  1 41  0.0000000  0  7  2 27 19 15 13  7 26
  20895055.404    -1242586.982 9  -1072156.087 9
  20741608.223     2687172.310 8   1945134.275 8
  22797971.003     6654109.210 6   5306610.657 3
  23872660.201    -3955165.723 5  -3238834.948 1
  24526049.949     -697017.142 5   -707150.831 1
  20827411.343    -7479492.733 8  -5987405.297 9
  22741068.356    -7097835.362 6  -5820401.157 3
 94  2  1  1 41 30.0000000  0  7  2 27 19 15 13  7 26
  20894942.173    -1243180.207 9  -1072618.321 9
  20750332.364     2733034.686 8   1980871.199 8
  22812676.513     6731396.974 6   5366834.915 3
  23868231.607    -3978405.773 5  -3256944.029 2
  24503014.406     -818046.011 5   -801458.913 1
  20817896.470    -7529491.934 8  -6026365.681 9
  22732764.375    -7141486.518 7  -5854415.009 3
 94  2  1  1 42  0.0000000  0  7  2 27 19 15 13  7 26
  20894870.072    -1243564.926 9  -1072918.064 9
  20759133.161     2779287.442 8   2016912.315 8
  22827431.638     6808950.894 6   5427266.573 2
  23863907.461    -4001148.242 5  -3274665.388 2
  24479993.193     -939006.660 5   -895713.826 1
  20808471.475    -7579029.735 8  -6064966.502 9
  22724560.284    -7184612.055 7  -5888019.281 3
 94  2  1  1 42 30.0000000  0  7  2 27 19 15 13  7 26
  20894836.496    -1243741.734 9  -1073055.806 9
  20768011.605     2825936.635 8   2053262.344 8
  22842245.463     6886775.598 6   5487909.174 2
  23859672.682    -4023387.815 5  -3291994.864 2
  24456988.709    -1059892.832 5   -989910.680 1
  20799131.471    -7628109.526 8  -6103210.457 9
  22716450.269    -7227222.075 7  -5921221.837 3
 94  2  1  1 43  0.0000000  0  7  2 27 19 15 13  7 26
  20894840.993    -1243730.113 9  -1073046.720 9
  20776962.088     2872977.995 8   2089917.968 8
  22857104.886     6964856.651 6   5548751.565 2
  23855536.086    -4045124.302 5  -3308932.293 2
  24434000.324    -1180702.872 5  -1084048.211 1
  20789875.259    -7676742.203 8  -6141105.999 9
  22708437.806    -7269330.345 7  -5954033.429 3
 94  2  1  1 43 30.0000000  0  7  2 27 19 15 13  7 26
  20894876.998    -1243539.279 9  -1072898.004 9
  20785989.739     2920423.507 8   2126888.505 8
  22872005.860     7043173.029 6   5609777.338 2
  23851492.845    -4066361.700 5  -3325480.918 2
  24411026.328    -1301439.242 5  -1178128.393 1
  20780708.025    -7724919.337 8  -6178646.576 9
  22700518.758    -7310945.623 7  -5986460.880 3
 94  2  1  1 44  0.0000000  0  7  2 27 19 15 13  7 26
  20894942.023    -1243179.133 9  -1072617.342 9
  20795107.147     2968308.370 8   2164201.389 7
  22886953.632     7121728.454 6   5670989.374 2
  23847550.664    -4087096.725 5  -3341638.026 2
  24388065.464    -1422097.196 5  -1272147.403 1
  20771631.958    -7772622.841 8  -6215818.098 9
  22692690.667    -7352077.395 7  -6018511.569 3
 94  2  1  1 44 30.0000000  0  7  2 27 19 15 13  7 26
  20895042.003    -1242665.951 9  -1072217.423 9
  20804302.981     3016645.070 8   2201866.371 7
  22901951.979     7200530.544 6   5732393.610 2
  23843701.059    -4107327.070 5  -3357401.854 2
  24365111.644    -1542672.940 5  -1366102.453 1
  20762648.827    -7819833.411 8  -6252605.504 9
  22684958.210    -7392704.358 7  -6050168.877 3
 94  2  1  1 45  0.0000000  0  7  2 27 19 15 13  7 26
  20895171.064    -1241997.531 9  -1071696.535 9
  20813584.735     3065430.658 8   2239881.126 7
  22916992.596     7279574.994 6   5793986.681 2
  23839950.566    -4127052.973 5  -3372772.630 2
  24342188.943    -1663165.478 5  -1459992.581 1
  20753760.910    -7866530.360 8  -6288992.692 9
  22677331.310    -7432804.044 7  -6081415.349 3
 94  2  1  1 45 30.0000000  0  7  2 27 19 15 13  7 26
  20895327.466    -1241163.101 9  -1071046.308 9
  20822952.830     3114665.794 8   2278246.184 7
  22932086.127     7358868.548 6   5855773.896 2
  23836285.783    -4146275.527 5  -3387751.232 2
  24319282.401    -1783574.346 5  -1553817.524 1
  20744973.754    -7912697.376 8  -6324966.928 9
  22669798.785    -7472381.902 7  -6112255.203 3
 94  2  1  1 46  0.0000000  0  7  2 27 19 15 13  7 26
  20895517.354    -1240157.305 9  -1070262.553 9
  20832403.637     3164338.737 8   2316952.377 7
  22947223.068     7438422.304 6   5917763.834 2
  23832735.071    -4164988.010 5  -3402332.315 2
  24296379.696    -1903891.533 5  -1647571.032 1
  20736289.845    -7958332.851 8  -6360526.990 9
  22662369.478    -7511438.129 7  -6142688.566 3
 94  2  1  1 46 30.0000000  0  7  2 27 19 15 13  7 26
  20895747.715    -1238955.862 9  -1069326.332 9
  20841938.536     3214427.440 8   2355982.540 7
  22962408.545     7518233.226 6   5979954.183 2
  23829262.065    -4183191.590 5  -3416516.878 2
  24273503.493    -2024116.421 5  -1741252.634 1
  20727705.678    -8003451.104 8  -6395684.039 9
  22655034.186    -7549973.021 7  -6172715.704 4
 94  2  1  1 47  0.0000000  0  7  2 27 19 15 13  7 26
  20896017.168    -1237536.981 9  -1068220.677 9
  20851549.073     3264932.019 8   2395336.773 7
  22977642.379     7598303.272 6   6042346.419 2
  23825897.764    -4200883.183 5  -3430302.473 2
  24250637.243    -2144244.243 5  -1834858.618 1
  20719212.708    -8048078.993 8  -6430458.952 9
  22647791.740    -7588018.826 7  -6202361.740 4
 94  2  1  1 47 30.0000000  0  7  2 27 19 15 13  7 26
  20896330.002    -1235898.169 9  -1066943.665 9
  20861241.303     3315856.006 8   2435017.813 7
  22992928.557     7678626.223 6   6104935.726 2
  23822632.725    -4218060.093 5  -3443687.001 2
  24227798.844    -2264271.115 5  -1928385.985 1
  20710809.015    -8092229.409 8  -6464861.843 9
  22640644.658    -7625592.575 7  -6231639.947 4
 94  2  1  1 48  0.0000000  0  7  2 27 19 15 13  7 26
  20896678.031    -1234053.023 9  -1065505.856 9
  20871008.931     3367191.443 8   2475019.464 7
  23008261.862     7759200.292 6   6167720.732 2
  23819462.329    -4234723.162 5  -3456671.142 2
  24204983.708    -2384196.254 5  -2021834.053 1
  20702500.357    -8135908.179 8  -6498897.192 9
  22633584.486    -7662678.786 7  -6260538.247 4
 94  2  1  1 48 30.0000000  0  7  2 27 19 15 13  7 26
  20897071.898    -1232009.384 9  -1063913.380 9
  20880854.145     3418934.305 8   2515338.591 7
  23023642.714     7840039.712 6   6230712.504 2
  23816380.253    -4250870.512 5  -3469253.458 2
  24182183.563    -2504015.851 5  -2115199.820 1
  20694274.682    -8179123.816 8  -6532571.685 9
  22626621.506    -7699264.376 7  -6289046.453 4
 94  2  1  1 49  0.0000000  0  7  2 27 19 15 13  7 26
  20897491.338    -1229793.961 9  -1062187.041 9
  20890778.385     3471085.656 8   2555976.016 7
  23039078.008     7921143.009 6   6293909.867 2
  23813416.055    -4266499.507 5  -3481431.881 2
  24159400.085    -2623725.746 5  -2208480.135 1
  20686140.563    -8221858.997 8  -6565871.762 9
  22619759.346    -7735339.184 7  -6317156.658 4
 94  2  1  1 49 30.0000000  0  7  2 27 19 15 13  7 26
  20897942.076    -1227426.139 9  -1060341.974 9
  20900778.622     3523630.021 8   2596919.691 7
  23054556.263     8002501.796 6   6357306.357 2
  23810533.910    -4281610.053 5  -3493206.243 2
  24136640.861    -2743324.288 5  -2301673.615 1
  20678104.506    -8264094.369 8  -6598782.410 9
  22612998.637    -7770867.353 7  -6344840.912 4
 94  2  1  1 50  0.0000000  0  7  2 27 19 15 13  7 26
  20898418.686    -1224920.044 9  -1058389.135 9
  20910849.880     3576557.503 8   2638161.890 7
  23070093.457     8084130.969 6   6420913.486 2
  23807760.620    -4296201.970 5  -3504576.544 2
  24113906.280    -2862809.445 5  -2394778.763 1
  20670166.452    -8305828.695 8  -6631302.614 9
  22606344.623    -7805828.685 7  -6372083.460 4
 94  2  1  1 50 30.0000000  0  7  2 27 19 15 13  7 26
  20898924.885    -1222258.206 9  -1056314.951 9
  20920997.795     3629882.373 8   2679713.741 7
  23085676.819     8166016.743 6   6484720.618 2
  23805083.204    -4310269.185 5  -3515537.977 2
  24091188.577    -2982173.871 5  -2487789.836 1
  20662316.746    -8347062.894 8  -6663433.118 9
  22599801.113    -7840227.556 7  -6398887.716 4
 94  2  1  1 51  0.0000000  0  7  2 27 19 15 13  7 26
  20899460.704    -1219427.626 9  -1054109.284 9
  20931222.726     3683625.913 8   2721591.824 7
  23101298.464     8248130.245 6   6548705.150 2
  23802503.760    -4323809.356 5  -3526088.706 2
  24068496.836    -3101412.948 5  -2580703.271 1
  20654572.087    -8387786.221 8  -6695165.540 9
  22593360.912    -7874073.899 7  -6425261.453 4
 94  2  1  1 51 30.0000000  0  7  2 27 19 15 13  7 26
  20900037.475    -1216410.349 9  -1051758.128 9
  20941532.289     3737796.300 8   2763802.533 7
  23116970.145     8330472.980 6   6612868.301 3
  23800030.562    -4336820.135 5  -3536226.887 2
  24045835.704    -3220522.799 5  -2673515.932 1
  20646912.840    -8428019.448 8  -6726516.064 9
  22587019.911    -7907380.555 7  -6451214.654 4
 94  2  1  1 52  0.0000000  0  7  2 27 19 15 13  7 26
  20900644.795    -1213210.660 9  -1049264.835 9
  20951922.646     3792401.974 8   2806352.422 7
  23132680.349     8413040.746 6   6677206.857 2
  23797653.747    -4349309.705 5  -3545958.952 2
  24023194.239    -3339509.928 6  -2766232.988 1
  20639349.316    -8467773.975 8  -6757493.560 9
  22580779.342    -7940186.745 7  -6476777.852 4
 94  2  1  1 52 30.0000000  0  7  2 27 19 15 13  7 26
  20901292.796    -1209820.925 9  -1046623.467 9
  20962401.052     3847456.886 8   2849252.355 7
  23148429.136     8495827.501 6   6741715.999 3
  23795375.534    -4361274.143 5  -3555281.865 2
  24000575.887    -3458368.242 6  -2858849.723 1
  20631873.301    -8507045.504 8  -6788094.726 9
  22574624.513    -7972519.618 7  -6501972.268 4
 94  2  1  1 53  0.0000000  0  7  2 27 19 15 13  7 26
  20901967.149    -1206255.792 9  -1043845.402 9
  20972959.952     3902953.321 8   2892496.333 7
  23164234.914     8578848.733 6   6806407.882 3
  23793200.060    -4372712.384 5  -3564194.720 2
  23977975.523    -3577095.428 6  -2951364.277 1
  20624495.979    -8545826.439 8  -6818313.584 9
  22568562.289    -8004370.707 7  -6526791.252 4
 94  2  1  1 53 30.0000000  0  7  2 27 19 15 13  7 26
  20902677.418    -1202522.326 9  -1040936.192 9
  20983601.535     3958879.271 8   2936075.001 7
  23180082.873     8662129.521 6   6871302.003 3
  23791126.816    -4383621.646 5  -3572695.412 2
  23955410.444    -3695686.845 6  -3043772.950 1
  20617208.054    -8584114.691 8  -6848148.551 9
  22562597.889    -8035732.525 7  -6551229.005 4
 94  2  1  1 54  0.0000000  0  7  2 27 19 15 13  7 26
  20903422.102    -1198625.363 9  -1037899.578 9
  20994328.379     4015233.788 8   2979987.635 7
  23195978.168     8745664.518 6   6936394.225 2
  23789148.245    -4394000.964 5  -3580783.151 2
  23932873.516    -3814139.396 5  -3136073.472 1
  20610017.142    -8621899.334 8  -6877591.091 9
  22556720.997    -8066594.878 7  -6575277.550 4
 94  2  1  1 54 30.0000000  0  7  2 27 19 15 13  7 26
  20904196.916    -1194549.566 9  -1034723.609 9
  21005132.389     4072007.430 8   3024226.845 7
  23211921.971     8829446.049 6   7001678.519 2
  23787276.641    -4403847.980 5  -3588456.061 2
  23910358.563    -3932449.029 5  -3228262.601 2
  20602923.183    -8659184.328 8  -6906644.296 9
  22550946.664    -8096932.605 7  -6598917.280 4
 94  2  1  1 55  0.0000000  0  7  2 27 19 15 13  7 26
  20905008.364    -1190291.981 9  -1031405.986 9
  21016013.147     4129194.954 8   3068788.558 7
  23227905.616     8913461.473 6   7067145.113 2
  23785507.386    -4413164.828 5  -3595715.942 2
  23887869.152    -4050615.612 5  -3320340.289 2
  20595924.558    -8695971.823 8  -6935309.836 9
  22545278.309    -8126729.259 7  -6622135.418 4
 94  2  1  1 55 30.0000000  0  7  2 27 19 15 13  7 26
  20905854.678    -1185843.376 9  -1027939.535 9
  21026975.418     4186799.646 7   3113675.321 7
  23243939.386     8997714.416 6   7132796.765 2
  23783823.482    -4421949.258 5  -3602560.874 2
  23865412.239    -4168635.448 5  -3412303.657 2
  20589014.792    -8732266.531 8  -6963591.393 9
  22539708.764    -8155998.209 7  -6644942.359 4
 94  2  1  1 56  0.0000000  0  7  2 27 19 15 13  7 26
  20906736.667    -1181202.238 9  -1024323.027 9
  21038017.973     4244830.950 7   3158894.554 7
  23260021.092     9082202.984 6   7198632.020 2
  23782259.674    -4430196.767 5  -3608987.497 2
  23842983.416    -4286502.103 5  -3504147.632 2
  20582202.877    -8768059.715 8  -6991482.135 9
  22534245.257    -8184726.785 7  -6667328.222 4
 94  2  1  1 56 30.0000000  0  7  2 27 19 15 13  7 26
  20907655.351    -1176378.593 9  -1020564.324 9
  21049141.742     4303294.779 7   3204450.791 6
  23276145.130     9166931.731 6   7264654.410 2
  23780793.989    -4437905.028 5  -3614993.902 2
  23820582.444    -4404210.836 6  -3595868.603 2
  20575490.225    -8803347.976 8  -7018979.440 9
  22528879.062    -8212907.704 7  -6689287.347 4
 94  2  1  1 57  0.0000000  0  7  2 27 19 15 13  7 26
  20908602.995    -1171397.828 9  -1016683.191 9
  21060348.464     4362187.630 7   3250341.322 6
  23292315.725     9251902.104 6   7330865.111 2
  23779433.081    -4445076.207 5  -3620581.757 2
  23798213.939    -4521761.588 6  -3687466.418 2
  20568868.319    -8838134.400 8  -7046085.722 9
  22523620.132    -8240561.480 7  -6710835.707 4
 94  2  1  1 57 30.0000000  0  7  2 27 19 15 13  7 26
  20909577.711    -1166257.668 9  -1012677.838 9
  21071639.218     4421501.669 7   3296560.068 6
  23308531.709     9337134.832 6   7397280.271 2
  23778168.646    -4451703.894 5  -3625746.181 2
  23775872.176    -4639146.013 6  -3778934.627 2
  20562348.372    -8872417.070 8  -7072799.442 9
  22518457.796    -8267681.919 7  -6731968.480 4
 94  2  1  1 58  0.0000000  0  7  2 27 19 15 13  7 26
  20910587.232    -1160965.758 9  -1008554.260 9
  21083003.301     4481232.143 7   3343103.301 6
  23324802.435     9422616.696 6   7463889.504 2
  23777006.501    -4457790.482 5  -3630488.951 2
  23753571.874    -4756364.854 6  -3870273.803 2
  20555917.554    -8906198.537 8  -7099122.628 9
  22513401.706    -8294257.985 7  -6752677.067 4
 94  2  1  1 58 30.0000000  0  7  2 27 19 15 13  7 26
  20911623.584    -1155522.989 9  -1004313.117 9
  21094447.338     4541367.188 7   3389961.799 6
  23341111.115     9508332.506 6   7530681.066 2
  23775957.617    -4463338.632 5  -3634812.152 2
  23731301.222    -4873418.782 6  -3961484.447 2
  20549581.651    -8939487.912 8  -7125062.368 9
  22508443.439    -8320300.782 7  -6772970.117 4
 94  2  1  1 59  0.0000000  0  7  2 27 19 15 13  7 26
  20912692.075    -1149915.228 9   -999943.400 9
  21105965.754     4601892.818 7   3437124.628 6
  23357472.858     9594289.822 6   7597660.770 2
  23774997.682    -4468347.812 5  -3638715.353 2
  23709057.911    -4990304.673 6  -4052564.178 2
  20543339.432    -8972285.036 8  -7150618.519 9
  22503589.829    -8345815.016 7  -6792851.310 4
 94  2  1  1 59 30.0000000  0  7  2 27 19 15 13  7 26
  20913792.643    -1144128.863 9   -995434.532 9
  21117558.309     4662808.880 7   3484591.690 6
  23373872.495     9680473.752 6   7664817.089 2
  23774152.147    -4472819.744 5  -3642199.967 2
  23686847.757    -5107022.384 6  -4143512.892 2
  20537195.276    -9004584.287 8  -7175786.751 9
  22498834.251    -8370789.879 7  -6812312.239 4
 94  2  1  2  0  0.0000000  0  7  2 27 19 15 13  7 26
  20914926.278    -1138157.691 9   -990781.643 9
  21129226.891     4724127.187 7   3532372.196 6
  23390305.109     9766868.918 6   7732138.000 2
  23773407.013    -4476749.110 5  -3645261.750 2
  23664667.911    -5223564.752 6  -4234324.917 2
  20531146.543    -9036375.214 8  -7200558.861 9
  22494185.070    -8395225.011 7  -6831352.549 4
 94  2  1  2  0 30.0000000  0  7  2 27 19 15 13  7 26
  20916100.625    -1131997.718 9   -985981.646 9
  21140968.892     4785834.765 7   3580456.046 6
  23406785.809     9853468.202 5   7799617.985 2
  23772758.592    -4480138.998 5  -3647903.226 2
  23642523.562    -5339932.629 6  -4325001.097 2
  20525193.025    -9067658.502 8  -7224935.409 9
  22489637.188    -8419141.871 7  -6849989.040 4
 94  2  1  2  1  0.0000000  0  7  2 27 19 15 13  7 26
  20917313.345    -1125633.829 9   -981022.752 9
  21152784.552     4847938.737 7   3628848.758 6
  23423309.380     9940286.233 5   7867268.409 2
  23772217.766    -4482982.050 5  -3650118.546 2
  23620409.551    -5456116.099 6  -4415533.459 2
  20519337.178    -9098422.929 8  -7248907.655 9
  22485184.071    -8442539.314 7  -6868220.771 4
 94  2  1  2  1 30.0000000  0  7  2 27 19 15 13  7 26
  20918561.321    -1119075.968 9   -975912.699 9
  21164677.619     4910445.085 7   3677554.995 6
  23439866.318    10027318.246 5   7935085.506 2
  23771783.277    -4485277.014 5  -3651906.796 2
  23598344.436    -5572111.877 6  -4505919.657 2
  20513584.551    -9128662.711 8  -7272471.095 9
  22480825.179    -8465413.755 7  -6886044.992 4
 94  2  1  2  2  0.0000000  0  7  2 27 19 15 13  7 26
  20919838.077    -1112351.353 9   -970672.722 9
  21176650.460     4973341.732 7   3726565.388 6
  23456470.024    10114579.041 5   8003080.934 2
  23771445.561    -4487030.641 5  -3653273.219 2
  23576303.155    -5687924.615 6  -4596163.245 2
  20507926.058    -9158396.265 8  -7295640.065 9
  22476573.822    -8487777.177 7  -6903471.009 4
 94  2  1  2  2 30.0000000  0  7  2 27 19 15 13  7 26
  20921147.061    -1105470.150 9   -965310.720 9
  21188689.466     5036620.772 7   3775873.758 6
  23473126.912    10202075.541 5   8071260.071 2
  23771212.562    -4488244.297 5  -3654218.898 2
  23554296.260    -5803553.367 6  -4686263.417 2
  20502364.219    -9187623.354 8  -7318414.380 9
  22472416.060    -8509622.977 7  -6920493.683 4
 94  2  1  2  3  0.0000000  0  7  2 27 19 15 13  7 26
  20922484.316    -1098437.556 9   -959830.749 9
  21200804.229     5100297.317 7   3825491.867 6
  23489819.386    10289809.464 5   8139624.165 2
  23771086.529    -4488915.958 5  -3654742.261 2
  23532328.038    -5918993.659 6  -4776216.759 2
  20496897.653    -9216346.188 8  -7340795.775 9
  22468363.376    -8530919.084 7  -6937088.013 4
 94  2  1  2  3 30.0000000  0  7  2 27 19 15 13  7 26
  20923850.979    -1091270.102 9   -954245.706 9
  21213000.685     5164374.593 7   3875422.199 6
  23506560.517    10377775.408 5   8208169.003 2
  23771052.743    -4489048.818 5  -3654845.758 2
  23510395.372    -6034246.005 6  -4866023.673 2
  20491526.302    -9244573.284 8  -7362790.891 9
  22464416.638    -8551658.560 7  -6953248.629 4
 94  2  1  2  4  0.0000000  0  7  2 27 19 15 13  7 26
  20925243.815    -1083949.196 9   -948541.085 9
  21225270.441     5228862.372 7   3925672.417 6
  23523338.312    10465965.171 5   8276888.307 2
  23771144.689    -4488634.212 5  -3654522.654 2
  23488504.647    -6149299.926 6  -4955675.933 2
  20486250.494    -9272301.282 8  -7384397.086 9
  22460575.637    -8571841.303 7  -6968975.423 4
 94  2  1  2  4 30.0000000  0  7  2 27 19 15 13  7 26
  20926672.956    -1076446.592 9   -942694.883 9
  21237627.436     5293771.086 7   3976250.652 6
  23540156.429    10554355.240 5   8345763.693 2
  23771325.224    -4487670.249 5  -3653771.481 2
  23466646.808    -6264151.171 6  -5045170.319 2
  20481070.950    -9299521.414 8  -7405607.553 9
  22456843.701    -8591462.298 7  -6984264.475 4
 94  2  1  2  5  0.0000000  0  7  2 27 19 15 13  7 26
  20928134.744    -1068761.460 9   -936706.437 9
  21250052.875     5359096.239 7   4027153.380 6
  23557020.624    10642938.409 5   8414789.540 2
  23771611.886    -4486165.380 5  -3652598.771 2
  23444827.913    -6378805.951 6  -5134511.578 2
  20475983.981    -9326256.322 8  -7426439.900 9
  22453215.642    -8610542.826 7  -6999132.394 4
 94  2  1  2  5 30.0000000  0  7  2 27 19 15 13  7 26
  20929631.128    -1060891.035 9   -930573.624 9
  21262561.835     5424821.323 7   4078367.730 6
  23573913.359    10731714.935 5   8483966.000 2
  23771999.727    -4484115.396 5  -3651001.383 2
  23423048.351    -6493257.488 6  -5223694.497 2
  20470989.049    -9352500.508 8  -7446889.900 9
  22449678.091    -8629110.492 7  -7013600.676 4
 94  2  1  2  6  0.0000000  0  7  2 27 19 15 13  7 26
  20931169.303    -1052816.869 9   -924282.040 9
  21275144.874     5490943.945 7   4129891.856 6
  23590842.669    10820683.095 5   8553291.858 2
  23772494.475    -4481511.818 5  -3648972.606 2
  23401311.839    -6607495.147 6  -5312710.719 2
  20466089.871    -9378245.137 8  -7466950.614 9
  22446248.226    -8647159.303 7  -7027664.678 4
 94  2  1  2  6 30.0000000  0  7  2 27 19 15 13  7 26
  20932741.475    -1044546.985 9   -917837.953 9
  21287801.482     5557452.094 7   4181716.402 6
  23607807.115    10909862.886 5   8622782.626 2
  23773097.837    -4478352.418 5  -3646510.724 2
  23379616.758    -6721513.800 6  -5401556.270 2
  20461285.127    -9403489.464 8  -7486621.475 9
  22442911.326    -8664685.553 7  -7041321.455 4
 94  2  1  2  7  0.0000000  0  7  2 27 19 15 13  7 26
  20934348.842    -1036111.410 9   -911264.765 9
  21300530.040     5624334.824 7   4233832.824 6
  23624823.035    10999259.135 5   8692442.042 2
  23773807.745    -4474641.541 5  -3643619.095 2
  23357959.721    -6835315.292 6  -5490232.703 2
  20456575.118    -9428246.503 8  -7505912.663 9
  22439669.850    -8681697.245 7  -7054577.299 4
 94  2  1  2  7 30.0000000  0  7  2 27 19 15 13  7 26
  20935981.512    -1027522.125 9   -904571.788 9
  21313327.580     5691598.433 7   4286246.038 6
  23641877.149    11088874.658 5   8762272.303 2
  23774610.410    -4470378.939 5  -3640297.566 2
  23336343.605    -6948897.377 6  -5578738.063 2
  20451958.464    -9452495.583 8  -7524808.008 9
  22436534.860    -8698176.357 7  -7067418.137 4
 94  2  1  2  8  0.0000000  0  7  2 27 19 15 13  7 26
  20937645.150    -1018784.123 9   -897762.944 9
  21326204.806     5759262.452 7   4338971.253 6
  23658975.092    11178710.486 6   8832274.225 2
  23775527.685    -4465567.668 5  -3636548.503 2
  23314772.519    -7062260.771 6  -5667073.068 2
  20447441.641    -9476246.243 8  -7543314.989 9
  22433505.637    -8714111.812 7  -7079835.356 4
 94  2  1  2  8 30.0000000  0  7  2 27 19 15 13  7 26
  20939331.452    -1009909.978 9   -890848.005 9
  21339158.838     5827342.241 7   4392020.430 6
  23676111.679    11268779.399 6   8902457.790 2
  23776549.767    -4460203.948 5  -3632368.975 2
  23293239.056    -7175398.818 6  -5755232.440 2
  20443016.704    -9499503.864 8  -7561437.780 9
  22430574.986    -8729500.747 7  -7091826.703 4
 94  2  1  2  9  0.0000000  0  7  2 27 19 15 13  7 26
  20941051.182    -1000886.667 9   -883816.842 9
  21352199.480     5895859.082 7   4445410.174 6
  23693296.112    11359074.011 6   8972817.256 2
  23777671.561    -4454281.637 5  -3627754.130 2
  23271756.648    -7288302.690 6  -5843209.360 2
  20438682.874    -9522263.088 8  -7579172.214 9
  22427757.087    -8744324.432 7  -7103377.621 4
 94  2  1  2  9 30.0000000  0  7  2 27 19 15 13  7 26
  20942797.473     -991707.142 9   -876663.949 9
  21365320.347     5964811.377 7   4499139.257 6
  23710520.478    11449585.635 5   9043345.829 2
  23778908.025    -4447804.014 5  -3622706.572 2
  23250317.980    -7400972.994 6  -5931004.240 2
  20434450.075    -9544516.691 8  -7596512.657 9
  22425038.809    -8758587.995 7  -7114492.053 4
 94  2  1  2 10  0.0000000  0  7  2 27 19 15 13  7 26
  20944572.064     -982368.383 9   -869386.979 9
  21378520.778     6034190.940 7   4553201.252 6
  23727783.068    11540297.936 5   9114030.673 2
  23780251.454    -4440771.616 5  -3617226.800 2
  23228923.381    -7513408.183 6  -6018615.988 2
  20430306.253    -9566283.165 8  -7613473.526 9
  22422427.107    -8772305.170 7  -7125180.753 4
 94  2  1  2 10 30.0000000  0  7  2 27 19 15 13  7 26
  20946383.261     -972863.056 9   -861980.233 9
  21391798.736     6103973.094 7   4607576.961 5
  23745078.454    11631208.187 5   9184869.821 2
  23781691.418    -4433185.647 5  -3611315.667 2
  23207568.834    -7625606.570 6  -6106043.155 2
  20426260.584    -9587551.798 8  -7630046.448 9
  22419927.437    -8785477.155 7  -7135444.605 4
 94  2  1  2 11  0.0000000  0  7  2 27 19 15 13  7 26
  20948225.935     -963172.446 9   -854429.079 9
  21405156.738     6174152.770 7   4662262.414 5
  23762418.630    11722318.295 5   9255864.749 2
  23783246.981    -4425040.733 5  -3604968.935 2
  23186265.582    -7737560.270 6  -6193279.714 2
  20422311.778    -9608305.317 8  -7646218.000 9
  22417522.202    -8798104.826 7  -7145284.320 4
 94  2  1  2 11 30.0000000  0  7  2 27 19 15 13  7 26
  20950103.265     -953313.936 9   -846747.111 9
  21418580.905     6244708.338 7   4717240.793 6
  23779793.372    11813630.462 5   9327017.100 2
  23784895.120    -4416343.522 5  -3598191.877 2
  23165010.507    -7849273.305 6  -6280328.713 2
  20418458.395    -9628557.815 8  -7661999.134 9
  22415215.869    -8810210.730 7  -7154717.479 4
 94  2  1  2 12  0.0000000  0  7  2 27 19 15 13  7 26
  20952007.097     -943296.135 9   -838941.016 9
  21432076.842     6315620.470 7   4772497.014 5
  23797205.258    11905148.679 5   9398329.992 2
  23786657.090    -4407096.063 5  -3590986.035 2
  23143794.794    -7960745.032 6  -6367189.706 2
  20414696.600    -9648314.955 8  -7677394.298 9
  22413012.005    -8821805.412 7  -7163752.283 4
 94  2  1  2 12 30.0000000  0  7  2 27 19 15 13  7 26
  20953951.821     -933105.148 9   -830999.985 9
  21445634.446     6386878.229 7   4828022.548 5
  23814667.539    11996888.924 5   9469815.881 2
  23788520.450    -4397295.026 5  -3583348.852 2
  23122629.717    -8071969.296 6  -6453857.817 2
  20411034.695    -9667565.334 8  -7692394.565 9
  22410899.457    -8832884.701 7  -7172385.491 4
 94  2  1  2 13  0.0000000  0  7  2 27 19 15 13  7 26
  20955917.740     -922748.894 9   -822930.144 9
  21459266.969     6458497.729 7   4883829.959 5
  23832164.866    12088846.552 5   9541471.221 2
  23790489.337    -4386940.925 5  -3575280.693 2
  23101517.102    -8182944.182 6  -6540331.668 2
  20407465.576    -9686310.864 8  -7707001.459 9
  22408891.747    -8843445.227 7  -7180614.436 4
 94  2  1  2 13 30.0000000  0  7  2 27 19 15 13  7 26
  20957921.373     -912227.951 9   -814732.002 9
  21472961.638     6530478.146 7   4939918.600 5
  23849709.889    12181018.066 5   9613293.165 2
  23792565.160    -4376036.157 5  -3566783.453 2
  23080441.723    -8293668.977 6  -6626610.601 2
  20403993.499    -9704547.967 8  -7721212.150 9
  22406979.641    -8853483.689 7  -7188436.593 4
 94  2  1  2 14  0.0000000  0  7  2 27 19 15 13  7 26
  20959956.634     -901524.978 9   -806392.020 9
  21486728.497     6602836.296 7   4996301.545 5
  23867289.689    12273400.759 5   9685279.669 2
  23794744.891    -4364576.584 5  -3557853.891 2
  23059421.265    -8404136.984 6  -6712689.468 2
  20400628.119    -9722262.727 8  -7735015.856 9
  22405176.059    -8862977.219 7  -7195834.154 4
 94  2  1  2 14 30.0000000  0  7  2 27 19 15 13  7 26
  20962032.247     -890623.642 9   -797897.452 9
  21500575.791     6675590.212 7   5052992.927 5
  23884904.145    12365988.323 4   9757425.761 2
  23797033.686    -4352557.399 5  -3548488.280 2
  23038448.744    -8514340.627 6  -6798562.314 2
  20397353.036    -9739462.197 8  -7748418.022 9
  22403474.138    -8871897.506 7  -7202785.016 4
 94  2  1  2 15  0.0000000  0  7  2 27 19 15 13  7 26
  20964139.578     -879539.609 9   -789260.516 9
  21514498.453     6748759.389 7   5110007.876 5
  23902560.782    12458774.780 4   9829726.894 2
  23799425.640    -4339974.417 5  -3538683.381 2
  23017528.836    -8624273.044 6  -6884223.798 2
  20394175.836    -9756150.476 8  -7761421.837 9
  22401891.533    -8880249.623 7  -7209293.145 4
 94  2  1  2 15 30.0000000  0  7  2 27 19 15 13  7 26
  20966285.732     -868273.973 9   -780482.085 9
  21528497.052     6822326.516 7   5167332.904 5
  23920254.053    12551751.554 5   9902176.325 1
  23801925.970    -4326828.798 5  -3528439.980 2
  22996662.202    -8733932.276 6  -6969672.409 2
  20391095.678    -9772342.027 8  -7774038.590 9
  22400406.301    -8888038.781 7  -7215362.600 4
 94  2  1  2 16  0.0000000  0  7  2 27 19 15 13  7 26
  20968463.485     -856835.561 9   -771569.020 9
  21542573.537     6896283.875 7   5224962.022 5
  23937977.633    12644900.001 5   9974759.523 1
  23804539.350    -4313125.361 5  -3517761.972 2
  22975848.811    -8843320.566 6  -7054909.939 2
  20388104.469    -9788055.311 8  -7786282.704 9
  22399031.453    -8895271.357 7  -7220998.360 4
 94  2  1  2 16 30.0000000  0  7  2 27 19 15 13  7 26
  20970672.326     -845225.767 9   -762522.406 9
  21556716.995     6970624.299 7   5282889.604 5
  23955736.649    12738212.083 5  10047470.190 1
  23807255.110    -4298863.781 5  -3506649.011 2
  22955083.746    -8952434.459 6  -7139933.621 2
  20385206.795    -9803290.216 8  -7798154.042 9
  22397752.748    -8901957.093 7  -7226208.010 5
 94  2  1  2 17  0.0000000  0  7  2 27 19 15 13  7 26
  20972912.555     -833448.698 9   -753345.456 9
  21570936.751     7045346.694 7   5341114.857 5
  23973526.723    12831690.876 5  10120310.823 1
  23810077.446    -4284043.651 5  -3495100.874 2
  22934371.655    -9061270.998 6  -7224741.213 2
  20382398.729    -9818031.796 8  -7809640.947 9
  22396587.755    -8908107.684 7  -7231000.679 5
 94  2  1  2 17 30.0000000  0  7  2 27 19 15 13  7 26
  20975187.590     -821491.304 9   -744027.987 9
  21585230.406     7120449.579 7   5399636.583 5
  23991344.618    12925337.165 5  10193281.988 1
  23812995.536    -4268662.116 5  -3483115.243 2
  22913714.875    -9169824.229 6  -7309328.048 2
  20379691.243    -9832271.141 8  -7820736.519 9
  22395518.845    -8913712.191 7  -7235367.801 5
 94  2  1  2 18  0.0000000  0  7  2 27 19 15 13  7 26
  20977494.373     -809362.216 9   -734576.733 9
  21599594.002     7195936.827 7   5458457.818 5
  24009199.117    13019152.412 5  10266384.828 1
  23816035.792    -4252723.935 5  -3470695.822 2
  22893112.058    -9278096.421 6  -7393695.879 2
  20377080.501    -9845998.185 8  -7831432.891 9
  22394557.740    -8918776.819 7  -7239314.260 5
 94  2  1  2 18 30.0000000  0  7  2 27 19 15 13  7 26
  20979835.992     -797078.127 9   -725004.708 9
  21614031.767     7271799.754 7   5517571.788 5
  24027081.498    13113141.079 5  10339622.740 1
  23819170.901    -4236234.271 5  -3457846.729 2
  22872559.786    -9386089.446 6  -7477846.160 2
  20374563.653    -9859207.337 8  -7841725.719 9
  22393691.580    -8923311.721 7  -7242847.958 5
 94  2  1  2 19  0.0000000  0  7  2 27 19 15 13  7 26
  20982197.577     -784649.321 9   -715319.897 9
  21628538.904     7348042.337 7   5576981.596 5
  24045002.761    13207306.338 5  10412998.196 1
  23822413.576    -4219188.486 5  -3444564.312 2
  22852065.224    -9493795.790 6  -7561773.076 2
  20372154.221    -9871890.854 8  -7851608.952 9
  22392933.375    -8927325.384 7  -7245975.464 5
 94  2  1  2 19 30.0000000  0  7  2 27 19 15 13  7 26
  20984588.752     -772077.287 9   -705523.499 9
  21643119.430     7424657.672 7   5636681.815 5
  24062959.100    13301641.626 5  10486506.246 1
  23825762.558    -4201588.747 5  -3430850.163 2
  22831619.169    -9601214.497 7  -7645475.870 2
  20369835.776    -9884056.720 8  -7861088.828 9
  22392265.437    -8930823.695 7  -7248701.410 5
 94  2  1  2 20  0.0000000  0  7  2 27 19 15 13  7 26
  20987011.464     -759351.784 9   -695607.516 9
  21657765.491     7501642.746 7   5696670.203 5
  24080937.774    13396148.027 5  10560147.531 2
  23829218.056    -4183435.152 5  -3416704.520 2
  22811235.950    -9708342.836 7  -7728952.438 2
  20367622.738    -9895707.800 8  -7870167.571 9
  22391697.450    -8933799.639 7  -7251020.323 5
 94  2  1  2 20 30.0000000  0  7  2 27 19 15 13  7 26
  20989467.124     -746462.527 9   -685563.921 9
  21672485.241     7578995.601 7   5756945.163 5
  24098952.662    13490833.142 5  10633928.155 2
  23832776.322    -4164725.322 5  -3402125.413 2
  22790906.993    -9815175.631 6  -7812198.638 2
  20365496.850    -9906860.937 8  -7878858.302 9
  22391232.982    -8936250.758 7  -7252930.262 5
 94  2  1  2 21  0.0000000  0  7  2 27 19 15 13  7 26
  20991951.474     -733389.129 9   -675376.835 9
  21687279.279     7656732.393 7   5817519.293 5
  24117006.674    13585706.368 5  10707855.275 2
  23836447.311    -4145453.156 5  -3387108.114 2
  22770636.586    -9921703.770 6  -7895207.503 2
  20363468.514    -9917529.857 8  -7887171.705 9
  22390865.406    -8938171.801 7  -7254427.141 5
 94  2  1  2 21 30.0000000  0  7  2 27 19 15 13  7 26
  20994477.466     -720121.191 9   -665038.181 9
  21702140.741     7734832.373 7   5878376.399 5
  24135099.568    13680776.523 5  10781935.873 2
  23840220.199    -4125622.626 5  -3371655.796 2
  22750419.033   -10027928.124 6  -7977979.651 2
  20361527.778    -9927728.315 8  -7895118.555 9
  22390605.426    -8939549.096 7  -7255500.369 5
 94  2  1  2 22  0.0000000  0  7  2 27 19 15 13  7 26
  20997036.404     -706670.600 9   -654557.195 9
  21717074.182     7813288.296 7   5939510.888 5
  24153239.290    13776053.105 5  10856177.391 2
  23844100.203    -4105236.329 5  -3355770.332 2
  22730267.163   -10133848.091 7  -8060514.611 2
  20359674.251    -9937460.385 8  -7902701.953 9
  22390444.198    -8940379.533 7  -7256147.451 5
 94  2  1  2 22 30.0000000  0  7  2 27 19 15 13  7 26
  20999626.101     -693058.069 9   -643950.010 9
  21732070.760     7892094.811 7   6000918.572 5
  24171405.154    13871530.891 5  10930575.696 2
  23848078.899    -4084300.559 5  -3339456.715 2
  22710167.728   -10239466.698 7  -8142814.747 2
  20357911.111    -9946731.603 8  -7909926.260 9
  22390387.507    -8940681.758 7  -7256382.925 5
 94  2  1  2 23  0.0000000  0  7  2 27 19 15 13  7 26
  21002247.846     -679289.250 9   -633221.044 9
  21747128.766     7971239.701 7   6062589.918 5
  24189604.415    13967191.883 6  11005116.662 1
  23852166.749    -4062822.800 5  -3322720.770 2
  22690125.253   -10344788.835 7  -8224883.866 2
  20356233.413    -9955531.910 8  -7916783.623 9
  22390435.354    -8940457.684 7  -7256208.327 5
 94  2  1  2 23 30.0000000  0  7  2 27 19 15 13  7 26
  21004894.354     -665376.287 9   -622379.762 9
  21762252.516     8050720.340 7   6124522.862 4
  24207842.290    14063026.807 5  11079793.231 1
  23856359.256    -4040802.267 5  -3305561.929 2
  22670143.366   -10449810.445 7  -8306718.802 3
  20354653.567    -9963846.321 8  -7923262.373 9
  22390580.184    -8939688.882 7  -7255609.240 5
 94  2  1  2 24  0.0000000  0  7  2 27 19 15 13  7 26
  21007568.413     -651325.115 9   -611430.789 9
  21777450.315     8130571.259 7   6186744.351 4
  24226106.635    14159023.328 5  11154595.788 1
  23860653.124    -4018237.948 5  -3287979.319 2
  22650215.472   -10554527.298 6  -8388316.259 2
  20353161.799    -9971672.413 8  -7929360.598 9
  22390827.003    -8938383.072 7  -7254591.695 5
 94  2  1  2 24 30.0000000  0  7  2 27 19 15 13  7 26
  21010272.571     -637125.297 9   -600365.981 9
  21792714.038     8210807.439 7   6249266.064 4
  24244404.528    14255170.840 5  11229515.865 1
  23865050.269    -3995126.240 5  -3269970.190 2
  22630347.776   -10658932.305 7  -8469670.770 3
  20351766.505    -9979003.348 8  -7935072.996 9
  22391181.118    -8936543.569 7  -7253158.336 5
 94  2  1  2 25  0.0000000  0  7  2 27 19 15 13  7 26
  21012998.434     -622777.120 9   -589185.570 9
  21808057.686     8291427.214 7   6312086.646 4
  24262728.832    14351458.989 5  11304545.547 1
  23869554.082    -3971464.217 6  -3251532.235 2
  22610538.660   -10763019.988 7  -8550777.971 3
  20350466.995    -9985834.164 8  -7940395.698 9
  22391632.006    -8934168.656 7  -7251307.721 4
 94  2  1  2 25 30.0000000  0  8  2 27 19 15 13  7  4 26
  21015761.801     -608285.905 9   -577893.698 9
  21823474.303     8372426.432 7   6375202.914 4
  24281073.523    14447884.641 4  11379682.483 1
  23874162.641    -3947253.752 5  -3232666.927 2
  22590792.890   -10866789.011 7  -8631636.873 3
  20349258.651    -9992176.242 8  -7945337.552 9
  24642165.054   -12479494.40515  -2531611.900 2
  22392178.288    -8931275.750 7  -7249053.490 4
 94  2  1  2 26  0.0000000  0  8  2 27 19 15 13  7  4 26
  21018548.012     -593634.035 9   -566476.644 9
  21838959.093     8453800.013 7   6438610.906 4
  24299447.772    14544463.522 4  11454938.684 1
  23878876.008    -3922490.983 6  -3213371.255 2
  22571108.337   -10970231.994 7  -8712241.726 3
  20348150.259    -9998026.535 8  -7949896.207 9
  24623010.055   -12580150.569 5  -2610045.089 2
  22392826.409    -8927878.269 7  -7246406.089 4
 94  2  1  2 26 30.0000000  0  8  2 27 19 15 13  7  4 26
  21021364.472     -578821.374 9   -554934.291 9
  21854508.668     8535516.942 7   6502286.440 4
  24317862.824    14641205.040 4  11530321.676 1
  23883693.523    -3897175.393 6  -3193644.812 2
  22551483.923   -11073345.426 7  -8792589.804 3
  20347130.665   -10003381.469 8  -7954068.869 9
  24603839.197   -12680876.985 5  -2688532.978 2
  22393566.926    -8923973.819 7  -7243363.645 4
 94  2  1  2 27  0.0000000  0  8  2 27 19 15 13  7  4 26
  21024215.618     -563846.797 9   -543265.790 9
  21870122.279     8617563.966 7   6566219.191 4
  24336305.037    14738114.789 4  11605835.678 1
  23888612.877    -3871308.439 6  -3173488.731 2
  22531928.970   -11176127.589 7  -8872679.747 3
  20346202.237   -10008252.189 8  -7957864.213 9
  24584656.317   -12781685.154 5  -2767084.580 2
  22394411.741    -8919550.234 7  -7239916.698 4
 94  2  1  2 27 30.0000000  0  8  2 27 19 15 13  7  4 26
  21027098.842     -548689.409 9   -531454.816 9
  21885798.457     8699945.739 7   6630412.779 4
  24354782.145    14835211.238 4  11681495.234 2
  23893640.457    -3844889.309 6  -3152902.393 2
  22512430.619   -11278574.500 7  -8952508.418 3
  20345366.026   -10012641.064 8  -7961284.090 9
  24565453.381   -12882575.644 5  -2845700.313 2
  22395354.948    -8914588.425 7  -7236050.317 4
 94  2  1  2 28  0.0000000  0  8  2 27 19 15 13  7  4 26
  21030018.131     -533353.057 9   -519504.412 9
  21901542.238     8782674.955 7   6694877.076 4
  24373292.950    14932489.914 4  11757296.800 2
  23898776.951    -3817923.924 6  -3131890.399 2
  22492998.341   -11380688.507 7  -9032077.713 3
  20344623.830   -10016553.755 8  -7964332.936 9
  24546249.215   -12983539.602 5  -2924373.340 2
  22396399.395    -8909090.180 7  -7231765.971 4
 94  2  1  2 28 30.0000000  0  8  2 27 19 15 13  7  4 26
  21032974.175     -517826.896 9   -507406.086 9
  21917349.994     8865758.427 7   6759617.452 4
  24391839.821    15029943.101 5  11833234.321 2
  23904009.888    -3790407.407 6  -3110448.929 2
  22473632.378   -11482461.534 7  -9111381.322 3
  20343967.135   -10019993.215 8  -7967013.006 9
  24527016.150   -13084572.693 5  -3003100.215 2
  22397551.348    -8903037.851 7  -7227049.846 4
 94  2  1  2 29  0.0000000  0  8  2 27 19 15 13  7  4 26
  21035967.992     -502101.309 9   -495152.383 9
  21933227.662     8949206.023 7   6824641.576 4
  24410417.330    15127555.304 5  11909295.740 1
  23909352.879    -3762340.675 6  -3088578.734 2
  22454331.500   -11583891.395 7  -9190417.511 3
  20343401.306   -10022959.263 8  -7969324.197 9
  24507778.078   -13185692.019 5  -3081894.338 2
  22398805.590    -8896437.861 7  -7221907.001 4
 94  2  1  2 29 30.0000000  0  8  2 27 19 15 13  7  4 26
  21038996.706     -486180.178 9   -482746.287 9
  21949177.461     9033023.857 7   6889954.161 4
  24429015.405    15225318.882 5  11985475.142 2
  23914797.860    -3733721.927 6  -3066278.374 2
  22435097.235   -11684972.887 7  -9269182.245 3
  20342930.902   -10025443.850 8  -7971260.215 9
  24488521.989   -13286876.522 5  -3160739.233 2
  22400163.380    -8889304.655 7  -7216348.633 4
 94  2  1  2 30  0.0000000  0  8  2 27 19 15 13  7  4 26
  21042054.859     -470094.905 9   -470212.305 9
  21965197.051     9117198.869 7   6955545.070 4
  24447652.063    15323223.193 4  12061764.226 1
  23920346.659    -3704555.728 6  -3043551.447 2
  22415925.957   -11785707.475 7  -9347676.715 3
  20342551.335   -10027450.551 8  -7972823.868 9
  24469259.124   -13388122.641 5  -3239632.127 2
  22401621.780    -8881651.686 7  -7210385.259 4
 94  2  1  2 30 30.0000000  0  8  2 27 19 15 13  7  4 26
  21045145.179     -453859.167 9   -457561.066 9
  21981279.057     9201699.256 7   7021389.516 4
  24466304.970    15421266.450 4  12138161.527 1
  23926000.175    -3674843.751 6  -3020399.271 2
  22396823.392   -11886093.438 7  -9425899.485 3
  20342258.168   -10028974.464 8  -7974011.304 9
  24449973.086   -13489441.140 5  -3318581.462 2
  22403176.743    -8873470.515 7  -7204010.315 4
 94  2  1  2 31  0.0000000  0  9  2 27 19 15 13  7  4  9 26
  21048260.802     -437485.757 9   -444802.558 9
  21997423.031     9286535.881 7   7087495.980 4
  24484988.635    15519450.216 4  12214668.299 1
  23931758.348    -3644582.561 6  -2996819.097 2
  22377789.958   -11986124.000 7  -9503845.320 3
  20342065.041   -10030004.816 8  -7974814.169 9
  24430678.533   -13590827.989 5  -3397584.027 2
  24725610.246    -9645481.06515  -2372211.382 2
  22404831.598    -8864772.515 7  -7197232.649 5
 94  2  1  2 31 30.0000000  0  9  2 27 19 15 13  7  4  9 26
  21051399.689     -420981.665 9   -431942.220 9
  22013628.672     9371702.160 7   7153859.309 4
  24503698.203    15617782.875 4  12291291.198 1
  23937619.981    -3613772.751 6  -2972811.482 2
  22358821.130   -12085796.476 7  -9581512.142 3
  20341960.983   -10030538.820 8  -7975230.265 9
  24411374.627   -13692277.326 5  -3476635.290 2
  24706469.367    -9746088.223 5  -2450606.513 2
  22406587.452    -8855559.535 7  -7190053.707 5
 94  2  1  2 32  0.0000000  0  9  2 27 19 15 13  7  4  9 26
  21054568.166     -404343.503 9   -418977.409 9
  22029894.661     9457190.950 7   7220473.952 4
  24522440.927    15716267.880 4  12368032.779 1
  23943587.769    -3582416.328 6  -2948377.871 2
  22339924.282   -12185109.716 7  -9658899.021 3
  20341955.347   -10030575.709 8  -7975258.982 9
  24392057.710   -13793794.189 5  -3555739.207 2
  24687329.298    -9846676.016 5  -2528986.587 2
  22408438.581    -8845830.253 7  -7182472.429 5
 94  2  1  2 32 30.0000000  0  9  2 27 19 15 13  7  4  9 26
  21057764.013     -387552.041 9   -405893.140 9
  22046225.975     9543005.121 7   7287342.105 4
  24541202.029    15814892.087 4  12444882.827 1
  23949660.305    -3550519.811 5  -2923523.448 2
  22321092.339   -12284066.492 7  -9736008.152 3
  20342039.619   -10030125.080 8  -7974907.825 9
  24372717.139   -13895378.602 5  -3634895.757 2
  24668191.866    -9947241.969 5  -2607349.595 2
  22410383.784    -8835598.942 7  -7174499.979 5
 94  2  1  2 33  0.0000000  0  9  2 27 19 15 13  7  4  9 26
  21060990.799     -370586.834 9   -392673.495 9
  22062621.025     9629162.807 7   7354477.967 4
  24560006.931    15913655.612 4  12521841.412 1
  23955833.781    -3518079.162 6  -2898244.996 2
  22302332.317   -12382659.340 7  -9812833.728 3
  20342218.805   -10029188.162 8  -7974177.762 9
  24353379.926   -13997010.375 5  -3714089.180 2
  24649061.390   -10047776.261 5  -2685687.937 2
  22412426.360    -8824867.628 7  -7166137.922 5
 94  2  1  2 33 30.0000000  0  9  2 27 19 15 13  7  4  9 26
  21064255.449     -353438.451 9   -379311.108 9
  22079080.411     9715651.909 7   7421872.082 4
  24578831.019    16012575.045 4  12598921.425 1
  23962110.596    -3485094.249 6  -2872542.480 2
  22283638.638   -12480885.058 7  -9889373.193 3
  20342491.346   -10027766.224 8  -7973069.737 9
  24334041.004   -14098667.002 5  -3793302.019 2
  24629938.648   -10148280.116 5  -2764002.583 2
  22414565.199    -8813617.704 7  -7157371.731 5
 94  2  1  2 34  0.0000000  0  9  2 27 19 15 13  7  4  9 26
  21067549.299     -336108.474 9   -365807.209 9
  22095598.076     9802471.951 7   7489524.043 4
  24597677.232    16111647.933 5  12676121.091 1
  23968489.790    -3451567.148 5  -2846417.449 2
  22265015.141   -12578741.913 7  -9965625.257 3
  20342849.298   -10025874.445 8  -7971595.600 9
  24314686.463   -14200344.318 5  -3872530.931 2
  24610811.919   -10248758.196 5  -2842297.127 2
  22416808.966    -8801839.081 7  -7148193.569 5
 94  2  1  2 34 30.0000000  0  9  2 27 19 15 13  7  4  9 26
  21070886.289     -318584.107 9   -352151.854 9
  22112186.942     9889633.027 7   7557441.751 4
  24616564.277    16210876.670 5  12753442.199 1
  23974976.519    -3417488.369 5  -2819862.577 3
  22246469.919   -12676217.351 7 -10041580.076 3
  20343299.887   -10023513.414 8  -7969755.827 9
  24295338.247   -14302034.625 5  -3951769.920 2
  24591699.910   -10349203.228 5  -2920565.935 2
  22419152.384    -8789513.670 7  -7138589.363 5
 94  2  1  2 35  0.0000000  0  9  2 27 19 15 13  7  4  9 26
  21074255.417     -300884.161 9   -338359.677 9
  22128834.627     9977116.332 7   7625610.569 4
  24635478.843    16310248.765 5  12830875.011 1
  23981559.602    -3382867.538 5  -2792885.246 3
  22227992.031   -12773317.406 7 -10117242.439 3
  20343836.035   -10020686.543 8  -7967553.054 9
  24275980.858   -14403748.240 5  -4031027.152 2
  24572593.657   -10449629.385 5  -2998820.005 2
  22421604.266    -8776644.638 7  -7128561.527 4
 94  2  1  2 35 30.0000000  0  9  2 27 19 15 13  7  4  9 26
  21077656.862     -283012.093 9   -324433.385 9
  22145545.688    10064925.423 7   7694033.232 4
  24654412.805    16409759.845 5  12908416.025 1
  23988247.522    -3347707.603 5  -2765487.873 3
  22209585.134   -12870041.808 7 -10192612.075 3
  20344464.550   -10017393.734 8  -7964987.214 9
  24256624.758   -14505493.943 5  -4110309.365 2
  24553484.886   -10550042.659 5  -3077064.047 2
  22424155.560    -8763243.192 7  -7118118.842 4
 94  2  1  2 36  0.0000000  0  9  2 27 19 15 13  7  4  9 26
  21081090.535     -264966.972 9   -310372.232 9
  22162319.735    10153072.679 7   7762719.402 4
  24673364.395    16509387.916 5  12986048.311 1
  23995041.508    -3312007.484 5  -2737669.608 3
  22191251.806   -12966385.742 7 -10267685.206 4
  20345176.677   -10013629.372 8  -7962053.929 9
  24237257.506   -14607282.658 5  -4189625.049 2
  24534374.046   -10650442.582 5  -3155297.731 2
  22426806.145    -8749322.936 7  -7107271.867 4
 94  2  1  2 36 30.0000000  0  9  2 27 19 15 13  7  4  9 26
  21084560.393     -246746.631 9   -296174.567 9
  22179157.819    10241564.148 6   7831673.782 4
  24692350.072    16609126.489 5  13063766.631 2
  24001944.200    -3275768.873 5  -2709431.726 3
  22172992.047   -13062347.434 7 -10342460.516 4
  20345986.507   -10009382.381 8  -7958744.586 9
  24217875.893   -14709106.473 5  -4268968.136 2
  24515271.271   -10750826.844 5  -3233519.149 2
  22429546.818    -8734898.538 7  -7096032.077 4
 94  2  1  2 37  0.0000000  0  9  2 27 19 15 13  7  4  9 26
  21088059.420     -228351.095 9   -281840.373 9
  22196063.445    10330409.932 6   7900904.230 4
  24711347.770    16708995.454 5  13141586.628 2
  24008939.887    -3238989.456 5  -2680772.456 3
  22154804.838   -13157921.082 7 -10416933.451 4
  20346888.043   -10004646.373 8  -7955054.170 9
  24198501.146   -14810948.940 5  -4348325.710 2
  24496171.853   -10851193.362 5  -3311726.750 2
  22432385.433    -8719981.979 7  -7084408.750 4
 94  2  1  2 37 30.0000000  0  8  2 27 15 13  7  4  9 26
  21091591.365     -209771.754 9   -267362.949 9
  22213040.872    10419617.488 6   7970416.649 4
  24016045.028    -3201663.258 5  -2651687.107 3
  22136691.288   -13253097.332 7 -10491096.707 4
  20347880.236    -9999434.196 8  -7950992.718 9
  24179123.461   -14912796.335 6  -4427687.191 2
  24477083.168   -10951528.383 5  -3389909.853 2
  22435325.557    -8704569.697 7  -7072399.190 4
 94  2  1  2 38  0.0000000  0  8  2 27 15 13  7  4  9 26
  21095163.812     -191016.364 9   -252748.345 9
  22230083.024    10509165.174 6   8040194.059 4
  24023241.186    -3163797.288 5  -2622181.155 3
  22118657.422   -13347879.817 7 -10564953.141 4
  20348958.649    -9993769.268 8  -7946578.470 9
  24159738.131   -15014649.165 5  -4507052.824 2
  24457992.474   -11051827.573 5  -3468065.012 2
  22438343.178    -8688662.779 7  -7060004.163 4
 94  2  1  2 38 30.0000000  0  8  2 27 15 13  7  4  9 26
  21098766.778     -172075.074 9   -237988.893 9
  22247186.363    10599052.253 6   8110235.925 3
  24030557.741    -3125390.978 5  -2592254.171 3
  22100694.248   -13442264.391 7 -10638499.533 4
  20350121.364    -9987663.599 8  -7941820.800 9
  24140352.981   -15116494.886 5  -4586412.985 2
  24438921.357   -11152071.024 5  -3546176.726 2
  22441466.026    -8672262.443 7  -7047224.686 4
 94  2  1  2 39  0.0000000  0  8  2 27 15 13  7  4  9 26
  21102402.601     -152947.773 9   -223084.506 9
  22264351.580    10689263.682 6   8180530.549 3
  24037968.641    -3086448.753 5  -2561909.574 3
  22082808.270   -13536251.573 7 -10711736.252 4
  20351366.342    -9981119.753 8  -7936721.694 9
  24120975.266   -15218345.446 5  -4665776.927 2
  24419856.835   -11252249.777 5  -3624238.059 2
  22444681.390    -8655364.297 7  -7034057.289 4
 94  2  1  2 39 30.0000000  0  8  2 27 15 13  7  4  9 26
  21106077.187     -133636.201 9   -208036.511 9
  22281577.715    10779782.195 6   8251064.451 3
  24045482.939    -3046969.800 5  -2531146.731 3
  22065000.688   -13629837.292 7 -10784660.133 4
  20352696.162    -9974127.038 8  -7931272.809 9
  24101585.679   -15320206.237 5  -4745148.783 2
  24400801.816   -11352352.882 5  -3702240.447 2
  22447993.438    -8637955.437 7  -7020491.924 4
 94  2  1  2 40  0.0000000  0  8  2 27 15 13  7  4  9 26
  21109787.448     -114144.592 9   -192848.229 9
  22298860.840    10870602.913 6   8321833.825 3
  24053100.065    -3006956.137 5  -2499967.245 3
  22047267.424   -13723020.094 7 -10857270.075 4
  20354119.426    -9966652.985 8  -7925448.858 9
  24082200.949   -15422081.503 5  -4824531.944 2
  24381770.901   -11452383.414 5  -3780186.263 2
  22451404.296    -8620039.386 7  -7006531.365 4
 94  2  1  2 40 30.0000000  0  8  2 27 15 13  7  4  9 26
  21113531.646      -94493.156 9   -177535.421 9
  22316203.204    10961722.063 6   8392835.747 3
  24060809.378    -2966414.448 5  -2468376.343 3
  22029613.906   -13815803.429 7 -10929568.737 4
  20355636.286    -9958681.134 8  -7919237.016 9
  24062807.495   -15523979.357 5  -4903932.739 2
  24362744.663   -11552358.847 5  -3858089.126 2
  22454910.159    -8601611.624 7  -6992172.061 4
 94  2  1  2 41  0.0000000  0  8  2 27 15 13  7  4  9 26
  21117297.489      -74697.189 9   -162109.981 9
  22333591.796    11053126.533 6   8464059.985 3
  24068619.751    -2925347.893 5  -2436376.426 3
  22012030.748   -13908186.446 7 -11001555.443 4
  20357246.711    -9950211.441 8  -7912637.240 9
  24043413.951   -15625908.413 5  -4983357.832 2
  24343733.294   -11652300.730 5  -3935965.877 2
  22458518.701    -8582664.224 7  -6977407.853 4
 94  2  1  2 41 30.0000000  0  8  2 27 15 13  7  4  9 26
  21121092.562      -54751.941 9   -146568.214 9
  22351041.606    11144838.592 6   8535523.938 3
  24076540.718    -2883747.735 5  -2403960.731 3
  21994530.304   -14000156.973 7 -11073220.752 4
  20358953.340    -9941247.506 8  -7905652.341 9
  24024018.698   -15727848.179 5  -5062791.234 2
  24324715.660   -11752204.951 5  -4013813.214 2
  22462222.037    -8563191.727 7  -6962234.488 4
 94  2  1  2 42  0.0000000  0  8  2 27 15 13  7  4  9 26
  21124918.873      -34651.840 9   -130905.798 9
  22368559.079    11236879.694 6   8607244.296 3
  24084560.496    -2841616.743 5  -2371131.382 3
  21977108.614   -14091713.976 7 -11144563.849 4
  20360751.675    -9931806.057 8  -7898295.359 9
  24004617.299   -15829799.908 5  -5142233.991 2
  24305712.985   -11852074.763 5  -4091633.784 2
  22466027.723    -8543204.028 7  -6946659.648 4
 94  2  1  2 42 30.0000000  0  8  2 27 15 13  7  4  9 26
  21128775.733      -14380.306 9   -115109.791 9
  22386139.988    11329254.013 6   8679224.262 3
  24092672.760    -2798956.459 5  -2337889.575 3
  21959765.681   -14182855.866 7 -11215583.464 4
  20362631.643    -9921914.870 8  -7890587.941 9
  23985211.554   -15931755.374 5  -5221679.650 2
  24286715.437   -11951911.034 5  -4169428.266 2
  22469928.232    -8522703.872 7  -6930685.499 4
 94  2  1  2 43  0.0000000  0  8  2 27 15 13  7  4  9 26
  21132667.938        6086.528 9    -99161.596 9
  22403780.735    11421965.066 6   8751466.650 3
  24100895.108    -2755764.579 5  -2304233.584 3
  21942499.913   -14273576.682 7 -11286274.962 4
  20364600.830    -9911576.217 8  -7882531.836 9
  23965815.761   -16033702.974 6  -5301119.190 2
  24267724.964   -12051695.630 5  -4247182.469 2
  22473921.228    -8501709.283 7  -6914326.064 5
 94  2  1  2 43 30.0000000  0  8  2 27 15 13  7  4  9 26
  21136603.404       26756.627 9    -83055.023 9
  22421485.309    11515011.422 6   8823970.279 3
  24109212.340    -2712042.197 5  -2270164.174 3
  21925316.679   -14363873.749 7 -11356636.299 4
  20366653.389    -9900772.399 8  -7874113.253 9
  23946416.881   -16135623.835 6  -5380537.944 2
  24248750.799   -12151403.895 5  -4324877.161 2
  22478010.907    -8480228.121 7  -6897587.499 5
 94  2  1  2 44  0.0000000  0  8  2 27 15 13  7  4  9 26
  21140574.905       47625.819 9    -66793.314 9
  22439252.179    11608365.450 6   8896713.681 3
  24117629.552    -2667793.585 5  -2235684.756 2
  21908214.419   -14453747.860 7 -11426668.035 4
  20368801.102    -9889501.740 8  -7865330.916 9
  23927030.112   -16237516.309 6  -5459934.535 2
  24229798.010   -12251045.510 5  -4402519.863 2
  22482189.954    -8458260.548 7  -6880469.900 5
 94  2  1  2 44 30.0000000  0  8  2 27 15 13  7  4  9 26
  21144582.200       68694.735 9    -50375.961 9
  22457070.374    11702012.059 6   8969685.053 3
  24126149.414    -2623017.232 5  -2200794.049 2
  21891195.561   -14543193.750 7 -11496366.079 4
  20371034.886    -9877761.738 8  -7856182.849 9
  23907648.709   -16339361.906 6  -5539294.572 2
  24210840.394   -12350614.668 5  -4480106.168 2
  22486463.195    -8435799.351 7  -6862967.663 5
 94  2  1  2 45  0.0000000  0  8  2 27 15 13  7  4  9 26
  21148627.390       89941.436 9    -33820.093 9
  22474946.458    11795950.964 6   9042884.194 3
  24134772.315    -2577718.218 5  -2165496.133 2
  21874254.469   -14632212.983 7 -11565731.678 4
  20373357.348    -9865558.689 8  -7846673.977 9
  23888278.639   -16441162.136 6  -5618619.331 2
  24191912.667   -12450104.453 5  -4557630.650 2
  22490835.878    -8412837.586 7  -6845075.372 5
 94  2  1  2 45 30.0000000  0  8  2 27 15 13  7  4  9 26
  21152703.368      111357.996 9    -17131.853 9
  22492879.504    11890178.873 6   9116308.512 3
  24143492.408    -2531898.356 5  -2129792.340 2
  21857397.768   -14720803.588 7 -11634763.303 4
  20375761.024    -9852913.433 8  -7836820.504 9
  23868912.526   -16542919.035 6  -5697910.304 2
  24172994.594   -12549535.023 5  -4635108.922 2
  22495298.709    -8389361.248 7  -6826782.128 4
 94  2  1  2 46  0.0000000  0  8  2 27 15 13  7  4  9 26
  21156806.897      132943.459 9      -312.014 9
  22510866.302    11984703.777 6   9189964.286 3
  24152312.692    -2485563.029 5  -2093686.911 2
  21840617.995   -14808967.575 7 -11703462.483 4
  20378249.931    -9839851.931 8  -7826642.712 9
  23849556.366   -16644649.721 6  -5777180.871 2
  24154076.671   -12648916.576 6  -4712549.026 2
  22499865.897    -8365371.058 6  -6808088.473 4
 94  2  1  2 46 30.0000000  0  8  2 27 15 13  7  4  9 26
  21160950.449      154702.799 9     16643.327 9
  22528912.608    12079537.133 6   9263860.415 3
  24161231.817    -2438714.933 5  -2057181.915 2
  21823924.142   -14896703.860 7 -11771828.402 4
  20380810.369    -9826380.365 8  -7816145.366 9
  23830200.296   -16746356.408 6  -5856432.749 2
  24135178.294   -12748235.175 6  -4789940.088 2
  22504527.250    -8340869.630 6  -6788996.451 4
 94  2  1  2 47  0.0000000  0  8  2 27 15 13  7  4  9 26
  21165123.110      176628.114 9     33727.989 9
  22547018.754    12174678.411 6   9337996.477 3
  24170239.082    -2391350.013 5  -2020274.165 2
  21807310.033   -14984004.711 7 -11839855.019 4
  20383453.459    -9812487.372 8  -7805319.647 9
  23810851.630   -16848041.933 6  -5935668.143 2
  24116294.307   -12847479.964 6  -4867273.647 2
  22509289.963    -8315857.111 6  -6769506.159 4
 94  2  1  2 47 30.0000000  0  8  2 27 15 13  7  4  9 26
  21169326.440      198718.399 9     50941.209 9
  22565177.033    12270114.287 6   9412362.067 3
  24179351.034    -2343470.453 5  -1982965.395 2
  21790781.186   -15070868.696 7 -11907541.197 4
  20386180.761    -9798161.692 8  -7794156.765 9
  23791508.152   -16949702.437 6  -6014884.001 2
  24097421.652   -12946653.878 5  -4944551.950 2
  22514146.751    -8290350.020 6  -6749630.509 4
 94  2  1  2 48  0.0000000  0  8  2 27 15 13  7  4  9 26
  21173562.178      220966.398 9     68277.310 8
  22583396.950    12365853.138 6   9486963.730 3
  24188563.146    -2295074.850 5  -1945254.537 2
  21774335.052   -15157291.009 7 -11974883.250 4
  20388994.463    -9783382.677 8  -7782640.652 9
  23772164.703   -17051321.380 6  -6094067.512 2
  24078567.285   -13045729.551 5  -5021753.734 2
  22519087.180    -8264360.148 6  -6729378.666 4
 94  2  1  2 48 30.0000000  0  8  2 27 15 13  7  4  9 26
  21177820.760      243360.861 9     85727.553 8
  22601668.071    12461872.351 6   9561783.927 3
  24197866.576    -2246170.927 5  -1907147.592 2
  21757973.189   -15243275.616 7 -12041884.212 4
  20391893.306    -9768149.939 8  -7770770.971 9
  23752840.531   -17152893.003 6  -6173214.114 2
  24059728.417   -13144721.598 6  -5098890.328 2
  22524122.435    -8237902.093 7  -6708761.989 4
 94  2  1  2 49  0.0000000  0  8  2 27 15 13  7  4  9 26
  21182110.610      265900.145 8    103290.633 8
  22619992.945    12558159.377 6   9636812.750 3
  24207271.934    -2196762.228 5  -1868647.310 2
  21741696.347   -15328822.260 7 -12108543.905 4
  20394873.813    -9752454.341 8  -7758540.611 9
  23733517.977   -17254416.683 6  -6252323.425 2
  24040905.917   -13243634.428 6  -5175965.181 2
  22529239.832    -8210999.815 6  -6687799.162 4
 94  2  1  2 49 30.0000000  0  8  2 27 15 13  7  4  9 26
  21186430.200      288600.222 8    120979.008 8
  22638363.387    12654709.008 6   9712046.202 3
  24216773.017    -2146850.570 5  -1829755.070 2
  21725495.892   -15413929.159 7 -12174860.945 4
  20397955.829    -9736295.695 8  -7745949.456 9
  23714213.202   -17355882.751 6  -6331387.802 2
  24022093.281   -13342479.275 6  -5252987.104 2
  22534445.038    -8183668.231 7  -6666501.835 4
 94  2  1  2 50  0.0000000  0  8  2 27 15 13  7  4  9 26
  21190782.736      311479.707 9    138807.186 8
  22656789.771    12751520.282 6   9787483.557 3
  24226361.639    -2096436.853 5  -1790471.646 2
  21709386.245   -15498593.565 7 -12240833.195 4
  20401113.483    -9719688.577 8  -7733008.844 9
  23694912.863   -17457303.643 6  -6410416.990 2
  24003298.033   -13441259.188 6  -5329958.383 2
  22539727.262    -8155897.604 7  -6644862.367 4
 94  2  1  2 50 30.0000000  0  8  2 27 15 13  7  4  9 26
  21195176.794      334562.738 9    156793.964 8
  22675256.147    12848576.628 6   9863111.889 3
  24236054.948    -2045515.300 5  -1750792.529 2
  21693362.128   -15582806.303 7 -12306453.485 4
  20404359.906    -9702631.371 8  -7719717.503 9
  23675619.060   -17558678.507 6  -6489410.308 3
  23984517.384   -13539984.422 6  -5406887.133 2
  22545099.093    -8127673.022 7  -6622869.192 5
 94  2  1  2 51  0.0000000  0  8  2 27 15 13  7  4  9 26
  21199609.586      357848.811 9    174938.964 8
  22693774.387    12945893.173 6   9938942.946 3
  24245838.166    -1994085.416 5  -1710717.249 2
  21677425.491   -15666562.765 7 -12371718.246 4
  20407689.101    -9685120.914 8  -7706072.975 9
  23656337.578   -17660012.144 6  -6568371.512 3
  23965739.584   -13638642.986 6  -5483763.875 2
  22550559.692    -8098988.401 7  -6600517.539 5
 94  2  1  2 51 30.0000000  0  8  2 27 15 13  7  4  9 26
  21204076.673      381330.532 9    193236.424 8
  22712346.140    13043488.228 6  10014991.007 3
  24255725.111    -1942151.553 5  -1670249.330 2
  21661573.065   -15749863.657 7 -12436628.002 4
  20411109.133    -9667179.123 8  -7692092.354 9
  23637057.865   -17761311.541 5  -6647306.003 3
  23946977.283   -13737226.227 5  -5560581.899 2
  22556104.744    -8069820.059 7  -6577788.951 5
 94  2  1  2 52  0.0000000  0  8  2 27 15 13  7  4  9 26
  21208582.974      404998.197 9    211678.762 8
  22730970.357    13141373.887 6  10091265.530 3
  24265693.840    -1889719.014 5  -1629392.790 2
  21645808.569   -15832710.407 8 -12501183.873 5
  20414595.570    -9648821.939 8  -7677788.036 9
  23617786.037   -17862574.359 5  -6726212.018 3
  23928240.614   -13835717.647 6  -5637328.419 2
  22561752.174    -8040147.558 6  -6554667.531 5
 94  2  1  2 52 30.0000000  0  8  2 27 15 13  7  4  9 26
  21213117.065      428843.539 8    230259.549 8
  22749655.731    13239564.300 6  10167777.560 3
  24275768.185    -1836782.590 5  -1588143.564 2
  21630129.873   -15915094.494 8 -12565379.262 5
  20418175.032    -9630035.933 8  -7663149.600 9
  23598534.025   -17963768.611 5  -6805064.591 3
  23909516.626   -13934096.923 6  -5713987.566 2
  22567491.791    -8009979.924 6  -6531160.294 5
 94  2  1  2 53  0.0000000  0  8  2 27 15 13  7  4  9 26
  21217686.291      452855.377 8    248970.079 8
  22768404.062    13338077.570 6  10244541.127 3
  24285944.041    -1783349.225 5  -1546507.216 2
  21614539.825   -15997019.390 8 -12629216.823 5
  20421828.692    -9610841.659 8  -7648193.018 9
  23579287.559   -18064892.436 6  -6883862.283 3
  23890823.907   -14032354.682 6  -5790552.002 2
  22573322.694    -7979334.372 6  -6507280.647 5
 94  2  1  2 53 30.0000000  0  8  2 27 15 13  7  4  9 26
  21222288.226      477043.093 9    267817.653 8
  22787209.833    13436900.984 6  10321546.357 3
  24296203.628    -1729421.222 5  -1504485.377 2
  21599038.187   -16078483.242 8 -12692695.110 5
  20425560.449    -9591243.760 8  -7632921.923 9
  23560066.995   -18165926.843 6  -6962590.355 3
  23872141.320   -14130497.703 6  -5867027.048 2
  22579252.619    -7948204.129 6  -6483023.316 4
 94  2  1  2 54  0.0000000  0  8  2 27 15 13  7  4  9 26
  21226926.405      501411.655 8    286806.159 8
  22806068.547    13536007.856 6  10398772.458 3
  24306553.873    -1674999.385 5  -1462078.694 2
  21583626.636   -16159483.519 8 -12755812.189 5
  20429367.843    -9571217.771 8  -7617317.236 9
  23540852.307   -18266861.602 6  -7041240.738 3
  23853482.418   -14228541.682 6  -5943424.916 2
  22585265.826    -7916596.094 6  -6458393.666 4
 94  2  1  2 54 30.0000000  0  8  2 27 15 13  7  4  9 26
  21231601.608      525958.522 8    305933.578 8
  22824980.895    13635374.439 6  10476200.965 3
  24317007.696    -1620090.438 5  -1419292.544 2
  21568298.668   -16240023.092 8 -12818570.276 5
  20433256.151    -9550761.799 8  -7601377.521 9
  23521666.909   -18367710.729 6  -7119824.394 3
  23834841.622   -14326507.616 6  -6019761.952 2
  22591369.570    -7884533.590 6  -6433409.909 4
 94  2  1  2 55  0.0000000  0  8  2 27 15 13  7  4  9 26
  21236304.662      550690.262 8    325205.082 8
  22843938.181    13735005.103 6  10553835.251 3
  24327548.938    -1564690.146 5  -1376123.438 2
  21553061.656   -16320094.253 8 -12880963.351 5
  20437237.185    -9529867.189 8  -7585095.991 9
  23502490.534   -18468487.554 6  -7198351.724 2
  23816216.237   -14424395.037 6  -6096037.804 2
  22597560.854    -7851992.725 7  -6408053.380 4
 94  2  1  2 55 30.0000000  0  8  2 27 15 13  7  4  9 26
  21241044.291      575597.402 8    344613.242 8
  22862940.945    13834885.172 6  10631663.847 3
  24338183.026    -1508802.843 5  -1332574.898 2
  21537912.513   -16399697.560 8 -12942991.892 5
  20441297.035    -9508523.698 8  -7568464.692 9
  23483325.312   -18569204.060 6  -7276832.065 2
  23797605.301   -14522192.555 6  -6172243.648 2
  22603844.084    -7818973.023 7  -6382323.724 4
 94  2  1  2 56  0.0000000  0  8  2 27 15 13  7  4  9 26
  21245817.916      600675.379 8    364154.526 8
  22881996.773    13935013.725 6  10709686.091 2
  24348912.329    -1452430.201 5  -1288648.123 2
  21522854.808   -16478830.777 8 -13004654.122 5
  20445442.715    -9486738.958 8  -7551489.560 9
  23464166.865   -18669872.480 6  -7355274.941 2
  23779012.652   -14619886.239 6  -6248368.549 2
  22610210.177    -7785503.640 6  -6356243.664 4
 94  2  1  2 56 30.0000000  0  8  2 27 15 13  7  4  9 26
  21250621.761      625922.236 9    383827.406 8
  22901105.245    14035404.872 6  10787912.926 2
  24359728.811    -1395575.411 5  -1244345.701 2
  21507885.121   -16557493.538 8 -13065949.746 5
  20449665.471    -9464542.734 8  -7534193.793 9
  23445021.130   -18770486.264 6  -7433675.207 3
  23760448.124   -14717459.234 6  -6324399.435 2
  22616660.212    -7751604.873 6  -6329829.054 4
 94  2  1  2 57  0.0000000  0  8  2 27 15 13  7  4  9 26
  21255457.353      651341.805 8    403634.866 8
  22920259.375    14136063.081 6  10866347.907 3
  24370641.946    -1338237.669 5  -1199666.975 2
  21493007.800   -16635681.425 8 -13126875.355 5
  20453967.643    -9441939.759 8  -7516581.082 9
  23425882.619   -18871030.114 6  -7512020.975 3
  23741908.869   -14814888.166 6  -6400318.030 2
  22623196.407    -7717280.128 6  -6303082.502 4
 94  2  1  2 57 30.0000000  0  8  2 27 15 13  7  4  9 26
  21260324.963      676931.529 8    423574.915 8
  22939456.705    14236961.528 6  10944970.071 3
  24381644.719    -1280424.060 5  -1154617.343 2
  21478218.619   -16713397.669 8 -13187433.438 5
  20458345.362    -9418946.773 8  -7498664.454 9
  23406770.250   -18971481.488 6  -7590294.721 3
  23723394.256   -14912176.396 6  -6476126.996 2
  22629803.593    -7682546.394 6  -6276017.235 4
 94  2  1  2 58  0.0000000  0  8  2 27 15 13  7  4  9 26
  21265229.928      702701.255 8    443655.226 8
  22958701.911    14338094.760 6  11023775.192 2
  24392740.607    -1222135.522 5  -1109197.718 2
  21463518.865   -16790639.684 8 -13247622.012 5
  20462790.565    -9395568.167 8  -7480447.344 9
  23387678.567   -19071820.271 6  -7668480.684 3
  23704904.556   -15009340.773 6  -6551839.454 2
  22636491.093    -7647393.303 6  -6248625.224 4
 94  2  1  2 58 30.0000000  0  8  2 27 15 13  7  4  9 26
  21270170.238      728651.939 8    463876.538 8
  22977991.517    14439453.250 6  11102755.792 2
  24403915.641    -1163371.552 5  -1063407.556 2
  21448911.568   -16867403.140 8 -13307437.658 5
  20467317.791    -9371799.319 8  -7461926.159 9
  23368608.499   -19172034.456 6  -7746569.629 3
  23686434.942   -15106379.550 6  -6627454.023 2
  22643267.242    -7611788.254 6  -6220881.026 4
 94  2  1  2 59  0.0000000  0  9  2 27 15 13  7  4  9 26 12
  21275141.306      754782.343 8    484237.889 8
  22997318.927    14541028.906 6  11181905.679 2
  24415192.604    -1104130.447 5  -1017245.703 2
  21434395.467   -16943682.903 8 -13366876.429 5
  20471913.909    -9347634.973 8  -7443096.793 9
  23349560.106   -19272123.146 6  -7824560.729 3
  23667998.695   -15203294.864 6  -6702972.406 3
  22650128.652    -7575715.394 6  -6192772.322 4
  24718048.761   -12950977.48815  -2938427.742 1
 94  2  1  2 59 30.0000000  0  9  2 27 15 13  7  4  9 26 12
  21280145.682      781089.478 8    504736.966 8
  23016690.827    14642832.328 6  11261233.023 3
  24426553.509    -1044413.292 5   -970712.817 2
  21419973.621   -17019476.016 8 -13425935.969 5
  20476588.693    -9323069.424 8  -7423954.793 9
  23330536.925   -19372084.415 6  -7902452.590 2
  23649577.648   -15300090.449 6  -6778397.520 3
  22657085.066    -7539167.957 6  -6164293.804 4
  24700622.185   -13042549.181 5  -3009782.158 1
 94  2  1  3  0  0.0000000  0  9  2 27 15 13  7  4  9 26 12
  21285189.090      807586.282 8    525383.829 8
  23036112.611    14744883.175 6  11340753.091 3
  24438006.510     -984219.663 5   -923808.672 2
  21405644.591   -17094778.531 8 -13484613.228 5
  20481339.744    -9298094.979 8  -7404494.182 9
  23311539.857   -19471920.674 6  -7980247.039 3
  23631180.254   -15396763.194 6  -6853726.879 2
  22664132.917    -7502153.338 6  -6135451.239 4
  24683196.659   -13134157.523 5  -3081165.194 1
 94  2  1  3  0 30.0000000  0  9  2 27 15 13  7  4  9 26 12
  21290267.904      834277.801 8    546182.408 8
  23055577.776    14847191.432 6  11420473.844 3
  24449552.207     -923557.980 5   -876539.839 2
  21391405.528   -17169595.349 8 -13542912.034 5
  20486170.839    -9272712.625 8  -7384715.714 9
  23292565.632   -19571632.595 6  -8057944.577 3
  23612808.823   -15493311.060 6  -6928958.997 2
  22671262.851    -7464693.582 6  -6106261.821 4
  24665751.046   -13225808.003 5  -3152581.188 1
 94  2  1  3  1  0.0000000  0  9  2 27 15 13  7  4  9 26 12
  21295384.612      861165.821 8    567134.118 8
  23075100.081    14949773.646 6  11500408.021 3
  24461180.707     -862432.821 5   -828909.818 2
  21377262.339   -17243927.142 8 -13600832.896 5
  20491079.281    -9246915.425 8  -7364613.996 9
  23273616.171   -19671216.778 6  -8135542.602 3
  23594456.967   -15589739.172 6  -7004097.713 2
  22678466.924    -7426812.447 6  -6076744.052 4
  24648309.181   -13317501.905 5  -3224030.899 1
 94  2  1  3  1 30.0000000  0  9  2 27 15 13  7  4  9 26 12
  21300542.811      888257.719 8    588244.691 8
  23094678.896    15052642.825 6  11580565.820 3
  24472904.091     -800841.906 5   -780916.912 2
  21363209.088   -17317767.959 8 -13658371.166 5
  20496070.676    -9220679.561 8  -7344170.452 9
  23254693.511   -19770665.523 6  -8213035.077 3
  23576131.284   -15686048.793 6  -7079144.141 2
  22685758.116    -7388509.107 6  -6046897.293 4
  24630845.101   -13409233.455 5  -3295509.947 1
 94  2  1  3  2  0.0000000  0  9  2 27 15 13  7  4  9 26 12
  21305735.876      915551.745 8    609512.766 8
  23114303.731    15155787.503 6  11660938.289 2
  24484703.562     -738793.223 5   -732567.294 2
  21349250.092   -17391122.588 8 -13715530.599 5
  20501145.832    -9194015.372 8  -7323393.154 9
  23235790.427   -19869993.262 6  -8290433.262 3
  23557819.751   -15782255.028 6  -7154109.996 2
  22693127.705    -7349785.997 7  -6016723.435 4
  24613383.269   -13501007.898 5  -3367022.404 1
 94  2  1  3  2 30.0000000  0  9  2 27 15 13  7  4  9 26 12
  21310962.428      943024.922 8    630920.441 8
  23133982.947    15259199.531 6  11741519.066 2
  24496608.681     -676288.338 5   -683862.163 2
  21335384.271   -17463988.642 8 -13772309.343 5
  20506300.613    -9166939.926 8  -7302295.401 9
  23216910.577   -19969211.444 6  -8367746.067 3
  23539533.790   -15878352.375 6  -7228991.005 3
  22700570.652    -7310643.108 7  -5986222.469 4
  24595913.853   -13592823.417 5  -3438567.019 1
 94  2  1  3  3  0.0000000  0  9  2 27 15 13  7  4  9 26 12
  21316220.308      970652.983 8    652448.799 8
  23153707.462    15362860.419 6  11822293.761 2
  24508585.060     -613328.192 4   -634802.309 2
  21321613.064   -17536363.279 8 -13828705.130 5
  20511527.945    -9139465.326 8  -7280886.624 9
  23198049.165   -20068332.122 6  -8444982.920 3
  23521271.932   -15974339.250 6  -7303785.962 3
  22708100.689    -7271082.945 6  -5955396.359 4
  24578436.073   -13684677.457 5  -3510141.526 1
 94  2  1  3  3 30.0000000  0  9  2 27 15 13  7  4  9 26 12
  21321509.186      998442.849 8    674103.238 8
  23173478.055    15466750.606 6  11903247.149 2
  24520655.633     -549911.940 4   -585387.049 2
  21307933.025   -17608242.291 8 -13884714.731 5
  20516827.226    -9111613.056 8  -7259183.537 9
  23179200.284   -20167361.860 6  -8522148.919 3
  23503028.902   -16070199.900 6  -7378482.497 3
  22715712.090    -7231097.738 6  -5924239.068 4
  24560945.311   -13776565.965 5  -3581742.832 2
 94  2  1  3  4  0.0000000  0  8  2 27 13  7  4  9 26 12
  21326829.153     1026398.579 8    695886.934 8
  23193283.544    15570847.055 6  11984361.252 2
  21294350.208   -17679622.046 8 -13940335.318 5
  20522192.762    -9083405.380 8  -7237203.532 9
  23160375.296   -20266291.290 6  -8599236.729 3
  23484814.112   -16165915.697 6  -7453066.243 3
  22723397.000    -7190694.213 6  -5892755.782 4
  24543450.593   -13868485.684 5  -3653368.488 1
 94  2  1  3  4 30.0000000  0  8  2 27 13  7  4  9 26 12
  21332182.218     1054529.156 8    717806.861 8
  23213135.111    15675143.127 6  12065630.912 2
  21280864.824   -17750495.117 8 -13995561.062 5
  20527630.547    -9054829.908 8  -7214936.920 9
  23141575.191   -20365093.909 6  -8676225.762 3
  23466630.770   -16261460.065 6  -7527516.331 2
  22731166.421    -7149879.093 6  -5860951.807 4
  24525956.833   -13960429.406 5  -3725012.993 1
 94  2  1  3  5  0.0000000  0  8  2 27 13  7  4  9 26 12
  21337571.197     1082851.623 8    739876.314 7
  23233015.668    15779632.282 6  12147050.998 2
  21267474.804   -17820863.916 8 -14050393.892 5
  20533142.681    -9025866.303 8  -7192367.876 9
  23122799.159   -20463761.091 6  -8753109.247 3
  23448482.863   -16356834.822 6  -7601834.280 2
  22739012.679    -7108655.770 6  -5828829.749 4
  24508460.796   -14052399.685 5  -3796678.057 1
 94  2  1  3  5 30.0000000  0  8  2 27 13  7  4  9 26 12
  21343000.378     1111378.833 8    762105.309 7
  23252937.207    15884314.778 6  12228621.784 2
  21254177.929   -17890727.147 8 -14104832.745 5
  20538728.534    -8996511.567 8  -7169494.055 9
  23104051.428   -20562282.601 6  -8829879.203 3
  23430367.874   -16452037.394 6  -7676018.069 3
  22746930.138    -7067028.033 6  -5796392.549 4
  24490950.878   -14144395.592 5  -3868363.106 1
 94  2  1  3  6  0.0000000  0  8  2 27 13  7  4  9 26 12
  21348464.126     1140104.910 8    784489.277 7
  23272899.757    15989204.410 6  12310353.989 2
  21240979.446   -17960085.003 8 -14158877.797 5
  20544395.991    -8966744.717 8  -7146299.108 9
  23085332.687   -20660642.896 6  -8906523.568 3
  23412281.395   -16547081.106 6  -7750078.077 3
  22754930.220    -7025003.048 6  -5763645.826 4
  24473439.850   -14236417.261 5  -3940068.272 1
 94  2  1  3  6 30.0000000  0  8  2 27 13  7  4  9 26 12
  21353971.643     1169026.090 8    807025.260 7
  23292899.571    16094312.041 6  12392256.034 2
  21227881.603   -18028932.747 8 -14212525.383 5
  20550137.946    -8936559.519 8  -7122778.162 9
  23066645.544   -20758850.508 6  -8983048.943 3
  23394223.516   -16641976.266 6  -7824022.316 3
  22763003.870    -6982576.141 6  -5730585.891 4
  24455927.594   -14328460.251 5  -4011790.037 1
 94  2  1  3  7  0.0000000  0  8  2 27 13  7  4  9 26 12
  21359509.199     1198131.472 8    829704.787 7
  23312943.695    16199640.307 6  12474329.951 2
  21214873.759   -18097271.539 8 -14265776.359 6
  20555958.206    -8905975.620 8  -7098946.542 9
  23047988.260   -20856917.073 6  -9059464.422 3
  23376188.691   -16736744.865 6  -7897867.971 3
  22771157.176    -6939738.343 6  -5697205.790 4
  24438405.444   -14420525.731 5  -4083529.321 2
 94  2  1  3  7 30.0000000  0  8  2 27 13  7  4  9 26 12
  21365080.543     1227412.371 8    852521.061 7
  23333027.541    16305189.573 6  12556576.108 2
  21201968.802   -18165099.004 8 -14318628.918 6
  20561850.357    -8875005.184 8  -7074813.738 9
  23029347.465   -20954833.534 6  -9135762.918 3
  23358173.533   -16831390.153 6  -7971617.504 3
  22779386.299    -6896480.616 6  -5663498.473 4
  24420879.097   -14512611.449 5  -4155284.334 2
 94  2  1  3  8  0.0000000  0  8  2 27 13  7  4  9 26 12
  21370685.432     1256863.971 8    875470.376 7
  23353159.174    16410960.890 6  12638995.359 2
  21189158.821   -18232415.784 8 -14371083.542 6
  20567819.825    -8843646.634 8  -7050378.497 9
  23010747.261   -21052593.577 6  -9211939.546 3
  23340195.459   -16925902.422 6  -8045263.427 3
  22787701.523    -6852795.952 6  -5629458.467 4
  24403350.412   -14604718.052 5  -4227055.663 2
 94  2  1  3  8 30.0000000  0  8  2 27 13  7  4  9 26 12
  21376324.768     1286490.565 8    898556.039 7
  23373323.035    16516953.701 5  12721587.176 2
  21176447.021   -18299216.350 8 -14423135.906 6
  20573855.186    -8811915.529 8  -7025652.954 9
  22992173.110   -21150191.773 6  -9287990.056 3
  23322239.570   -17020261.710 6  -8118790.117 2
  22796096.641    -6808680.239 6  -5595082.596 4
  24385823.676   -14696839.922 5  -4298838.956 2
 94  2  1  3  9  0.0000000  0  8  2 27 13  7  4  9 26 12
  21381993.064     1316298.664 8    921783.126 7
  23393533.484    16623174.297 5  12804356.433 2
  21163832.114   -18365504.148 8 -14474788.714 6
  20579966.815    -8779807.144 8  -7000633.421 9
  22973635.353   -21247615.573 6  -9363904.663 3
  23304316.208   -17114447.834 6  -8192181.869 3
  22804573.182    -6764144.656 6  -5560379.530 4
  24368285.427   -14788980.389 5  -4370636.603 2
 94  2  1  3  9 30.0000000  0  8  2 27 13  7  4  9 26 12
  21387704.051     1346296.628 8    945158.159 7
  23413795.617    16729617.682 5  12887299.283 2
  21151316.738   -18431276.069 8 -14526039.563 6
  20586151.234    -8747308.673 8  -6975309.938 9
  22955130.214   -21344855.562 6  -9439676.064 3
  23286427.142   -17208435.703 6  -8265419.147 3
  22813123.054    -6719198.736 6  -5525356.736 4
  24350751.855   -14881136.305 5  -4442446.357 2
 94  2  1  3 10  0.0000000  0  8  2 27 13  7  4  9 26 12
  21393446.725     1376486.039 8    968682.392 7
  23434091.296    16836276.814 5  12970410.308 2
  21138897.925   -18496530.345 8 -14576887.031 6
  20592408.682    -8714430.527 8  -6949690.595 9
  22936662.429   -21441921.332 6  -9515311.692 3
  23268583.225   -17302220.278 6  -8338497.998 3
  22821749.372    -6673851.918 6  -5490021.534 4
  24333212.048   -14973306.003 5  -4514266.885 2
 94  2  1  3 10 30.0000000  0  8  2 27 13  7  4  9 26 12
  21399230.861     1406872.967 8    992360.525 7
  23454428.227    16943144.416 5  13053683.744 2
  21126579.603   -18561266.984 8 -14627331.132 6
  20598737.031    -8681185.139 8  -6923785.092 9
  22918219.887   -21538817.330 6  -9590815.021 3
  23250769.737   -17395813.495 6  -8411427.723 3
  22830456.004    -6628107.942 6  -5454376.894 4
  24315673.290   -15065489.247 5  -4586097.913 2
 94  2  1  3 11  0.0000000  0  8  2 27 13  7  4  9 26 12
  21405052.710     1437464.755 8   1016198.269 7
  23474802.183    17050212.813 5  13137113.712 2
  21114360.333   -18625483.153 8 -14677369.705 6
  20605134.722    -8647559.749 8  -6897583.484 9
  22899815.807   -21635545.666 6  -9666187.729 3
  23232996.062   -17489221.745 6  -8484213.356 3
  22839240.223    -6581960.581 6  -5418417.906 4
  24298123.739   -15157683.129 5  -4657937.217 2
 94  2  1  3 11 30.0000000  0  8  2 27 13  7  4  9 26 12
  21410911.315     1468260.059 8   1040194.618 7
  23495210.554    17157471.928 5  13220692.166 2
  21102240.743   -18689174.255 8 -14726999.110 6
  20611600.406    -8613571.124 8  -6871098.836 9
  22881444.526   -21732095.936 6  -9741421.682 3
  23215257.042   -17582459.464 6  -8556866.124 3
  22848096.182    -6535411.107 6  -5382145.600 4
  24280587.499   -15249882.498 5  -4729780.849 2
 94  2  1  3 12  0.0000000  0  8  2 27 13  7  4  9 26 12
  21416811.830     1499261.872 8   1064351.880 7
  23515660.417    17264923.539 5  13304420.678 2
  21090219.065   -18752338.551 8 -14776218.030 6
  20618134.083    -8579232.602 8  -6844341.534 9
  22863106.281   -21828463.211 6  -9816513.024 4
  23197548.871   -17675528.429 6  -8629387.368 3
  22857028.528    -6488470.805 6  -5345568.758 4
  24263044.454   -15342085.746 5  -4801627.543 1
 94  2  1  3 12 30.0000000  0  8  2 27 13  7  4  9 26 12
  21422748.050     1530469.520 8   1088669.530 7
  23536142.148    17372558.781 5  13388292.307 2
  21078297.998   -18814982.177 8 -14825031.228 6
  20624733.324    -8544540.832 8  -6817308.986 9
  22844803.202   -21924640.237 6  -9891456.137 4
  23179866.482   -17768425.315 6  -8701774.527 3
  22866035.733    -6441151.973 6  -5308696.930 4
  24245490.047   -15434298.557 5  -4873481.584 2
 94  2  1  3 13  0.0000000  0  8  2 27 13  7  4  9 26 12
  21428725.462     1561878.112 8   1113143.751 7
  23556659.344    17480380.174 5  13472308.969 2
  21066479.640   -18877100.790 8 -14873435.322 6
  20631406.644    -8509494.682 8  -6790000.288 9
  22826540.835   -22020612.363 6  -9966239.588 4
  23162224.715   -17861132.091 6  -8774013.525 3
  22875107.423    -6393472.555 6  -5271544.160 4
  24227946.012   -15526516.305 5  -4945339.479 2
 94  2  1  3 13 30.0000000  0  8  2 27 13  7  4  9 26 12
  21434740.648     1593479.692 8   1137768.366 7
  23577217.852    17588390.937 5  13556473.137 2
  21054756.106   -18938691.197 8 -14921427.833 6
  20638140.912    -8474103.961 8  -6762423.100 9
  22808314.442   -22116372.883 6 -10040858.131 4
  23144620.543   -17953641.918 6  -8846099.088 3
  22884246.296    -6345452.064 6  -5234125.575 4
  24210395.952   -15618735.594 5  -5017198.690 1
 94  2  1  3 14  0.0000000  0  8  2 27 13  7  4  9 26 12
  21440792.049     1625286.863 8   1162553.186 7
  23597806.758    17696599.698 5  13640791.644 2
  21043142.566   -18999750.155 8 -14969006.232 6
  20644945.961    -8438354.297 8  -6734566.215 9
  22790136.347   -22211934.639 6 -10115321.801 4
  23127055.013   -18045943.627 6  -8918022.493 3
  22893449.325    -6297078.147 6  -5196431.643 4
  24192841.484   -15710952.593 5  -5089056.032 1
 94  2  1  3 14 29.9990000  0  8  2 27 13  7  4  9 26 12
  21446882.542     1657281.610 8   1187484.153 7
  23618430.921    17804999.154 5  13725258.768 2
  21031619.952   -19060279.424 8 -15016171.880 6
  20651817.414    -8402245.750 8  -6706429.679 9
  22771985.982   -22307297.675 6 -10189630.648 4
  23109529.386   -18138055.056 6  -8989797.603 3
  22902719.028    -6248353.614 6  -5158464.464 4
  24175302.846   -15803167.636 5  -5160911.842 2
 94  2  1  3 14 59.9990000  0  8  2 27 13  7  4  9 26 12
  21453004.514     1689455.195 8   1212554.487 7
  23639095.075    17913601.007 5  13809883.600 2
  21020203.376   -19120283.861 8 -15062928.572 6
  20658752.453    -8365777.931 8  -6678013.181 9
  22753873.002   -22402478.231 6 -10263797.285 4
  23092029.511   -18229992.389 6  -9061437.047 3
  22912054.954    -6199277.497 6  -5120223.346 4
  24157751.617   -15895387.266 6  -5232771.246 1
 94  2  1  3 15 29.9990000  0  8  2 27 13  7  4  9 26 12
  21459161.412     1721810.474 8   1237766.388 7
  23659802.999    18022401.181 5  13894662.940 2
  21008885.581   -19179755.139 8 -15109269.804 6
  20665763.280    -8328940.248 8  -6649308.496 9
  22735796.176   -22497475.098 6 -10337820.811 4
  23074571.517   -18321754.909 6  -9132940.297 3
  22921467.658    -6149829.252 6  -5081692.241 4
  24140208.511   -15987601.655 6  -5304626.605 1
 94  2  1  3 15 59.9990000  0  8  2 27 13  7  4  9 26 12
  21465354.314     1754338.461 8   1263112.866 7
  23680541.892    18131385.916 5  13979586.092 2
  20997669.956   -19238696.328 8 -15155197.988 6
  20672843.418    -8291736.109 8  -6620318.255 9
  22717754.696   -22592280.514 6 -10411695.129 4
  23057140.144   -18413344.039 6  -9204308.432 3
  22930952.972    -6099993.556 6  -5042859.231 4
  24122651.946   -16079813.321 6  -5376479.800 2
 94  2  1  3 16 29.9990000  0  8  2 27 13  7  4  9 26 12
  21471571.680     1787030.458 8   1288587.151 7
  23701308.366    18240536.815 5  14064638.736 2
  20986554.521   -19297104.731 8 -15200711.025 6
  20679993.349    -8254172.552 8  -6591047.950 9
  22699757.255   -22686873.931 6 -10485404.247 4
  23039748.464   -18504750.450 6  -9275534.173 3
  22940509.696    -6049776.658 6  -5003729.179 3
  24105107.761   -16172019.139 6  -5448328.398 2
 94  2  1  3 16 59.9990000  0  8  2 27 13  7  4  9 26 12
  21477826.730     1819913.350 8   1314210.188 7
  23722113.662    18349842.816 5  14149812.234 2
  20975541.285   -19354975.562 8 -15245805.154 6
  20687207.344    -8216256.643 8  -6561503.075 9
  22681796.329   -22781250.291 6 -10558944.272 4
  23022396.686   -18595945.058 6  -9346594.880 3
  22950139.089    -5999178.939 6  -4964302.370 3
  24087561.208   -16264213.928 5  -5520168.531 2
 94  2  1  3 17 29.9990000  0  8  2 27 13  7  4  9 26 12
  21484125.609     1852991.840 8   1339985.638 7
  23742936.767    18459292.431 5  14235097.638 2
  20964631.957   -19412309.765 8 -15290481.154 6
  20694483.937    -8178011.918 8  -6531701.989 9
  22663876.984   -22875408.238 6 -10632314.075 4
  23005082.893   -18686926.589 6  -9417489.556 3
  22959839.714    -5948199.566 6  -4924578.175 3
  24070020.981   -16356397.679 6  -5591999.961 2
 94  2  1  3 17 59.9990000  0  8  2 27 13  7  4  9 26 12
  21490458.965     1886279.211 8   1365923.853 7
  23763794.557    18568883.012 5  14320492.867 2
  20953824.229   -19469105.609 8 -15334737.648 6
  20701824.055    -8139449.039 8  -6501652.976 9
  22646001.320   -22969350.259 6 -10705515.610 4
  22987809.900   -18777687.198 6  -9488212.085 3
  22969614.567    -5896849.357 6  -4884565.045 3
  24052483.272   -16448568.027 6  -5663820.958 2
 94  2  1  3 18 29.9990000  0  8  2 27 13  7  4  9 26 12
  21496834.921     1919785.988 8   1392033.022 7
  23784674.413    18678624.887 5  14406005.985 2
  20943117.831   -19525362.944 8 -15378574.515 6
  20709224.822    -8100564.515 8  -6471353.355 9
  22628161.630   -23063094.747 7 -10778563.252 4
  22970580.528   -18868217.085 6  -9558754.821 3
  22979451.237    -5845148.236 6  -4844278.456 4
  24034945.294   -16540724.451 6  -5735631.151 2
 94  2  1  3 18 59.9990000  0  8  2 27 13  7  4  9 26 12
  21503252.998     1953509.355 8   1418310.981 7
  23805598.127    18788541.090 5  14491654.987 2
  20932516.211   -19581081.492 8 -15421991.546 6
  20716685.307    -8061352.413 8  -6440798.457 9
  22610364.780   -23156639.856 7 -10851455.525 4
  22953398.973   -18958520.797 6  -9629121.339 3
  22989355.300    -5793097.660 6  -4803719.576 4
  24017408.004   -16632865.652 6  -5807429.423 2
 94  2  1  3 19 29.9990000  0  8  2 27 13  7  4  9 26 12
  21509706.720     1987420.577 8   1444735.319 7
  23826548.074    18898643.604 5  14577449.144 2
  20922012.172   -19636263.057 8 -15464990.163 6
  20724208.749    -8021801.657 8  -6409979.689 9
  22592597.910   -23249981.334 6 -10924189.111 4
  22936255.611   -19048606.866 6  -9699318.240 3
  22999324.509    -5740696.746 6  -4762887.685 4
  23999880.339   -16724992.797 6  -5879216.740 2
 94  2  1  3 19 59.9990000  0  8  2 27 13  7  4  9 26 12
  21516190.002     2021519.165 8   1471305.636 7
  23847534.595    19008937.699 5  14663392.552 2
  20911617.708   -19690902.269 8 -15507566.161 6
  20731807.588    -7981889.251 8  -6378879.104 9
  22574883.803   -23343091.854 6 -10996742.743 4
  22919157.547   -19138457.506 6  -9769331.716 3
  23009359.882    -5687956.402 6  -4721791.338 4
  23982353.182   -16817099.662 6  -5950988.302 2
 94  2  1  3 20 29.9990000  0  8  2 27 13  7  4  9 26 12
  21522715.614     2055796.994 8   1498015.631 7
  23868562.578    19119435.501 5  14749494.719 2
  20901322.655   -19744996.748 8 -15549717.694 6
  20739469.324    -7941608.315 8  -6347491.361 9
  22557209.719   -23435951.924 7 -11069101.207 5
  22902105.592   -19228068.548 6  -9839158.480 3
  23019461.958    -5634880.701 6  -4680433.657 4
  23964833.641   -16909183.219 6  -6022741.707 2
 94  2  1  3 20 59.9990000  0  8  2 27 13  7  4  9 26 12
  21529273.934     2090266.029 8   1524874.632 7
  23889627.315    19230131.152 5  14835751.093 2
  20891134.059   -19798539.322 8 -15591439.181 6
  20747209.126    -7900959.056 9  -6315816.614 9
  22539590.436   -23528536.541 7 -11141245.048 5
  22885097.647   -19317439.440 6  -9908798.133 4
  23029626.691    -5581458.450 6  -4638805.950 4
  23947309.393   -17001235.422 6  -6094470.615 2
 94  2  1  3 21 29.9990000  0  8  2 27 13  7  4  9 26 12
  21535872.756     2124932.675 8   1551887.595 7
  23910723.021    19340997.651 5  14922140.606 2
  20881050.300   -19851533.854 8 -15632733.581 6
  20755009.576    -7859957.611 9  -6283867.429 9
  22522021.729   -23620854.484 7 -11213181.086 4
  22868133.651   -19406574.254 6  -9978253.799 4
  23039855.520    -5527701.838 6  -4596917.691 3
  23929801.513   -17093259.318 6  -6166177.564 2
 94  2  1  3 21 59.9990000  0  8  2 27 13  7  4  9 26 12
  21542510.970     2159812.450 8   1579066.629 7
  23931847.477    19452014.948 5  15008647.592 2
  20871067.661   -19903984.804 8 -15673604.460 6
  20762873.552    -7818622.702 8  -6251658.413 9
  22504506.205   -23712913.045 7 -11284915.017 4
  22851216.692   -19495489.891 6 -10047538.690 4
  23050144.877    -5473624.935 6  -4554779.852 3
  23912292.494   -17185258.183 6  -6237864.974 2
 94  2  1  3 22 29.9990000  0  8  2 27 13  7  4  9 26 12
  21549190.586     2194920.461 8   1606423.511 6
  23953005.509    19563190.547 5  15095277.863 2
  20861192.437   -19955887.582 8 -15714048.174 6
  20770803.512    -7776962.408 8  -6219195.845 9
  22487031.002   -23804722.624 7 -11356454.937 4
  22834342.693   -19584194.882 6 -10116659.446 4
  23060505.914    -5419211.781 6  -4512379.998 3
  23894790.970   -17277226.815 6  -6309528.823 2
 94  2  1  3 22 59.9990000  0  9  2 24 27 13  7  4  9 26 12
  21555914.691     2230254.073 8   1633956.216 6
  24665274.136    -3495185.58614  -2885629.755 2
  23974186.446    19674510.948 5  15182021.042 2
  20851416.984   -20007244.573 8 -15754066.592 6
  20778790.673    -7734987.776 9  -6186488.320 9
  22469609.793   -23896290.635 7 -11427806.613 4
  22817500.563   -19672689.734 7 -10185616.445 4
  23070918.965    -5364458.684 6  -4469715.202 3
  23877296.971   -17369166.151 6  -6381169.774 2
 94  2  1  3 23 29.9990000  0  9  2 24 27 13  7  4  9 26 12
  21562678.818     2265802.354 8   1661656.159 6
  24644692.394    -3603331.320 5  -2969899.067 2
  23995396.253    19785985.148 5  15268884.041 2
  20841751.765   -20058050.995 8 -15793656.000 6
  20786836.533    -7692704.243 9  -6153540.122 9
  22452230.494   -23987620.363 7 -11498972.607 4
  22800697.136   -19760973.665 7 -10254409.121 4
  23081401.868    -5309375.448 6  -4426793.216 3
  23859811.816   -17461071.049 6  -6452783.996 2
 94  2  1  3 23 59.9990000  0  9  2 24 27 13  7  4  9 26 12
  21569484.437     2301557.598 8   1689517.385 6
  24624106.366    -3711538.887 5  -3054216.511 2
  24016647.131    19897620.619 5  15355872.730 2
  20832186.168   -20108308.359 8 -15832817.569 6
  20794940.912    -7650112.236 8  -6120351.533 9
  22434897.184   -24078714.725 7 -11569955.188 5
  22783936.339   -19849045.650 7 -10323036.611 4
  23091947.517    -5253960.256 6  -4383612.523 3
  23842326.211   -17552941.284 6  -6524371.157 2
 94  2  1  3 24 29.9990000  0  9  2 24 27 13  7  4  9 26 12
  21576322.283     2337504.047 8   1717527.606 6
  24603500.731    -3819798.941 5  -3138574.897 2
  24037916.896    20009420.551 5  15442989.495 2
  20822726.846   -20158019.203 8 -15871553.279 6
  20803105.820    -7607210.686 8  -6086921.747 9
  22417604.735   -24169578.100 7 -11640757.803 5
  22767222.880   -19936883.798 7 -10391481.924 4
  23102558.012    -5198213.799 6  -4340173.740 3
  23824852.658   -17644778.639 6  -6595932.679 2
 94  2  1  3 24 59.9990000  0  9  2 24 27 13  7  4  9 26 12
  21583198.203     2373632.871 8   1745679.933 6
  24582892.068    -3928103.096 5  -3222967.632 2
  24059223.416    20121368.049 5  15530221.306 2
  20813370.743   -20207182.234 8 -15909862.121 6
  20811328.977    -7564000.973 8  -6053251.850 9
  22400360.973   -24260207.619 7 -11711378.211 5
  22750555.108   -20024475.249 7 -10459734.975 4
  23113222.739    -5142144.183 6  -4296483.164 3
  23807381.323   -17736580.726 6  -6667466.820 2
 94  2  1  3 25 29.9990000  0  9  2 24 27 13  7  4  9 26 12
  21590112.886     2409952.049 8   1773980.580 6
  24562276.870    -4036454.789 5  -3307397.414 2
  24080553.560    20233446.830 5  15617555.429 2
  20804119.028   -20255798.308 8 -15947744.760 6
  20819608.585    -7520479.741 8  -6019339.195 9
  22383160.111   -24350589.691 7 -11781805.743 5
  22733931.767   -20111828.197 7 -10527802.209 4
  23123954.679    -5085754.465 6  -4252543.128 3
  23789923.539   -17828347.120 6  -6738973.044 2
 94  2  1  3 25 59.9990000  0  9  2 24 27 13  7  4  9 26 12
  21597058.088     2446472.266 8   1802437.872 6
  24541644.193    -4144846.016 5  -3391858.073 2
  24101898.483    20345645.338 5  15704982.821 2
  20794974.639   -20303865.457 8 -15985199.681 6
  20827951.359    -7476639.043 8  -5985177.607 9
  22366011.952   -24440703.350 7 -11852024.196 4
  22717356.961   -20198926.817 7 -10595671.243 4
  23134752.784    -5029035.342 6  -4208346.428 3
  23772465.844   -17920074.912 6  -6810449.183 2
 94  2  1  3 26 29.9990000  0  9  2 24 27 13  7  4  9 26 12
  21604043.612     2483193.658 8   1831051.967 6
  24521016.044    -4253268.370 5  -3476342.908 2
  24123272.336    20457957.512 5  15792498.836 2
  20785931.159   -20351377.470 8 -16022222.007 6
  20836357.090    -7432471.313 8  -5950761.188 9
  22348916.707   -24530533.495 7 -11922021.685 4
  22700837.677   -20285754.192 7 -10663328.932 4
  23145605.331    -4971990.707 6  -4163896.077 3
  23755019.122   -18011756.560 6  -6881889.420 2
 94  2  1  3 26 59.9990000  0  9  2 24 27 13  7  4  9 26 12
  21611071.556     2520111.126 7   1859818.799 6
  24500376.023    -4361724.968 5  -3560854.476 2
  24144664.626    20570369.788 5  15880092.766 2
  20776996.085   -20398340.054 8 -16058816.217 6
  20844824.788    -7387981.629 8  -5916093.895 9
  22331879.142   -24620073.175 7 -11991792.827 4
  22684355.328   -20372338.562 7 -10730797.243 4
  23156518.646    -4914634.356 6  -4119202.829 3
  23737578.426   -18103396.266 6  -6953296.947 2
 94  2  1  3 27 29.9990000  0  9  2 24 27 13  7  4  9 26 12
  21618132.808     2557227.199 7   1888740.412 6
  24479737.980    -4470208.226 5  -3645386.815 2
  24166080.720    20682895.835 5  15967775.412 2
  20768162.610   -20444756.796 8 -16094985.092 6
  20853350.526    -7343172.397 8  -5881177.614 9
  22314896.619   -24709314.939 7 -12061331.863 4
  22667926.701   -20458686.745 7 -10798081.540 4
  23167491.709    -4856976.338 6  -4074274.507 3
  23720148.673   -18194996.620 6  -7024673.820 2
 94  2  1  3 27 59.9990000  0  9  2 24 27 13  7  4  9 26 12
  21625233.602     2594541.448 8   1917816.463 6
  24459082.999    -4578701.934 5  -3729927.288 2
  24187517.200    20795566.488 5  16055570.733 2
  20759435.802   -20490618.216 8 -16130721.251 6
  20861938.680    -7298038.618 8  -5846008.420 9
  22297967.009   -24798264.087 7 -12130642.882 4
  22651544.572   -20544770.330 7 -10865159.638 4
  23178525.601    -4799014.994 6  -4029109.814 3
  23702727.643   -18286546.760 6  -7096011.544 2
 94  2  1  3 28 29.9990000  0  9  2 24 27 13  7  4  9 26 12
  21632375.708     2632058.958 7   1947050.910 6
  24438442.678    -4687211.813 5  -3814480.391 2
  24208984.289    20908390.019 5  16143485.227 2
  20750813.651   -20535925.742 8 -16166025.808 6
  20870586.823    -7252587.969 8  -5810592.323 9
  22281096.158   -24886927.804 7 -12199731.445 4
  22635212.448   -20630597.472 7 -10932037.889 4
  23189607.189    -4740756.190 6  -3983713.312 3
  23685314.318   -18378046.551 6  -7167310.055 2
 94  2  1  3 28 59.9990000  0  9  2 24 27 13  7  4  9 26 12
  21639558.705     2669806.840 8   1976464.830 6
  24417790.395    -4795730.332 5  -3899040.205 2
  24230485.794    21021372.529 5  16231523.477 2
  20742298.316   -20580674.920 8 -16200895.282 6
  20879296.754    -7206826.312 8  -5774933.884 9
  22264283.227   -24975292.786 7 -12268587.280 4
  22618928.472   -20716168.534 7 -10998716.643 4
  23200750.894    -4682200.077 6  -3938085.173 3
  23667914.814   -18469490.390 6  -7238564.945 2
 94  2  1  3 29 29.9990000  0  9  2 24 27 13  7  4  9 26 12
  21646790.689     2707791.091 8   2006062.929 6
  24397138.802    -4904261.417 5  -3983609.825 2
  24252017.518    21134508.017 5  16319680.966 2
  20733889.377   -20624864.806 8 -16235328.949 7
  20888060.856    -7160764.571 8  -5739041.614 9
  22247521.801   -25063359.366 7 -12337210.565 5
  22602703.794   -20801452.526 7 -11065171.694 4
  23211949.552    -4623349.270 6  -3892227.393 3
  23650521.185   -18560875.863 6  -7309774.406 2
 94  2  1  3 29 59.9990000  0  9  2 24 27 13  7  4  9 26 12
  21654060.416     2746016.222 8   2035848.743 6
  24376483.881    -5012798.627 5  -4068184.225 2
  24273568.158    21247776.271 5  16407941.927 2
  20725586.835   -20668492.056 8 -16269324.204 7
  20896884.228    -7114407.547 8  -5702919.252 9
  22230819.644   -25151131.271 7 -12405604.236 5
  22586529.271   -20886442.859 7 -11131397.906 4
  23223207.688    -4564205.660 6  -3846141.518 3
  23633147.193   -18652198.015 6  -7380934.483 2
 94  2  1  3 30 29.9990000  0  9  2 24 27 13  7  4  9 26 12
  21661382.907     2784484.189 8   2065823.790 6
  24355828.721    -5121337.759 5  -4152760.118 2
  24295142.753    21361154.293 5  16496288.461 2
  20717392.847   -20711559.707 8 -16302883.390 7
  20905759.974    -7067759.963 8  -5666570.479 9
  22214179.514   -25238601.621 7 -12473762.933 5
  22570403.405   -20971161.368 7 -11197412.294 4
  23234512.861    -4504770.353 6  -3799828.271 3
  23615783.064   -18743458.372 6  -7452046.422 2
 94  2  1  3 30 59.9990000  0  9  2 24 27 13  7  4  9 26 12
  21668744.071     2823167.208 8   2095966.387 6
  24335173.110    -5229874.619 5  -4237334.222 2
  24316741.540    21474630.144 5  16584711.175 2
  20709303.817   -20754067.407 8 -16336006.256 7
  20914692.020    -7020817.573 8  -5629991.978 9
  22197588.789   -25325777.139 7 -12541691.873 5
  22554335.908   -21055605.836 7 -11263213.165 4
  23245877.034    -4445043.303 6  -3753287.737 3
  23598426.729   -18834655.093 6  -7523108.767 2
 94  2  1  3 31 29.9990000  0  9  2 24 27 13  7  4  9 26 12
  21676139.981     2862030.414 8   2126249.410 6
  24314515.761    -5338415.398 5  -4321911.382 2
  24338354.088    21588201.123 5  16673207.989 2
  20701317.496   -20796023.301 8 -16368699.142 7
  20923680.158    -6973585.919 8  -5593188.100 9
  22181051.727   -25412673.037 7 -12609402.935 5
  22538318.207   -21139785.055 7 -11328807.342 4
  23257303.744    -4385023.129 6  -3706518.772 3
  23581081.337   -18925794.907 6  -7594126.794 2
 94  2  1  3 31 59.9990000  0  9  2 24 27 13  7  4  9 26 12
  21683567.069     2901072.552 7   2156671.837 6
  24293869.804    -5446952.622 5  -4406485.784 2
  24359979.497    21701880.355 5  16761789.197 2
  20693439.250   -20837422.714 8 -16400958.424 7
  20932723.157    -6926059.247 8  -5556154.324 9
  22164573.305   -25499274.559 7 -12676884.640 5
  22522347.064   -21223714.814 7 -11394207.147 4
  23268780.908    -4324701.956 6  -3659515.267 3
  23563747.637   -19016871.389 6  -7665095.434 2
 94  2  1  3 32 29.9990000  0  9  2 24 27 13  7  4  9 26 12
  21691028.453     2940283.553 7   2187225.879 6
  24273209.457    -5555497.117 5  -4491065.835 2
  24381643.429    21815686.253 5  16850469.108 2
  20685668.660   -20878262.655 8 -16432782.517 7
  20941828.154    -6878227.289 8  -5518882.659 9
  22148151.274   -25585571.005 7 -12744128.614 5
  22506422.928   -21307388.496 7 -11459407.412 4
  23280317.881    -4264075.255 6  -3612273.683 3
  23546430.186   -19107881.023 6  -7736012.005 2
 94  2  1  3 32 59.9990000  0  9  2 24 27 13  7  4  9 26 12
  21698524.014     2979668.922 8   2217915.788 6
  24252552.108    -5664051.375 5  -4575653.483 2
  24403325.229    21929625.727 5  16939253.135 2
  20678005.275   -20918542.549 8 -16464168.642 7
  20950984.235    -6830094.233 8  -5481376.361 9
  22131786.623   -25671554.073 7 -12811128.369 5
  22490554.343   -21390783.089 7 -11524390.189 4
  23291913.104    -4203158.465 6  -3564806.044 3
  23529130.692   -19198818.521 6  -7806872.379 2
 94  2  1  3 33 29.9990000  0  9  2 24 27 13  7  4  9 26 12
  21706060.407     3019263.224 7   2248768.479 6
  24231897.726    -5772616.465 5  -4660249.628 2
  24425030.293    22043688.374 5  17028133.061 2
  20670447.687   -20958263.322 8 -16495119.890 7
  20960198.177    -6781675.617 8  -5443647.580 9
  22115487.147   -25757215.136 7 -12877877.259 5
  22474736.034   -21473893.372 7 -11589151.453 4
  23303556.294    -4141970.547 6  -3517127.183 3
  23511834.406   -19289686.059 6  -7877678.247 2
 94  2  1  3 33 59.9990000  0  9  2 24 27 13  7  4  9 26 12
  21713639.820     3059084.845 7   2279798.316 6
  24211231.743    -5881184.996 5  -4744848.455 2
  24446754.154    22157854.106 5  17117093.359 2
  20662993.557   -20997423.522 8 -16525634.328 7
  20969465.511    -6732974.213 8  -5405698.422 9
  22099245.920   -25842553.694 7 -12944374.794 5
  22458978.703   -21556712.712 7 -11653685.993 4
  23315246.431    -4080526.812 6  -3469248.924 3
  23494559.495   -19380479.542 6  -7948426.378 2
 94  2  1  3 34 29.9990000  0  9  2 24 27 13  7  4  9 26 12
  21721258.865     3099142.286 7   2311011.902 6
  24190580.540    -5989745.843 5  -4829441.274 2
  24468493.185    22272105.944 5  17206120.772 2
  20655647.263   -21036024.631 8 -16555713.096 7
  20978789.356    -6683993.877 8  -5367531.928 9
  22083065.462   -25927588.174 7 -13010635.420 5
  22443273.235   -21639231.812 7 -11717986.576 4
  23326987.353    -4018834.594 6  -3421177.086 3
  23477295.077   -19471198.634 6  -8019116.561 2
 94  2  1  3 34 59.9990000  0  9  2 24 27 13  7  4  9 26 12
  21728930.135     3139442.448 7   2342414.624 6
  24169922.351    -6098288.440 5  -4914019.883 2
  24490251.552    22386424.891 5  17295200.502 2
  20648407.515   -21074070.321 8 -16585359.090 7
  20988157.451    -6634751.623 8  -5329161.333 9
  22066942.773   -26012324.230 7 -13076663.500 5
  22427629.345   -21721448.448 7 -11782051.480 4
  23338772.224    -3956900.141 5  -3372916.470 3
  23460046.578   -19561845.126 6  -8089750.171 2
 94  2  1  3 35 29.9990000  0  9  2 24 27 13  7  4  9 26 12
  21736640.047     3179984.297 7   2374005.671 6
  24149272.886    -6206789.836 5  -4998566.398 2
  24512018.403    22500812.367 5  17384333.597 2
  20641273.294   -21111557.620 8 -16614569.953 7
  20997578.309    -6585242.024 8  -5290582.416 9
  22050874.677   -26096754.795 7 -13142453.530 5
  22412042.776   -21803356.080 7 -11845875.587 4
  23350603.084    -3894707.415 5  -3324454.608 3
  23442808.032   -19652414.150 6  -8160323.389 2
 94  2  1  3 35 59.9990000  0  9  2 24 27 13  7  4  9 26 12
  21744402.453     3220753.509 7   2405773.890 6
  24128634.964    -6315242.439 5  -5083074.859 2
  24533798.415    22615281.947 4  17473530.601 1
  20634247.807   -21148480.527 8 -16643341.046 7
  21007054.899    -6535457.397 8  -5251789.201 9
  22034868.548   -26180867.043 7 -13207995.519 5
  22396517.424   -21884949.796 7 -11909455.101 5
  23362495.461    -3832237.797 5  -3275777.008 3
  23425592.600   -19742897.916 6  -8230830.254 2
 94  2  1  3 36 29.9990000  0  9  2 24 27 13  7  4  9 26 12
  21752200.985     3261743.763 7   2437714.340 6
  24108004.686    -6423643.657 5  -5167543.294 2
  24555593.296    22729850.001 4  17562804.383 1
  20627332.855   -21184837.508 8 -16671671.149 7
  21016580.354    -6485392.133 8  -5212777.310 9
  22018927.264   -26264641.931 7 -13273274.647 5
  22381051.191   -21966224.967 7 -11972786.393 4
  23374432.507    -3769488.175 5  -3226881.201 3
  23408391.318   -19833292.939 6  -8301267.895 2
 94  2  1  3 36 59.9990000  0  9  2 24 27 13  7  4  9 26 12
  21760045.324     3302943.779 7   2469818.242 6
  24087386.639    -6532002.659 5  -5251978.846 2
  24577422.474    22844522.641 4  17652159.734 2
  20620519.441   -21220629.708 8 -16699561.167 7
  21026159.982    -6435044.194 8  -5173545.142 9
  22003053.913   -26348060.018 7 -13338275.738 5
  22365644.137   -22047190.986 7 -12035876.796 5
  23386424.775    -3706467.526 5  -3177774.216 3
  23391204.186   -19923598.438 6  -8371635.784 2
 94  2  1  3 37 29.9990000  0  9  2 24 27 13  7  4  9 26 12
  21767921.082     3344358.109 7   2502089.143 6
  24066771.980    -6640325.252 5  -5336386.019 2
  24599265.593    22959305.385 4  17741600.758 2
  20613816.981   -21255854.473 8 -16727009.017 7
  21035796.361    -6384404.451 8  -5134085.606 9
  21987248.375   -26431115.027 7 -13402993.914 5
  22350292.754   -22127856.952 7 -12098733.372 5
  23398469.836    -3643179.885 6  -3128459.158 3
  23374040.199   -20013809.788 6  -8441930.334 2
 94  2  1  3 37 59.9990000  0  8  2 24 13  7  4  9 26 12
  21775837.791     3385977.187 7   2534519.596 6
  24046172.791    -6748633.975 5  -5420782.443 2
  20607220.468   -21290515.034 8 -16754017.239 7
  21045488.322    -6333474.326 8  -5094399.790 9
  21971511.099   -26513816.459 7 -13467436.567 5
  22334994.855   -22208235.098 7 -12161365.688 5
  23410563.494    -3579643.197 6  -3078950.045 3
  23356891.051   -20103928.284 6  -8512152.501 2
 94  2  1  3 38 29.9990000  0  8  2 24 13  7  4  9 26 12
  21783798.210     3427795.407 7   2567105.217 6
  24025547.550    -6856931.105 5  -5505169.720 2
  20600733.259   -21324608.256 8 -16780583.376 7
  21055238.801    -6282246.470 8  -5054481.972 9
  21955839.239   -26596166.734 7 -13531605.598 6
  22319759.582   -22288323.980 7 -12223772.586 5
  23422697.024    -3515870.486 5  -3029257.075 3
  23339759.111   -20193948.429 6  -8582298.035 2
 94  2  1  3 38 59.9990000  0  8  2 24 13  7  4  9 26 12
  21791794.994     3469820.734 7   2599852.223 6
  24004948.330    -6965210.423 5  -5589543.175 2
  20594354.875   -21358129.547 8 -16806703.852 7
  21065041.086    -6230729.555 8  -5014338.921 9
  21940234.891   -26678168.700 7 -13595503.216 6
  22304575.214   -22368103.595 7 -12285938.519 5
  23434878.221    -3451854.853 5  -2979374.771 3
  23322651.005   -20283864.019 6  -8652362.120 2
 94  2  1  3 39 29.9990000  0  8  2 24 13  7  4  9 26 12
  21799831.201     3512050.967 7   2632758.898 6
  23984354.957    -7073467.559 5  -5673899.319 2
  20588084.985   -21391082.828 8 -16832381.718 7
  21074898.711    -6178932.562 8  -4973977.620 9
  21924697.578   -26759828.278 7 -13659134.047 6
  22289455.961   -22447559.484 7 -12347852.196 5
  23447105.856    -3387593.974 5  -2929301.382 3
  23305559.087   -20373676.535 6  -8722345.886 3
 94  2  1  3 39 59.9990000  0  8  2 24 13  7  4  9 26 12
  21807907.730     3554480.092 7   2665820.538 6
  23963751.000    -7181694.713 5  -5758232.133 2
  20581919.394   -21423467.375 8 -16857616.424 7
  21084807.691    -6126867.719 8  -4933407.612 9
  21909224.450   -26841139.951 7 -13722493.795 6
  22274403.052   -22526682.666 7 -12409506.614 5
  23459384.336    -3323081.418 5  -2879031.858 3
  23288486.536   -20463383.209 6  -8792247.171 3
 94  2  1  3 40 29.9990000  0  8  2 24 13  7  4  9 26 12
  21816021.433     3597127.411 7   2699052.190 5
  23943168.509    -7289866.384 5  -5842521.706 2
  20575866.554   -21455280.355 8 -16882405.746 7
  21094758.433    -6074549.474 8  -4892640.144 9
  21893818.445   -26922097.644 7 -13785577.691 6
  22259406.534   -22605465.233 7 -12470895.618 5
  23471710.963    -3258310.803 5  -2828561.220 3
  23271440.907   -20552978.964 6  -8862062.032 3
 94  2  1  3 40 59.9990000  0  8  2 24 13  7  4  9 26 12
  21824180.554     3640008.555 7   2732466.077 5
  23922600.288    -7397970.059 5  -5926758.320 2
  20569918.792   -21486528.829 8 -16906755.190 7
  21104762.087    -6021991.199 8  -4851685.645 9
  21878479.384   -27002704.435 7 -13848388.165 6
  22244479.207   -22683907.592 7 -12532019.531 5
  23484082.468    -3193290.316 5  -2777895.950 3
  23254406.699   -20642468.786 6  -8931794.322 3
 94  2  1  3 41 29.9990000  0  8  2 24 13  7  4  9 26 12
  21832386.114     3683124.209 7   2766062.696 5
  23902038.783    -7506006.557 6  -6010942.554 2
  20564078.145   -21517216.066 8 -16930667.321 7
  21114808.912    -5969189.355 8  -4810541.342 9
  21863205.498   -27082967.318 7 -13910930.655 6
  22229616.097   -22762030.160 7 -12592894.238 5
  23496495.435    -3128036.769 5  -2727049.042 3
  23237399.983   -20731853.655 6  -9001444.854 3
 94  2  1  3 41 59.9990000  0  8  2 24 13  7  4  9 26 12
  21840636.912     3726477.935 7   2799844.782 5
  23881493.796    -7613974.433 6  -6095073.369 2
  20558346.083   -21547345.653 8 -16954144.915 7
  21124903.494    -5916147.747 8  -4769210.224 9
  21847997.416   -27162891.262 7 -13973209.055 6
  22214805.870   -22839839.400 7 -12653524.829 5
  23508957.417    -3062564.515 5  -2676031.697 3
  23220410.594   -20821134.679 6  -9071014.504 3
 94  2  1  3 42 29.9990000  0  8  2 24 13  7  4  9 26 12
  21848931.959     3770070.388 7   2833812.924 5
  23860962.869    -7721863.382 6  -6179142.656 2
  20552719.848   -21576913.363 8 -16977184.673 7
  21135047.151    -5862841.787 8  -4727673.110 9
  21832853.070   -27242466.080 7 -14035215.397 6
  22200066.454   -22917314.600 7 -12713895.105 5
  23521460.052    -2996878.792 5  -2624848.034 3
  23203443.001   -20910305.487 6  -9140498.213 3
 94  2  1  3 42 59.9990000  0  8  2 24 13  7  4  9 26 12
  21857271.616     3813894.579 7   2867961.644 5
  23840447.022    -7829686.322 6  -6263160.489 2
  20547201.448   -21605918.472 8 -16999786.043 7
  21145244.502    -5809256.077 8  -4685918.003 9
  21817777.467   -27321681.162 7 -14096941.425 6
  22185387.056   -22994449.799 7 -12774000.443 5
  23533998.602    -2930974.946 5  -2573494.370 2
  23186496.003   -20999362.940 6  -9209893.638 3
 94  2  1  3 43 29.9990000  0  8  2 24 13  7  4  9 26 12
  21865651.145     3857934.351 7   2902278.353 5
  23819936.301    -7937459.089 6  -6347139.236 2
  20541787.317   -21634363.997 8 -17021951.388 7
  21155490.569    -5755396.648 8  -4643949.617 9
  21802774.174   -27400534.867 7 -14158385.853 6
  22170772.564   -23071242.054 7 -12833838.564 5
  23546583.739    -2864842.640 5  -2521962.737 2
  23169567.652   -21088307.723 6  -9279201.221 3
 94  2  1  3 43 59.9990000  0  8  2 24 13  7  4  9 26 12
  21874072.045     3902189.078 7   2936762.543 5
  23799441.140    -8045174.749 6  -6431073.489 2
  20536481.290   -21662247.455 8 -17043678.742 7
  21165793.626    -5701266.166 8  -4601770.029 9
  21787841.121   -27479003.488 7 -14219530.225 6
  22156232.360   -23147668.430 7 -12893391.579 5
  23559215.465    -2798463.561 5  -2470238.801 3
  23152663.225   -21177134.920 7  -9348417.212 3
 94  2  1  3 44 29.9990000  0  8  2 24 13  7  4  9 26 12
  21882538.814     3946661.640 7   2971416.473 5
  23778949.486    -8152837.906 5  -6514966.855 2
  20531283.608   -21689570.224 8 -17064969.205 7
  21176144.920    -5646879.918 8  -4559391.118 9
  21772983.227   -27557084.468 7 -14280372.528 6
  22141757.840   -23223733.181 7 -12952662.805 5
  23571889.251    -2731843.783 5  -2418327.280 3
  23135786.918   -21265843.464 6  -9417540.756 3
 94  2  1  3 44 59.9990000  0  9  2 24  5 13  7  4  9 26 12
  21891043.506     3991371.686 7   3006255.464 5
  23758474.440    -8260439.268 5  -6598812.049 3
  24738914.976     -830484.98715   -496729.996 1
  20526191.603   -21716333.764 8 -17085823.899 7
  21186538.035    -5592260.297 8  -4516830.382 9
  21758201.151   -27634781.558 7 -14340915.707 6
  22127347.956   -23299444.608 7 -13011658.727 5
  23584615.291    -2664987.743 5  -2366231.703 3
  23118929.918   -21354432.382 7  -9486571.039 3
 94  2  1  3 45 29.9990000  0  9  2 24  5 13  7  4  9 26 12
  21899594.576     4036310.013 7   3041272.327 5
  23738011.447    -8367968.413 5  -6682600.928 3
  24723688.607     -910500.408 4   -559079.594 1
  20521202.967   -21742541.883 8 -17106245.806 7
  21196972.791    -5537420.046 8  -4474097.717 9
  21743486.498   -27712098.789 7 -14401162.897 6
  22113005.105   -23374804.540 7 -13070380.729 5
  23597379.014    -2597916.316 5  -2313968.255 3
  23102092.704   -21442902.905 7  -9555509.114 3
 94  2  1  3 45 59.9990000  0  9  2 24  5 13  7  4  9 26 12
  21908191.065     4081486.723 7   3076474.949 5
  23717565.121    -8475411.537 5  -6766322.834 3
  24708447.518     -990551.950 4   -621457.399 1
  20516320.127   -21768191.284 8 -17126232.343 7
  21207450.837    -5482353.247 8  -4431188.526 9
  21728845.473   -27789029.037 7 -14461108.524 6
  22098734.534   -23449816.789 7 -13128831.828 5
  23610172.867    -2530656.575 5  -2261558.088 3
  23085279.264   -21531249.022 7  -9624350.245 3
 94  2  1  3 46 29.9990000  0  9  2 24  5 13  7  4  9 26 12
  21916832.732     4126892.865 7   3111856.351 5
  23697145.088    -8582766.575 5  -6849976.107 2
  24693208.198    -1070633.562 4   -683858.599 2
  20511546.172   -21793283.295 8 -17145784.547 7
  21217973.912    -5427054.617 8  -4388098.674 9
  21714276.939   -27865585.486 7 -14520762.894 6
  22084522.123   -23524492.809 7 -13187020.936 5
  23623007.102    -2463232.640 5  -2209019.958 3
  23068491.396   -21619469.699 7  -9693093.615 3
 94  2  1  3 46 59.9990000  0  9  2 24  5 13  7  4  9 26 12
  21925513.823     4172505.273 7   3147398.491 5
  23676723.016    -8690038.569 5  -6933564.633 2
  24677958.415    -1150753.393 4   -746289.606 2
  20506877.624   -21817823.349 8 -17164906.665 7
  21228542.436    -5371523.730 8  -4344827.866 9
  21699781.104   -27941767.554 7 -14580125.529 6
  22070377.436   -23598830.427 7 -13244946.336 5
  23635866.520    -2395647.760 5  -2156356.438 2
  23051725.323   -21707567.896 7  -9761741.534 3
 94  2  1  3 47 29.9990000  0  9  2 24  5 13  7  4  9 26 12
  21934227.950     4218305.577 7   3183087.021 5
  23656323.008    -8797241.778 6  -7017099.630 2
  24662713.759    -1230890.867 4   -808734.343 2
  20502314.963   -21841809.694 8 -17183597.299 7
  21239153.080    -5315762.882 8  -4301377.843 9
  21685355.990   -28017564.942 7 -14639188.399 6
  22056294.865   -23672830.554 7 -13302608.764 5
  23648758.225    -2327900.671 5  -2103566.497 2
  23034985.421   -21795538.927 7  -9830290.395 3
 94  2  1  3 47 59.9990000  0  9  2 24  5 13  7  4  9 26 12
  21942984.228     4264301.101 7   3218927.686 5
  23635936.072    -8904379.799 6  -7100583.783 2
  24647461.667    -1311065.593 5   -871208.115 2
  20497850.633   -21865240.995 8 -17201855.453 7
  21249810.043    -5259757.895 8  -4257737.602 9
  21671007.684   -28092964.420 7 -14697941.231 6
  22042276.659   -23746495.521 7 -13360010.040 5
  23661685.696    -2259980.768 5  -2050641.882 2
  23018272.621   -21883379.034 6  -9898737.220 3
 94  2  1  3 48 29.9990000  0  9  2 24  5 13  7  4  9 26 12
  21951774.952     4310506.433 7   3254931.831 5
  23615562.746    -9011442.872 6  -7184009.554 2
  24632187.991    -1391283.049 5   -933715.200 1
  20493500.525   -21888110.645 8 -17219675.956 7
  21260515.302    -5203508.829 8  -4213907.154 9
  21656739.571   -28167958.372 7 -14756378.067 6
  22028323.809   -23819814.126 7 -13417141.407 6
  23674649.411    -2191859.259 5  -1997560.232 2
  23001584.824   -21971078.701 7  -9967074.594 3
 94  2  1  3 48 59.9990000  0  9  2 24  5 13  7  4  9 26 12
  21960609.327     4356945.039 7   3291117.757 5
  23595203.870    -9118433.189 6  -7267378.584 2
  24616926.726    -1471545.681 5   -996257.446 1
  20489257.322   -21910420.102 8 -17237059.928 7
  21271263.191    -5147021.479 8  -4169891.037 9
  21642546.347   -28242543.343 7 -14814496.204 6
  22014439.940   -23892784.299 7 -13474001.262 6
  23687653.029    -2123528.473 5  -1944315.460 2
  22984919.991   -22058636.679 7 -10035301.580 3
 94  2  1  3 49 29.9990000  0  9  2 24  5 13  7  4  9 26 12
  21969493.946     4403626.135 7   3327492.621 5
  23574857.166    -9225347.226 6  -7350688.215 2
  24601635.752    -1551861.944 4  -1058841.516 2
  20485115.480   -21932177.650 8 -17254013.862 7
  21282059.377    -5090288.526 8  -4125683.543 9
  21628429.600   -28316720.192 7 -14872296.341 6
  22000618.968   -23965419.629 7 -13530600.222 6
  23700691.573    -2055000.821 5  -1890917.291 2
  22968281.989   -22146058.387 6 -10103422.382 3
 94  2  1  3 49 59.9990000  0  9  2 24  5 13  7  4  9 26 12
  21978429.020     4450562.436 7   3364066.337 5
  23554531.597    -9332170.261 5  -7433926.911 3
  24586335.064    -1632244.228 4  -1121476.974 2
  20481079.014   -21953384.231 8 -17270538.464 7
  21292902.061    -5033304.664 8  -4081280.544 9
  21614390.229   -28390495.760 7 -14929783.794 6
  21986860.683   -24037711.486 7 -13586931.543 6
  23713763.903    -1986283.122 5  -1837371.056 2
  22951673.787   -22233342.222 7 -10171435.734 3
 94  2  1  3 50 29.9990000  0  9  2 24  5 13  7  4  9 26 12
  21987405.406     4497756.900 7   3400841.259 5
  23534223.026    -9438889.014 5  -7517084.349 3
  24571036.625    -1712662.419 4  -1184140.494 2
  20477152.692   -21974034.961 8 -17286629.934 7
  21303790.463    -4976086.476 8  -4036694.933 9
  21600427.305   -28463867.631 7 -14986956.645 6
  21973171.110   -24109638.183 7 -13642978.300 6
  23726880.602    -1917371.942 5  -1783674.030 2
  22935095.204   -22320480.251 7 -10239335.491 3
 94  2  1  3 50 59.9990000  0  9  2 24  5 13  7  4  9 26 12
  21996432.756     4545186.469 7   3437799.361 5
  23513938.319    -9545497.677 6  -7600155.981 3
  24555725.925    -1793106.627 4  -1246824.234 2
  20473326.831   -21994129.789 8 -17302288.224 7
  21314724.643    -4918633.331 8  -3991926.246 9
  21586546.465   -28536821.431 7 -15043803.756 6
  21959560.383   -24181185.993 7 -13698729.845 6
  23740029.530    -1848280.082 5  -1729836.251 3
  22918542.433   -22407469.879 7 -10307119.598 3
 94  2  1  3 51 29.9990000  0  9  2 24  5 13  7  4  9 26 12
  22005498.900     4592822.860 7   3474918.612 5
  23493671.929    -9651995.307 6  -7683141.138 3
  24540412.316    -1873580.088 4  -1309530.770 2
  20469607.396   -22013673.668 8 -17317517.219 7
  21325700.585    -4860959.077 8  -3946985.274 9
  21572741.532   -28609355.240 7 -15100323.603 6
  21946014.890   -24252348.398 7 -13754181.053 6
  23753207.896    -1779018.988 5  -1675866.617 3
  22902016.914   -22494312.713 7 -10374789.353 3
 94  2  1  3 51 59.9990000  0  9  2 24  5 13  7  4  9 26 12
  22014598.591     4640659.505 7   3512193.901 5
  23473426.825    -9758372.648 6  -7766032.511 3
  24525094.870    -1954076.195 4  -1372254.979 2
  20465994.417   -22032663.584 8 -17332314.543 7
  21336713.461    -4803081.016 8  -3901885.487 9
  21559022.040   -28681467.350 7 -15156514.840 6
  21932551.780   -24323107.371 7 -13809317.912 6
  23766421.609    -1709582.917 5  -1621760.572 3
  22885519.574   -22581003.275 7 -10442340.430 3
 94  2  1  3 52 29.9990000  0  9  2 24  5 13  7  4  9 26 12
  22023740.612     4688700.866 7   3549628.724 5
  23453209.031    -9864628.122 6  -7848828.956 3
  24509774.246    -2034574.067 4  -1434980.557 2
  20462486.156   -22051098.817 8 -17346679.648 7
  21347765.759    -4744999.746 8  -3856627.348 9
  21545383.611   -28753147.992 7 -15212369.862 6
  21919159.332   -24393467.024 7 -13864143.610 6
  23779669.317    -1639969.486 5  -1567516.353 3
  22869054.553   -22667537.582 7 -10509769.732 3
 94  2  1  3 52 59.9990000  0  9  2 24  5 13  7  4  9 26 12
  22032927.901     4736957.003 7   3587230.886 5
  23433012.733    -9970761.161 6  -7931530.023 3
  24494456.740    -2115081.420 5  -1497713.490 2
  20459083.121   -22068980.255 8 -17360613.234 7
  21358857.720    -4686712.286 8  -3811208.558 9
  21531819.861   -28824399.848 7 -15267890.789 6
  21905846.508   -24463441.439 7 -13918669.121 6
  23792943.138    -1570193.195 5  -1513145.258 3
  22852613.575   -22753913.613 7 -10577075.751 3
 94  2  1  3 53 29.9990000  0  9  2 24  5 13  7  4  9 26 12
  22042152.935     4785451.050 7   3625018.437 5
  23412840.418   -10076776.737 6  -8014139.567 3
  24479134.078    -2195600.969 5  -1560455.986 2
  20455785.674   -22086310.060 8 -17374116.970 7
  21369987.605    -4628223.802 8  -3765633.102 9
  21518339.633   -28895235.091 7 -15323087.049 6
  21892602.367   -24533036.332 7 -13972898.888 6
  23806259.649    -1500259.103 5  -1458651.155 3
  22836206.923   -22840130.620 7 -10644257.803 4
 94  2  1  3 53 59.9990000  0  9  2 24  5 13  7  4  9 26 12
  22051431.811     4834198.128 7   3663003.172 5
  23392682.643   -10182671.310 6  -8096654.755 3
  24463810.786    -2276119.466 5  -1623197.631 2
  20452593.034   -22103083.522 8 -17387187.194 7
  21381155.624    -4569527.406 8  -3719895.672 9
  21504943.467   -28965645.889 7 -15377952.609 6
  21879432.124   -24602243.435 7 -14026826.511 6
  23819594.898    -1430158.301 5  -1404027.171 3
  22819829.890   -22926180.619 7 -10711309.729 4
 94  2  1  3 54 29.9990000  0  9  2 24  5 13  7  4  9 26 12
  22060751.579     4883201.432 7   3701187.556 5
  23372553.858   -10288457.817 6  -8179085.820 3
  24448493.220    -2356639.936 5  -1685940.825 2
  20449506.941   -22119304.104 8 -17399826.595 7
  21392365.344    -4510621.603 8  -3673995.031 9
  21491628.695   -29035634.665 7 -15432489.285 6
  21866336.920   -24671066.739 7 -14080455.052 6
  23832961.174    -1359906.414 5  -1349285.481 3
  22803487.244   -23012063.970 7 -10778231.820 4
 94  2  1  3 54 59.9990000  0  9  2 24  5 13  7  4  9 26 12
  22070126.839     4932444.189 7   3739558.520 5
  23352444.619   -10394127.379 6  -8261425.705 3
  24433162.673    -2437178.259 5  -1748697.936 2
  20446526.015   -22134969.104 8 -17412033.075 7
  21403614.756    -4451502.216 8  -3627927.989 9
  21478387.342   -29105201.029 7 -15486696.840 6
  21853316.814   -24739490.709 7 -14133772.420 6
  23846356.261    -1289507.370 5  -1294429.066 2
  22787180.873   -23097775.051 7 -10845019.658 4
 94  2  1  3 55 29.9990000  0  9  2 24  5 13  7  4  9 26 12
  22079541.222     4981909.486 7   3778102.890 5
  23332366.679   -10499676.920 6  -8343672.035 3
  24417839.831    -2517732.774 5  -1811467.647 2
  20443648.547   -22150079.636 8 -17423807.509 7
  21414909.407    -4392163.095 8  -3581689.698 9
  21465231.010   -29174332.644 7 -15540565.619 6
  21840373.034   -24807504.430 7 -14186770.122 6
  23859779.259    -1218956.045 5  -1239454.010 2
  22770904.691   -23183312.024 7 -10911671.841 4
 94  2  1  3 55 59.9990000  0  9  2 24  5 13  7  4  9 26 12
  22088993.948     5031590.322 7   3816815.210 5
  23312296.473   -10605090.781 6  -8425812.708 3
  24402500.141    -2598307.647 5  -1874253.212 2
  20440881.043   -22164638.983 8 -17435152.446 7
  21426241.292    -4332609.332 8  -3535284.187 8
  21452159.699   -29243030.032 7 -15594096.054 6
  21827506.901   -24875117.247 7 -14239455.427 6
  23873240.480    -1148255.576 5  -1184362.729 2
  22754659.507   -23268674.656 7 -10978188.196 4
 94  2  1  3 56 29.9990000  0  9  2 24  5 13  7  4  9 26 12
  22098487.565     5081492.788 7   3855700.234 5
  23292271.176   -10710359.313 6  -8507840.106 3
  24387162.459    -2678916.646 5  -1937065.415 2
  20438212.290   -22178649.260 8 -17446069.550 7
  21437613.199    -4272844.088 8  -3488713.857 8
  21439168.852   -29311289.609 7 -15647285.314 6
  21814715.926   -24942341.189 7 -14291837.718 6
  23886722.296    -1077417.416 5  -1129164.190 2
  22738444.183   -23353861.992 7 -11044567.922 4
 94  2  1  3 56 59.9990000  0  9  2 24  5 13  7  4  9 26 12
  22108025.852     5131617.489 7   3894758.436 5
  23272269.773   -10815470.022 6  -8589744.530 4
  24371814.824    -2759566.794 5  -1999909.650 2
  20435654.251   -22192111.146 8 -17456559.312 7
  21449025.009    -4212870.407 8  -3441981.118 8
  21426265.095   -29379103.758 7 -15700127.482 6
  21801995.523   -25009172.508 7 -14343914.070 6
  23900227.887    -1006439.029 5  -1073856.364 2
  22722270.829   -23438871.587 7 -11110809.156 4
 94  2  1  3 57 29.9990000  0  9  2 24  5 13  7  4  9 26 12
  22117610.277     5181982.042 7   3934003.532 5
  23252300.297   -10920420.240 6  -8671523.909 3
  24356450.910    -2840254.146 5  -2062782.903 2
  20433196.792   -22205025.874 8 -17466622.731 7
  21460476.152    -4152699.666 8  -3395094.821 8
  21413443.841   -29446470.270 7 -15752620.865 6
  21789351.626   -25075616.574 7 -14395688.668 6
  23913758.869     -935324.290 5  -1018442.316 2
  22706129.973   -23523701.179 7 -11176910.142 4
 94  2  1  3 57 59.9990000  0  9  2 24  5 13  7  4  9 26 12
  22127241.410     5232593.885 7   3973441.305 5
  23232356.304   -11025220.781 6  -8753186.668 3
  24341100.906    -2920986.869 5  -2125691.479 2
  20430842.642   -22217394.916 8 -17476260.936 7
  21471963.059    -4092335.351 8  -3348057.707 8
  21400707.668   -29513400.268 8 -15804774.096 6
  21776783.966   -25141672.299 7 -14447160.646 6
  23927313.715     -864073.105 5   -962921.901 2
  22690019.846   -23608349.290 7 -11242869.666 4
 94  2  1  3 58 29.9990000  0  9  2 24  5 13  7  4  9 26 12
  22136916.582     5283435.660 6   4013058.275 5
  23212438.034   -11129888.270 6  -8834745.734 3
  24325725.870    -3001768.183 5  -2188637.891 2
  20428590.331   -22229219.613 8 -17485474.981 7
  21483489.510    -4031772.842 8  -3300866.126 8
  21388057.296   -29579887.885 8 -15856582.611 6
  21764288.377   -25207332.622 7 -14498324.519 6
  23940904.087     -792683.893 5   -907293.966 2
  22673949.351   -23692813.823 7 -11308686.194 4
 94  2  1  3 58 59.9990000  0  9  2 24  5 13  7  4  9 26 12
  22146631.626     5334493.877 6   4052843.861 5
  23192545.005   -11234421.082 6  -8916199.843 3
  24310342.110    -3082599.645 5  -2251623.475 2
  20426444.597   -22240499.718 8 -17494264.665 7
  21495049.867    -3971014.117 8  -3253521.676 8
  21375488.137   -29645937.060 8 -15908049.493 6
  21751871.812   -25272580.968 7 -14549167.396 6
  23954507.649     -721154.904 5   -851557.099 2
  22657910.455   -23777091.025 7 -11374356.716 4
 94  2  1  3 59 29.9990000  0  9  2 24  5 13  7  4  9 26 12
  22156393.378     5385767.173 6   4092797.072 5
  23172678.479   -11338827.189 6  -8997555.227 3
  24294955.982    -3163479.031 5  -2314646.309 2
  20424403.100   -22251238.012 8 -17502632.154 7
  21506649.766    -3910058.542 8  -3206023.822 8
  21363000.522   -29711551.506 7 -15959177.615 6
  21739533.284   -25337414.415 7 -14599686.956 6
  23968155.791     -649480.348 5   -795706.822 2
  22641908.823   -23861180.329 7 -11439880.848 4
 94  2  1  3 59 59.9990000  0  9  2 24  5 13  7  4  9 26 12
  22166185.649     5437259.595 6   4132921.034 5
  23152836.535   -11443097.720 6  -9078805.003 3
  24279556.003    -3244383.203 5  -2377688.468 2
  20422465.242   -22261426.095 8 -17510570.921 7
  21518290.857    -3848892.293 8  -3158361.814 8
  21350604.614   -29776708.646 7 -16009949.408 6
  21727280.077   -25401814.870 7 -14649869.130 6
  23981820.031     -577647.693 5   -739733.337 2
  22625945.114   -23945070.256 7 -11505249.630 4
 94  2  1  4  0 29.9990000  0  9  2 24  5 13  7  4  9 26 12
  22176026.306     5488969.091 6   4173214.136 5
  23133018.724   -11547220.185 6  -9159939.368 4
  24264160.581    -3325309.296 5  -2440747.777 2
  20420627.694   -22271070.273 8 -17518085.858 7
  21529968.313    -3787528.425 8  -3110545.814 8
  21338294.446   -29841402.860 7 -16060360.459 6
  21715108.653   -25465786.604 7 -14699717.226 6
  23995514.131     -505682.617 5   -683656.653 2
  22610016.841   -24028763.453 7 -11570465.090 4
 94  2  1  4  0 59.9990000  0  9  2 24  5 13  7  4  9 26 12
  22185914.931     5540917.001 6   4213693.005 5
  23113237.309   -11651190.432 6  -9240955.126 4
  24248754.007    -3406240.300 5  -2503810.858 2
  20418894.803   -22280171.130 8 -17525177.419 7
  21541683.333    -3725969.581 8  -3062577.890 8
  21326066.781   -29905638.642 7 -16110414.288 6
  21703018.203   -25529321.801 7 -14749225.160 6
  24009235.752     -433595.776 5   -627485.108 2
  22594126.582   -24112257.084 7 -11635525.038 4
 94  2  1  4  1 29.9990000  0  9  2 24  5 13  7  4  9 26 12
  22195843.607     5593123.126 6   4254373.096 5
  23093482.904   -11755000.347 6  -9321845.973 4
  24233356.366    -3487150.931 5  -2566858.076 2
  20417270.138   -22288725.611 8 -17531843.265 7
  21553434.178    -3664206.342 8  -3014450.692 8
  21313934.840   -29969402.913 7 -16160100.734 6
  21691007.168   -25592427.632 7 -14798398.545 6
  24022973.202     -361394.021 5   -571224.022 2
  22578282.940   -24195544.720 7 -11700424.501 4
 94  2  1  4  1 59.9990000  0  9  2 24  5 13  7  4  9 26 12
  22205829.274     5645585.178 6   4295252.607 5
  23073759.679   -11858643.124 6  -9402606.571 4
  24217967.900    -3568040.090 5  -2629888.540 2
  20415743.595   -22296737.424 8 -17538086.221 7
  21565222.467    -3602248.816 8  -2966172.100 8
  21301887.260   -30032698.194 7 -16209421.725 6
  21679077.167   -25655122.556 7 -14847251.723 6
  24036725.941     -289104.259 5   -514894.332 2
  22562472.216   -24278626.354 7 -11765163.431 4
 94  2  1  4  2 29.9990000  0  9  2 24  5 13  7  4  9 26 12
  22215855.054     5698316.815 6   4336342.168 5
  23054072.308   -11962107.210 6  -9483227.912 4
  24202579.373    -3648917.831 5  -2692910.117 2
  20414322.579   -22304202.409 8 -17543903.073 7
  21577052.487    -3540091.944 8  -2917738.173 8
  21289933.216   -30095525.674 8 -16258378.172 6
  21667228.950   -25717395.821 7 -14895776.354 6
  24050502.544     -216726.753 5   -458496.290 2
  22546703.342   -24361494.492 7 -11829735.985 4
 94  2  1  4  2 59.9990000  0  9  2 24  5 13  7  4  9 26 12
  22225951.044     5751318.107 6   4377641.865 5
  23034419.353   -12065392.389 6  -9563709.849 4
  24187186.829    -3729802.587 5  -2755937.166 2
  20413006.909   -22311128.843 8 -17549300.289 7
  21588917.433    -3477741.675 8  -2869153.544 8
  21278065.842   -30157890.012 8 -16306973.766 6
  21655455.530   -25779248.569 7 -14943973.298 6
  24064294.586     -144251.420 5   -402022.004 2
  22530972.812   -24444153.663 7 -11894145.739 4
 94  2  1  4  3 29.9990000  0  9  2 24  5 13  7  4  9 26 12
  22236086.098     5804575.893 6   4419141.422 4
  23014798.507   -12168488.368 6  -9644044.342 4
  24171788.409    -3810711.161 5  -2818982.804 2
  20411787.803   -22317518.240 8 -17554279.032 7
  21600818.415    -3415203.771 8  -2820422.702 8
  21266292.302   -30219769.053 8 -16355191.175 6
  21643767.102   -25840679.181 7 -14991841.292 6
  24078106.354      -71678.337 5   -345471.552 2
  22515281.495   -24526602.071 7 -11958391.233 4
 94  2  1  4  3 59.9990000  0  9  2 24  5 13  7  4  9 26 12
  22246265.041     5858082.127 6   4460834.567 4
  22995216.783   -12271397.944 6  -9724233.602 4
  24156386.272    -3891656.200 5  -2882056.853 2
  20410673.805   -22323371.073 8 -17558839.679 7
  21612751.294    -3352493.069 8  -2771557.234 8
  21254609.420   -30281158.203 8 -16403026.866 7
  21632160.787   -25901664.505 7 -15039362.318 6
  24091937.189        1004.446 5   -288835.605 2
  22499632.838   -24608836.316 7 -12022469.866 4
 94  2  1  4  4 29.9990000  0  9  2 24  5 13  7  4  9 26 12
  22256498.127     5911834.789 6   4502719.749 4
  22975667.107   -12374123.259 6  -9804279.281 4
  24140980.987    -3972646.042 5  -2945165.794 2
  20409661.525   -22328692.837 8 -17562986.495 7
  21624716.250    -3289618.715 8  -2722564.229 8
  21243019.624   -30342062.153 8 -16450484.471 7
  21620645.609   -25962177.755 8 -15086515.493 6
  24105791.678       73803.561 5   -232109.064 2
  22484024.474   -24690858.486 7 -12086383.237 4
 94  2  1  4  4 59.9990000  0  9  2 24  5 13  7  4  9 26 12
  22266770.725     5965825.696 6   4544790.592 4
  22956157.603   -12476657.143 6  -9884175.828 4
  24125550.549    -4053660.461 5  -3008293.878 2
  20408750.276   -22333474.685 8 -17566712.620 7
  21636713.015    -3226574.664 8  -2673439.000 8
  21231527.349   -30402457.770 8 -16497545.991 7
  21609223.006   -26022215.727 8 -15133298.333 6
  24119666.282      146721.378 5   -175289.989 2
  22468459.969   -24772655.984 7 -12150121.526 5
 94  2  1  4  5 29.9990000  0  9  2 24  5 13  7  4  9 26 12
  22277088.263     6020040.698 6   4587036.025 4
  22936676.759   -12579014.891 6  -9963935.090 4
  24110137.409    -4134690.365 5  -3071434.038 2
  20407945.273   -22337721.967 8 -17570022.172 7
  21648742.368    -3163364.630 8  -2624184.417 8
  21220128.311   -30462355.929 8 -16544219.854 7
  21597884.406   -26081787.791 8 -15179718.115 6
  24133563.222      219740.134 5   -118392.246 2
  22452936.565   -24854230.383 7 -12213686.004 4
 94  2  1  4  5 59.9990000  0  9  2 24  5 13  7  4  9 26 12
  22287448.431     6074486.348 6   4629461.153 4
  22917231.201   -12681197.057 6 -10043557.545 4
  24094710.569    -4215740.347 5  -3134589.822 2
  20407235.845   -22341440.689 8 -17572919.869 7
  21660799.930    -3099991.548 8  -2574802.816 8
  21208819.600   -30521786.876 8 -16590529.687 7
  21586637.242   -26140903.655 8 -15225782.437 6
  24147476.560      292852.317 5    -61421.753 2
  22437454.743   -24935584.192 7 -12277078.589 5
 94  2  1  4  6 29.9990000  0  9  2 24  5 13  7  4  9 26 12
  22297853.088     6129160.633 6   4672064.511 4
  22897824.466   -12783200.312 6 -10123040.568 4
  24079285.707    -4296817.003 5  -3197766.370 2
  20406627.086   -22344630.800 8 -17575405.665 7
  21672894.727    -3036445.353 8  -2525286.296 8
  21197599.747   -30580748.209 8 -16636473.566 7
  21575469.793   -26199585.414 8 -15271508.476 6
  24161402.789      366053.774 5     -4381.667 2
  22422016.511   -25016713.492 7 -12340296.213 5
 94  2  1  4  6 59.9990000  0  9  2 24  5 13  7  4  9 26 12
  22308296.148     6184058.433 6   4714841.997 4
  22878446.751   -12885018.380 6 -10202379.291 4
  24063855.480    -4377917.100 5  -3260961.249 2
  20406120.467   -22347290.035 8 -17577477.786 7
  21685020.673    -2972708.448 8  -2475621.162 8
  21186470.582   -30639225.041 8 -16682039.909 7
  21564378.941   -26257854.927 7 -15316913.284 6
  24175344.877      439350.148 5     52732.389 2
  22406622.858   -25097612.316 7 -12403334.264 5
 94  2  1  4  7 29.9990000  0  9  2 24  5 13  7  4  9 26 12
  22318788.884     6239186.929 6   4757799.253 4
  22859108.249   -12986644.432 6 -10281568.402 4
  24048413.500    -4459042.461 5  -3324175.799 2
  20405719.225   -22349423.972 8 -17579140.599 7
  21697184.422    -2908792.181 8  -2425816.287 8
  21175430.874   -30697242.856 8 -16727248.594 7
  21553371.342   -26315709.321 8 -15361994.626 6
  24189316.705      512743.269 4    109921.831 2
  22391272.465   -25178282.459 7 -12466194.091 5
 94  2  1  4  7 59.9990000  0  9  2 24  5 13  7  4  9 26 12
  22329325.719     6294536.111 6   4800928.452 4
  22839807.011   -13088069.554 6 -10360600.946 4
  24032971.010    -4540200.493 5  -3387415.779 2
  20405408.580   -22351037.736 8 -17580398.061 7
  21709377.221    -2844713.962 8  -2375885.209 8
  21164480.445   -30754800.372 8 -16772098.591 7
  21542439.829   -26373146.315 7 -15406750.736 7
  24203301.183      586233.279 4    167186.755 2
  22375964.102   -25258725.233 7 -12528876.760 5
 94  2  1  4  8 29.9990000  0  9  2 24  5 13  7  4  9 26 12
  22339894.303     6350095.985 6   4844221.865 4
  22820547.803   -13189289.026 6 -10439473.263 4
  24017526.452    -4621371.832 5  -3450666.160 2
  20405204.241   -22352125.041 8 -17581245.307 7
  21721605.156    -2780463.592 8  -2325819.998 8
  21153617.226   -30811873.608 8 -16816571.215 7
  21531592.619   -26430150.127 7 -15451169.286 7
  24217304.639      659813.860 4    224522.310 2
  22360701.848   -25338930.456 7 -12591374.329 5
 94  2  1  4  8 59.9990000  0  9  2 24  5 13  7  4  9 26 12
  22350511.873     6405878.306 6   4887688.589 4
  22801326.940   -13290282.152 6 -10518169.209 4
  24002080.126    -4702534.763 5  -3513909.984 2
  20405096.346   -22352686.933 8 -17581683.139 7
  21733865.138    -2716033.650 8  -2275614.849 7
  21142850.239   -30868457.824 8 -16860662.822 7
  21520830.639   -26486697.343 7 -15495232.036 7
  24231325.183      733469.306 4    281916.090 2
  22345485.822   -25418895.405 7 -12653684.670 5
 94  2  1  4  9 29.9990000  0  9  2 24  5 13  7  4  9 26 12
  22361165.207     6461885.583 6   4931330.602 4
  22782149.756   -13391057.589 6 -10596695.485 4
  23986633.859    -4783697.264 5  -3577153.433 2
  20405084.444   -22352731.463 8 -17581717.823 7
  21746157.408    -2651448.731 8  -2225288.930 7
  21132176.369   -30924559.110 8 -16904378.085 7
  21510163.364   -26542775.479 8 -15538929.293 7
  24245343.298      807180.150 4    339353.111 2
  22330311.317   -25498624.212 7 -12715811.010 5
 94  2  1  4  9 59.9990000  0  9  2 24  5 13  7  4  9 26 12
  22371870.826     6518129.055 6   4975156.660 4
  22763013.404   -13491617.390 6 -10675053.767 4
  23971192.089    -4864861.337 5  -3640398.172 2
  20405179.538   -22352255.244 8 -17581346.742 7
  21758476.870    -2586695.886 8  -2174832.170 7
  21121599.751   -30980142.922 8 -16947690.131 7
  21499581.469   -26598380.440 8 -15582257.829 7
  24259381.560      880935.934 4    396825.121 2
  22315188.496   -25578109.675 7 -12777747.738 5
 94  2  1  4 10 29.9990000  0  9  2 24  5 13  7  4  9 26 12
  22382624.981     6574631.872 6   5019184.824 4
  22743921.571   -13591958.036 6 -10753241.268 4
  23955742.884    -4946024.167 5  -3703641.939 2
  20405366.189   -22351260.006 8 -17580571.230 7
  21770831.827    -2521763.775 8  -2124235.725 7
  21111123.413   -31035189.407 8 -16990583.497 7
  21489091.821   -26653508.455 8 -15625214.716 7
  24273424.888      954726.986 4    454324.657 2
  22300107.347   -25657349.644 7 -12839493.154 5
 94  2  1  4 10 59.9990000  0  9  2 24  5 13  7  4  9 26 12
  22393428.962     6631410.048 6   5063427.538 4
  22724867.691   -13692082.411 6 -10831260.227 4
  23940294.879    -5027198.774 5  -3766894.850 2
  20405654.170   -22349750.744 8 -17579395.181 8
  21783221.889    -2456667.254 8  -2073511.157 7
  21100748.406   -31089702.208 8 -17033060.997 7
  21478688.214   -26708171.283 8 -15667809.136 7
  24287468.725     1028561.105 4    511857.707 2
  22285078.751   -25736344.981 7 -12901047.942 5
 94  2  1  4 11 29.9990000  0  9  2 24  5 13  7  4  9 26 12
  22404283.907     6688464.021 6   5107885.152 4
  22705854.164   -13792001.669 6 -10909119.392 4
  23924842.976    -5108391.584 5  -3830161.959 2
  20406037.364   -22347726.137 8 -17577817.562 8
  21795637.164    -2391421.155 8  -2022670.051 7
  21090475.538   -31143689.277 8 -17075128.822 7
  21468377.032   -26762378.311 8 -15710048.362 7
  24301535.227     1102438.414 4    569424.454 2
  22270092.096   -25815090.589 7 -12962408.163 5
 94  2  1  4 11 59.9990000  0  9  2 24  5 13  7  4  9 26 12
  22415195.603     6745804.035 6   5152565.680 4
  22686884.377   -13891698.938 6 -10986805.567 4
  23909394.131    -5189592.737 5  -3893435.578 2
  20406522.758   -22345181.012 8 -17575834.339 8
  21808085.716    -2326008.433 8  -1971699.098 7
  21080300.222   -31197147.193 8 -17116784.339 7
  21458147.394   -26816124.994 8 -15751928.899 7
  24315598.731     1176360.735 4    627026.176 2
  22255157.545   -25893577.027 7 -13023566.409 5
 94  2  1  4 12 29.9990000  0  9  2 24  5 13  7  4  9 26 12
  22426158.803     6803420.272 6   5197461.434 4
  22667956.860   -13991172.293 6 -11064317.252 4
  23893950.143    -5270800.888 5  -3956714.589 2
  20407107.234   -22342119.267 8 -17573448.556 8
  21820565.957    -2260437.811 8  -1920605.108 7
  21070224.887   -31250094.442 8 -17158041.915 7
  21448008.772   -26869402.959 8 -15793444.197 7
  24329672.188     1250338.830 4    684671.467 2
  22240269.192   -25971804.672 7 -13084523.020 5
 94  2  1  4 12 59.9990000  0  9  2 24  5 13  7  4  9 26 12
  22437170.630     6861284.486 6   5242550.397 4
  22649062.201   -14090430.820 6 -11141661.536 4
  23878486.158    -5352020.569 5  -4020002.659 2
  20407786.174   -22338546.913 8 -17570664.887 8
  21833063.764    -2194725.766 8  -1869400.914 7
  21060245.096   -31302549.584 8 -17198916.038 7
  21437957.031   -26922214.528 8 -15834596.070 7
  24343760.575     1324375.130 4    742362.066 2
  22225432.823   -26049775.063 7 -13145279.163 5
 94  2  1  4 13 29.9990000  0  9  2 24  5 13  7  4  9 26 12
  22448229.014     6919382.573 6   5287821.608 4
  22630217.337   -14189462.893 6 -11218829.363 4
  23863033.236    -5433240.672 5  -4083291.025 2
  20408564.075   -22334462.822 9 -17567482.484 8
  21845597.907    -2128873.200 7  -1818087.226 7
  21050358.990   -31354507.751 8 -17239402.916 7
  21427999.934   -26974535.878 8 -15875365.961 7
  24357864.042     1398467.937 4    800096.714 2
  22210644.061   -26127483.271 7 -13205830.998 5
 94  2  1  4 13 59.9990000  0  9  2 24  5 13  7  4  9 26 12
  22459328.321     6977701.770 6   5333265.123 4
  22611417.202   -14288266.220 6 -11295818.982 4
  23847573.508    -5514466.584 5  -4146583.911 2
  20409438.570   -22329868.069 9 -17563902.149 8
  21858156.963    -2062879.050 7  -1766663.208 7
  21040567.019   -31405952.284 8 -17279489.557 7
  21418141.169   -27026350.988 8 -15915741.365 7
  24371980.159     1472633.491 4    857888.051 2
  22195909.082   -26204926.214 7 -13266176.150 5
 94  2  1  4 14 29.9990000  0  9  2 24  5 13  7  4  9 26 12
  22470461.443     7036226.202 6   5378868.556 4
  22592660.027   -14386839.847 6 -11372629.569 4
  23832111.023    -5595695.929 5  -4209879.513 2
  20410409.358   -22324762.054 9 -17559923.433 8
  21870741.621    -1996750.596 7  -1715134.548 7
  21030876.557   -31456865.231 8 -17319161.979 7
  21408375.340   -27077660.146 8 -15955722.523 7
  24386109.797     1546873.665 4    915737.520 2
  22181223.299   -26282099.091 7 -13326310.846 5
 94  2  1  4 14 59.9990000  0  9  2 24  5 13  7  4  9 26 12
  22481634.798     7094957.122 6   5424632.875 4
  22573949.140   -14485172.578 6 -11449252.474 4
  23816652.255    -5676939.168 5  -4273185.925 2
  20411481.385   -22319146.190 8 -17555547.424 8
  21883348.193    -1930491.451 7  -1663504.052 7
  21021291.293   -31507241.168 8 -17358415.942 7
  21398704.605   -27128479.635 8 -15995322.117 7
  24400246.181     1621165.242 4    973627.038 2
  22166590.579   -26358999.473 7 -13386233.209 6
 94  2  1  4 15 29.9990000  0  9  2 24  5 13  7  4  9 26 12
  22492855.130     7153904.760 6   5470566.094 4
  22555280.075   -14583268.888 6 -11525691.151 4
  23801196.485    -5758201.678 6  -4336507.324 2
  20412644.880   -22313025.753 8 -17550778.244 8
  21895981.957    -1864096.624 7  -1611767.833 7
  21011808.348   -31557086.304 8 -17397256.282 7
  21389125.547   -27178814.371 8 -16034543.989 7
  24414386.252     1695486.205 4   1031539.476 2
  22152007.564   -26435628.341 7 -13445944.023 5
 94  2  1  4 15 59.9990000  0  9  2 24  5 13  7  4  9 26 12
  22504116.175     7213091.219 6   5516685.372 4
  22536658.166   -14681129.762 6 -11601946.349 5
  23785724.975    -5839486.388 6  -4399846.065 2
  20413902.419   -22306401.497 8 -17545616.493 8
  21908645.310    -1797555.037 7  -1559917.241 7
  21002425.294   -31606398.095 8 -17435681.036 7
  21379640.863   -27228673.225 8 -16073395.052 7
  24428541.912     1769821.268 4   1089462.883 2
  22137477.223   -26511982.235 7 -13505440.548 6
 94  2  1  4 16 29.9990000  0  9  2 24  5 13  7  4  9 26 12
  22515430.432     7272531.053 6   5563002.104 4
  22518078.619   -14778750.351 6 -11678014.341 5
  23770255.804    -5920782.082 6  -4463193.313 2
  20415257.991   -22299277.747 8 -17540065.503 8
  21921333.457    -1730871.021 7  -1507955.676 7
  20993139.882   -31655186.567 8 -17473698.022 7
  21370241.350   -27278071.339 8 -16111887.073 7
  24442673.829     1844152.244 4   1147383.103 2
  22122998.807   -26588061.472 7 -13564723.057 5
 94  2  1  4 16 59.9990000  0  9  2 24  5 13  7  4  9 26 12
  22526786.840     7332242.926 6   5609530.833 4
  22499552.284   -14876130.595 6 -11753895.036 5
  23754788.702    -6002081.348 6  -4526543.373 2
  20416711.235   -22291653.549 8 -17534124.575 8
  21934052.302    -1664029.363 7  -1455871.274 6
  20983951.693   -31703468.341 8 -17511320.169 7
  21360927.368   -27327003.977 8 -16150016.408 7
  24456812.491     1918479.893 4   1205300.778 2
  22108576.361   -26663860.795 7 -13623787.477 5
 94  2  1  4 17 29.9990000  0  9  2 24  5 13  7  4  9 26 12
  22538208.813     7392222.016 6   5656267.756 4
  22481066.032   -14973277.798 6 -11829594.143 5
  23739316.503    -6083375.094 6  -4589889.134 2
  20418255.466   -22283531.027 8 -17527795.328 8
  21946803.584    -1597026.955 7  -1403661.612 6
  20974863.904   -31751242.073 8 -17548546.454 7
  21351708.540   -27375453.679 8 -16187769.430 7
  24470967.672     1992815.774 4   1263224.827 2
  22094205.420   -26739378.180 7 -13682632.186 6
 94  2  1  4 17 59.9990000  0  9  2 24  5 13  7  4  9 26 12
  22549666.281     7452452.325 6   5703200.438 4
  22462623.160   -15070182.141 6 -11905103.987 5
  23723845.893    -6164678.222 5  -4653242.204 2
  20419895.481   -22274922.567 8 -17521087.425 8
  21959581.668    -1529880.532 7  -1351339.725 6
  20965868.181   -31798507.413 8 -17585376.571 7
  21342579.769   -27423433.367 8 -16225156.195 7
  24485113.709     2067162.482 4   1321157.299 2
  22079888.591   -26814621.683 8 -13741263.482 5
 94  2  1  4 18 29.9990000  0  9  2 24  5 13  7  4  9 26 12
  22561170.906     7512920.321 6   5750318.319 4
  22444231.042   -15166837.364 6 -11980419.761 5
  23708373.904    -6245984.577 6  -4716597.773 2
  20421625.733   -22265826.514 8 -17513999.587 8
  21972389.581    -1462590.397 7  -1298905.868 6
  20956968.722   -31845263.714 8 -17621810.049 8
  21333538.599   -27470936.889 8 -16262171.925 7
  24499270.898     2141545.977 4   1379118.434 2
  22065622.907   -26889585.626 8 -13799676.945 5
 94  2  1  4 18 59.9990000  0  9  2 24  5 13  7  4  9 26 12
  22572727.096     7573625.551 6   5797621.085 4
  22425889.470   -15263227.266 6 -12055528.759 5
  23692899.697    -6327285.505 5  -4779949.121 2
  20423449.310   -22256234.966 8 -17506525.650 8
  21985221.508    -1395152.600 7  -1246356.922 6
  20948172.662   -31891499.157 8 -17657837.646 8
  21324594.950   -27517931.209 8 -16298790.879 7
  24513431.415     2215984.286 4   1437122.311 2
  22051414.094   -26964257.807 8 -13857863.050 6
 94  2  1  4 19 29.9990000  0  9  2 24  5 13  7  4  9 26 12
  22584325.407     7634565.441 6   5845106.692 3
  22407597.633   -15359337.537 7 -12130419.874 5
  23677424.320    -6408583.496 5  -4843298.188 2
  20425368.761   -22246151.101 8 -17498668.100 8
  21998076.129    -1327581.103 7  -1193703.832 6
  20939475.443   -31937200.940 8 -17693449.416 8
  21315753.501   -27564403.716 8 -16335003.220 7
  24527615.105     2290481.086 4   1495171.714 2
  22037258.763   -27038637.240 8 -13915821.073 5
 94  2  1  4 19 59.9990000  0  9  2 24  5 13  7  4  9 26 12
  22595960.592     7695744.790 6   5892778.900 3
  22389363.716   -15455160.340 7 -12205086.968 5
  23661965.882    -6489876.205 6  -4906643.134 2
  20427381.508   -22235575.576 8 -17490427.413 8
  22010960.309    -1259874.820 7  -1140945.676 6
  20930880.273   -31982368.957 8 -17728645.273 8
  21307009.035   -27610356.926 8 -16370810.917 7
  24541796.488     2365030.470 4   1553262.147 2
  22023163.751   -27112720.048 8 -13973547.913 6
 94  2  1  4 20 29.9990000  0  9  2 24  5 13  7  4  9 26 12
  22607651.209     7757161.088 6   5940635.729 3
  22371186.130   -15550700.101 7 -12279533.538 5
  23646495.392    -6571158.070 6  -4969979.647 2
  20429489.799   -22224506.688 8 -17481802.306 8
  22023875.758    -1192026.015 7  -1088076.487 6
  20922388.142   -32026991.960 8 -17763416.411 8
  21298363.740   -27655777.770 8 -16406203.774 7
  24555994.419     2439619.223 4   1611383.316 2
  22009121.442   -27186500.190 8 -14031038.935 6
 94  2  1  4 20 59.9990000  0  9  2 24  5 13  7  4  9 26 12
  22619386.495     7818806.189 6   5988670.861 3
  22353058.220   -15645955.615 7 -12353758.612 5
  23631026.041    -6652444.625 6  -5033319.818 2
  20431687.097   -22212948.237 8 -17472795.716 8
  22036811.293    -1124047.822 7  -1035106.463 6
  20914001.448   -32071065.363 8 -17797759.313 8
  21289823.312   -27700674.155 8 -16441187.981 7
  24570187.343     2514214.620 4   1669509.554 2
  21995139.002   -27259977.396 8 -14088293.911 6
 94  2  1  4 21 29.9990000  0  9  2 24  5 13  7  4  9 26 12
  22631160.723     7880679.980 6   6036884.169 3
  22334984.752   -15740935.310 7 -12427768.742 5
  23615550.455    -6733749.959 6  -5096674.592 2
  20433978.711   -22200903.283 8 -17463410.036 8
  22049773.929    -1055936.198 7   -982032.483 6
  20905718.422   -32114585.128 8 -17831670.813 8
  21281368.205   -27745073.992 8 -16475785.256 7
  24584371.903     2588799.697 4   1727626.960 2
  21981211.394   -27333150.172 8 -14145311.644 6
 94  2  1  4 21 59.9990000  0  9  2 24  5 13  7  4  9 26 12
  22642970.837     7942773.949 6   6085269.076 3
  22316959.011   -15835656.164 7 -12501577.184 5
  23600077.986    -6815075.314 5  -5160044.986 2
  20436360.202   -22188377.102 8 -17453649.361 8
  22062755.962     -987712.667 7   -928871.283 6
  20897541.643   -32157561.820 8 -17865159.130 8
  21273013.439   -27788996.987 8 -16510010.973 7
  24598566.717     2663353.688 4   1785721.011 2
  21967351.869   -27406019.532 8 -14202092.953 6
 94  2  1  4 22 29.9990000  0  9  2 24  5 13  7  4  9 26 12
  22654826.880     8005091.658 6   6133828.288 3
  22298985.613   -15930114.236 7 -12575180.879 5
  23584596.254    -6896400.225 5  -5223415.015 3
  20438839.186   -22175368.387 8 -17443512.712 8
  22075753.314     -919398.556 7   -875639.523 6
  20889468.352   -32199989.159 8 -17898219.388 8
  21264747.322   -27832440.004 8 -16543862.664 7
  24612747.320     2737881.521 4   1843794.597 2
  21953539.861   -27478579.891 8 -14258633.520 6
 94  2  1  4 22 59.9990000  0  9  2 24  5 13  7  4  9 26 12
  22666735.476     8067647.647 6   6182573.213 3
  22281057.845   -16024307.488 7 -12648578.193 5
  23569130.800    -6977710.054 5  -5286773.298 3
  20441404.960   -22161878.332 8 -17433000.977 8
  22088770.872     -851005.850 7   -822346.498 6
  20881494.802   -32241874.878 8 -17930857.596 8
  21256569.193   -27875399.991 8 -16577337.986 7
  24626926.364     2812388.800 4   1901852.218 2
  21939793.717   -27550827.798 8 -14314930.558 6
 94  2  1  4 23 29.9990000  0  9  2 24  5 13  7  4  9 26 12
  22678684.933     8130460.124 6   6231517.962 3
  22263187.906   -16118228.962 7 -12721763.738 5
  23553663.578    -7058983.360 5  -5350103.129 3
  20444064.269   -22147910.185 8 -17422116.695 8
  22101801.381     -782521.773 7   -768982.297 6
  20873628.787   -32283220.057 8 -17963074.584 8
  21248490.986   -27917863.337 8 -16610426.308 7
  24641096.774     2886885.624 4   1959901.636 2
  21926104.384   -27622762.521 8 -14370983.598 6
 94  2  1  4 23 59.9990000  0  9  2 24  5 13  7  4  9 26 12
  22690693.540     8193535.093 6   6280667.292 3
  22245368.182   -16211861.772 7 -12794724.340 5
  23538212.455    -7140200.043 6  -5413388.818 3
  20446811.117   -22133466.583 8 -17410861.933 8
  22114849.308     -713943.888 7   -715544.976 6
  20865862.964   -32324024.715 8 -17994870.429 8
  21240514.348   -27959804.659 8 -16643107.849 7
  24655274.918     2961371.794 4   2017942.850 2
  21912472.671   -27694381.953 8 -14426790.952 6
 94  2  1  4 24 29.9990000  0  9  2 24  5 13  7  4  9 26 12
  22702741.449     8256868.667 6   6330018.074 3
  22227609.376   -16305193.768 7 -12867450.589 5
  23522765.888    -7221366.713 6  -5476635.548 3
  20449649.013   -22118550.001 8 -17399238.628 8
  22127922.628     -645242.404 7   -662011.360 6
  20858204.376   -32364284.606 8 -18026241.762 8
  21232631.305   -28001203.284 8 -16675366.531 7
  24669441.641     3035846.462 4   2075974.980 2
  21898904.454   -27765684.234 8 -14482351.165 6
 94  2  1  4 24 59.9990000  0  9  2 24  5 13  7  4  9 26 12
  22714843.291     8320470.357 6   6379577.813 3
  22209908.610   -16398221.442 7 -12939939.659 5
  23507332.302    -7302507.474 6  -5539862.113 3
  20452577.565   -22103159.330 8 -17387245.889 8
  22141025.417     -576385.453 7   -608356.589 6
  20850646.967   -32404000.446 8 -18057189.150 8
  21224861.464   -28042050.593 8 -16707195.599 7
  24683612.201     3110300.728 4   2133991.366 2
  21885398.834   -27836663.949 8 -14537660.040 6
 94  2  1  4 25 29.9990000  0  9  2 24  5 13  7  4  9 26 12
  22726996.877     8384342.547 6   6429348.339 3
  22192264.145   -16490939.387 7 -13012187.407 5
  23491887.355    -7383632.903 6  -5603076.745 3
  20455599.773   -22087292.127 8 -17374881.832 8
  22154161.423     -507362.285 7   -554572.311 6
  20843190.709   -32443170.083 8 -18087710.950 8
  21217191.154   -28082348.108 8 -16738596.280 7
  24697785.189     3184730.732 4   2191988.736 2
  21871955.900   -27907313.996 8 -14592712.023 6
 94  2  1  4 25 59.9990000  0  8  2 24  5 13  7  4  9 12
  22739204.636     8448478.150 6   6479324.107 3
  22174676.191   -16583354.680 7 -13084199.279 5
  23476449.932    -7464753.499 6  -5666287.581 3
  20458707.122   -22070950.418 8 -17362148.030 8
  22167322.612     -438198.716 7   -500678.622 6
  20835841.537   -32481790.945 8 -18117805.112 8
  21209626.431   -28122107.883 8 -16769577.916 7
  21858575.893   -27977632.056 8 -14647505.300 6
 94  2  1  4 26 29.9990000  0  8  2 24  5 13  7  4  9 12
  22751458.923     8512866.478 6   6529496.790 2
  22157145.647   -16675476.467 7 -13155982.483 5
  23461002.706    -7545898.787 6  -5729517.641 3
  20461908.216   -22054138.764 8 -17349048.028 8
  22180507.964     -368910.649 7   -446687.919 6
  20828599.361   -32519856.582 8 -18147466.634 8
  21202158.271   -28161349.216 8 -16800155.591 7
  21845256.294   -28047618.231 8 -14702039.985 6
 94  2  1  4 26 59.9990000  0  8  2 24  5 13  7  4  9 12
  22763760.696     8577515.775 6   6579872.827 2
  22139673.353   -16767300.720 7 -13227533.833 5
  23445561.026    -7627065.147 6  -5792764.167 3
  20465197.149   -22036857.672 8 -17335582.248 8
  22193713.762     -299510.160 7   -392609.589 6
  20821463.671   -32557348.744 8 -18176681.302 8
  21194783.707   -28200093.556 8 -16830345.966 7
  21832001.420   -28117268.221 8 -14756312.694 6
 94  2  1  4 27 29.9990000  0  8  2 24  5 13  7  4  9 12
  22776110.257     8642411.989 6   6630441.302 2
  22122253.792   -16858831.818 7 -13298856.752 5
  23430116.798    -7708239.773 6  -5856017.093 3
  20468572.962   -22019115.071 8 -17321756.833 8
  22206936.738     -230020.984 7   -338462.215 6
  20814437.705   -32594262.165 8 -18205444.973 8
  21187504.686   -28238357.490 8 -16860162.038 7
  21818809.113   -28186585.865 8 -14810326.434 6
 94  2  1  4 27 59.9990000  0  8  2 24  5 13  7  4  9 12
  22788503.168     8707536.850 6   6681187.924 2
  22104894.730   -16950068.893 7 -13369950.561 6
  23414664.655    -7789421.334 6  -5919275.422 3
  20472036.344   -22000916.378 8 -17307576.040 8
  22220176.052     -160445.154 7   -284247.275 6
  20807525.480   -32630596.282 8 -18233757.279 8
  21180315.033   -28276142.767 8 -16889605.104 7
  21805684.319   -28255571.963 8 -14864081.839 6
 94  2  1  4 28 29.9990000  0  8  2 24  5 13  7  4  9 12
  22800933.432     8772892.184 6   6732114.137 2
  22087589.720   -17041000.403 7 -13440806.268 6
  23399215.270    -7870600.180 6  -5982531.667 3
  20475586.337   -21982255.905 8 -17293035.420 8
  22233441.988      -90748.061 7   -229937.870 6
  20800723.789   -32666349.420 8 -18261616.854 8
  21173219.815   -28313429.262 8 -16918659.527 7
  21792618.164   -28324216.133 8 -14917570.806 6
 94  2  1  4 28 59.9990000  0  8  2 24  5 13  7  4  9 12
  22813423.955     8838485.777 6   6783226.046 2
  22070347.696   -17131630.280 7 -13511426.935 6
  23383775.419    -7951753.569 6  -6045768.061 3
  20479222.160   -21963138.442 8 -17278138.678 8
  22246730.019      -20925.657 7   -175530.788 6
  20794024.327   -32701544.070 8 -18289041.244 8
  21166220.171   -28350201.424 8 -16947313.162 7
  21779626.119   -28392518.834 8 -14970793.674 6
 94  2  1  4 29 29.9990000  0  8  2 24  5 13  7  4  9 12
  22825949.344     8904319.045 5   6834524.636 2
  22053156.907   -17221952.949 7 -13581808.240 6
  23368336.737    -8032872.054 6  -6108977.247 3
  20482948.730   -21943560.999 8 -17262883.532 8
  22260036.367       49014.817 7   -121031.737 6
  20787431.171   -32736195.834 8 -18316042.612 9
  21159326.923   -28386428.127 8 -16975541.772 8
  21766690.044   -28460472.576 8 -15023744.658 6
 94  2  1  4 29 59.9990000  0  8  2 24  5 13  7  4  9 12
  22838520.391     8970382.547 5   6886002.680 2
  22036024.278   -17311966.884 7 -13651948.944 6
  23352904.800    -8113969.825 6  -6172170.301 3
  20486761.760   -21923532.051 8 -17247276.545 8
  22273368.138      119061.777 7    -66449.690 6
  20780940.125   -32770308.745 8 -18342624.083 9
  21152540.011   -28422094.600 8 -17003333.834 8
  21753823.132   -28528081.277 8 -15076426.755 6
 94  2  1  4 30 29.9990000  0  8  2 24  5 13  7  4  9 12
  22851136.138     9036698.887 5   6937677.717 2
  22018957.513   -17401667.666 7 -13721845.648 6
  23337477.451    -8195053.842 6  -6235352.612 3
  20490659.572   -21903053.859 8 -17231319.514 8
  22286715.438      189206.568 7    -11791.421 6
  20774550.678   -32803875.817 8 -18368780.240 9
  21145858.956   -28457194.220 8 -17030684.183 8
  21741025.501   -28595342.674 8 -15128838.214 6
 94  2  1  4 30 59.9990000  0  8  2 24  5 13  7  4  9 12
  22863806.596     9103277.029 5   6989556.778 2
  22001944.920   -17491052.459 7 -13791496.123 6
  23322046.473    -8276129.713 6  -6298528.642 3
  20494639.826   -21882129.383 9 -17215014.729 8
  22300076.169      259425.718 7     42924.793 6
  20768269.546   -32836882.816 8 -18394499.980 9
  21139287.266   -28491734.744 8 -17057598.894 8
  21728295.834   -28662254.917 8 -15180977.656 6
 94  2  1  4 31 29.9990000  0  8  2 24  5 13  7  4  9 12
  22876521.244     9170105.651 5   7041631.003 2
  21985001.790   -17580108.736 7 -13860890.612 6
  23306615.346    -8357213.099 6  -6361710.481 3
  20498708.699   -21860762.391 9 -17198365.119 8
  22313451.709      329711.628 7     97693.034 6
  20762101.256   -32869307.712 8 -18419766.120 9
  21132818.644   -28525723.394 8 -17084083.549 8
  21715626.275   -28728817.220 8 -15232844.378 6
 94  2  1  4 31 59.9990000  0  8  2 24  5 13  7  4  9 12
  22889293.872     9237193.634 5   7093907.361 2
  21968119.427   -17668826.832 7 -13930021.573 6
  23291186.137    -8438309.705 6  -6424902.616 3
  20502855.698   -21838953.352 9 -17181371.059 8
  22326846.016      400085.721 7    152530.003 6
  20756042.631   -32901140.563 8 -18444570.921 9
  21126455.819   -28559164.444 8 -17110141.515 8
  21703030.045   -28795025.699 8 -15284435.393 6
 94  2  1  4 32 29.9990000  0  8  2 24  5 13  7  4  9 12
  22902115.455     9304551.082 5   7146393.615 2
  21951299.212   -17757206.630 7 -13998888.932 6
  23275751.622    -8519414.203 6  -6488100.896 3
  20507089.817   -21816700.602 9 -17164031.256 8
  22340257.022      470562.284 7    207446.789 6
  20750098.256   -32932389.915 8 -18468921.054 9
  21120198.911   -28592053.813 8 -17135769.604 8
  21690498.750   -28860874.118 8 -15335745.853 6
 94  2  1  4 32 59.9990000  0  8  2 24  5 13  7  4  9 12
  22914973.854     9372154.283 5   7199071.416 2
  21934545.760   -17845247.113 7 -14067491.908 6
  23260323.643    -8600506.789 6  -6551289.934 3
  20511409.647   -21794006.278 9 -17146347.358 8
  22353685.625      541143.779 7    262445.351 5
  20744258.988   -32963059.174 8 -18492819.168 9
  21114047.049   -28624382.240 8 -17160960.585 8
  21678036.827   -28926359.748 8 -15386773.603 6
 94  2  1  4 33 29.9990000  0  8  2 24  5 13  7  4  9 12
  22927887.264     9439986.754 5   7251927.846 2
  21917860.151   -17932941.073 7 -14135824.840 6
  23244888.349    -8681576.909 6  -6614461.420 3
  20515812.249   -21770870.478 9 -17128319.457 8
  22367142.200      611850.169 7    317541.250 5
  20738534.541   -32993162.474 8 -18516276.275 9
  21107999.576   -28656145.113 8 -17185710.885 8
  21665646.585   -28991478.174 8 -15437515.237 6
 94  2  1  4 33 59.9990000  0  8  2 24  5 13  7  4  9 12
  22940833.861     9508049.135 5   7304963.421 2
  21901236.539   -18020304.409 7 -14203900.172 6
  23229475.209    -8762607.825 6  -6677602.382 3
  20520295.465   -21747295.151 9 -17109949.080 8
  22380620.629      682684.684 7    372736.972 5
  20732911.574   -33022709.494 8 -18539299.906 9
  21102064.135   -28687354.815 8 -17210030.128 8
  21653321.967   -29056226.907 8 -15487968.809 6
 94  2  1  4 34 29.9990000  0  8  2 24  5 13  7  4  9 12
  22953827.436     9576321.321 5   7358162.545 2
  21884670.008   -18107350.881 7 -14271728.582 6
  23214063.388    -8843588.273 6  -6740704.019 3
  20524867.420   -21723285.589 9 -17091240.323 8
  22394117.015      753624.721 7    428014.917 5
  20727394.583   -33051693.741 8 -18561885.034 9
  21096223.848   -28718029.520 8 -17233932.505 8
  21641070.888   -29120606.328 8 -15538134.580 6
 94  2  1  4 34 59.9990000  0  8  2 24  5 13  7  4  9 12
  22966856.446     9644798.082 5   7411521.005 2
  21868167.812   -18194067.389 7 -14339299.883 6
  23198664.399    -8924517.169 6  -6803765.491 3
  20529516.392   -21698845.682 9 -17072196.242 8
  22407638.375      824663.701 7    483369.959 5
  20721987.167   -33080103.808 8 -18584022.743 9
  21090484.501   -28748202.247 8 -17257443.721 8
  21628892.389   -29184615.878 8 -15588012.164 6
 94  2  1  4 35 29.9990000  0  8  2 24  5 13  7  4  9 12
  22979926.078     9713489.122 5   7465046.459 2
  21851724.256   -18280464.690 7 -14406622.428 6
  23183273.294    -9005402.674 6  -6866793.144 3
  20534248.016   -21673983.600 9 -17052823.180 8
  22421172.535      895789.088 7    538792.352 5
  20716687.586   -33107939.959 8 -18605713.226 9
  21084832.604   -28777894.407 8 -17280580.471 8
  21616782.873   -29248258.805 8 -15637604.045 6
 94  2  1  4 35 59.9990000  0  8  2 24  5 13  7  4  9 12
  22993047.395     9782418.599 5   7518757.705 2
  21835347.733   -18366538.128 7 -14473692.635 6
  23167886.086    -9086246.838 6  -6929788.572 3
  20539060.584   -21648697.905 9 -17033120.046 8
  22434717.158      966979.336 7    594265.266 5
  20711504.804   -33135191.727 8 -18626948.361 9
  21079275.052   -28807100.849 8 -17303338.738 8
  21604742.098   -29311529.541 8 -15686905.917 7
 94  2  1  4 36 29.9990000  0  8  2 24  5 13  7  4  9 12
  23006208.283     9851590.565 5   7572657.910 2
  21819034.677   -18452263.165 7 -14540491.357 6
  23152509.012    -9167066.549 6  -6992764.960 3
  20543952.448   -21622992.022 9 -17013089.470 8
  22448281.868     1038235.426 7    649789.483 5
  20706429.797   -33161867.461 8 -18647734.637 9
  21073812.143   -28835800.295 8 -17325701.955 8
  21592769.767   -29374426.679 8 -15735916.682 7
 94  2  1  4 36 59.9990000  0  8  2 24  5 13  7  4  9 12
  23019419.897     9921018.846 5   7626757.846 2
  21802793.540   -18537623.174 7 -14607005.636 6
  23137133.016    -9247859.667 6  -7055720.608 3
  20548927.114   -21596863.688 9 -16992729.730 8
  22461847.087     1109567.881 7    705373.215 5
  20701459.148   -33187982.222 8 -18668083.798 9
  21068454.013   -28863966.690 8 -17347649.794 8
  21580874.601   -29436943.074 8 -15784630.756 7
 94  2  1  4 37 29.9990000  0  8  2 24  5 13  7  4  9 12
  23032682.236     9990706.307 5   7681059.739 2
  21786617.129   -18622615.325 7 -14673233.281 6
  23121768.922    -9328631.187 6  -7118659.442 3
  20553976.638   -21570316.080 9 -16972043.272 8
  22475440.786     1180972.106 7    761012.867 5
  20696594.176   -33213545.900 8 -18688003.526 9
  21063200.839   -28891564.744 8 -17369154.766 8
  21569052.855   -29499077.422 8 -15833047.114 7
 94  2  1  4 37 59.9990000  0  8  2 24  5 13  7  4  9 12
  23045994.040    10060648.856 5   7735560.430 2
  21770514.766   -18707223.185 7 -14739161.476 6
  23106392.927    -9409391.407 6  -7181589.453 3
  20559107.376   -21543350.490 9 -16951031.132 8
  22489042.940     1252458.041 7    816716.182 5
  20691833.442   -33238562.740 8 -18707497.158 9
  21058062.097   -28918578.859 8 -17390204.736 8
  21557300.841   -29560826.449 8 -15881163.250 7
 94  2  1  4 38 29.9990000  0  8  2 24  5 13  7  4  9 12
  23059349.165    10130832.966 5   7790249.292 2
  21754489.930   -18791454.209 7 -14804796.029 6
  23091030.812    -9490126.783 6  -7244500.169 3
  20564318.039   -21515969.288 9 -16929695.113 8
  22502666.378     1324031.055 7    872487.358 5
  20687179.344   -33263022.050 8 -18726556.355 9
  21053033.618   -28945012.071 8 -17410802.055 8
  21545623.955   -29622187.663 8 -15928977.187 7
 94  2  1  4 38 59.9990000  0  8  2 24  5 13  7  4  9 12
  23072747.999    10201259.557 5   7845127.071 2
  21738529.639   -18875324.185 7 -14870149.243 6
  23075675.802    -9570828.476 6  -7307384.588 3
  20569607.907   -21488173.255 9 -16908035.869 7
  22516296.173     1395677.404 6    928315.677 5
  20682635.060   -33286903.139 8 -18745164.993 9
  21048111.236   -28970880.334 8 -17430959.135 8
  21534022.946   -29683157.290 8 -15976485.981 7
 94  2  1  4 39 29.9990000  0  8  2 24  5 13  7  4  9 12
  23086196.479    10271938.132 5   7900201.309 2
  21722635.752   -18958835.058 7 -14935222.641 6
  23060321.272    -9651498.839 6  -7370244.618 3
  20574974.192   -21459959.929 9 -16886051.458 7
  22529943.055     1467398.712 6    984202.411 5
  20678207.395   -33310188.598 8 -18763309.495 9
  21043294.350   -28996181.279 8 -17450674.161 8
  21522500.003   -29743728.146 8 -16023684.057 7
 94  2  1  4 39 59.9990000  0  8  2 24  5 13  7  4  9 12
  23099690.077    10342851.055 5   7955458.107 2
  21706809.768   -19042018.497 7 -15000040.910 6
  23044974.446    -9732137.037 6  -7433079.564 3
  20580420.761   -21431339.477 9 -16863749.813 7
  22543608.525     1539185.936 6   1040140.483 5
  20673887.266   -33332883.565 8 -18780993.875 9
  21038583.442   -29020939.641 8 -17469966.399 8
  21511044.334   -29803905.962 8 -16070575.859 7
 94  2  1  4 40 29.9990000  0  8  2 24  5 13  7  4  9 12
  23113231.883    10413994.988 5   8010894.846 2
  21691044.552   -19124870.770 7 -15064601.094 6
  23029640.062    -9812736.231 6  -7495884.122 3
  20585946.656   -21402308.769 9 -16841128.463 7
  22557279.630     1611038.620 6   1096129.602 5
  20669676.261   -33354978.742 8 -18798210.889 9
  21033975.692   -29045157.382 8 -17488837.363 8
  21499672.037   -29863682.793 8 -16117155.200 7
 94  2  1  4 40 59.9990000  0  8  2 24  5 13  7  4  9 12
  23126812.451    10485363.258 5   8066506.480 2
  21675341.603   -19207371.117 7 -15128887.073 6
  23014308.316    -9893311.958 6  -7558670.378 3
  20591548.608   -21372873.108 9 -16818191.582 7
  22570966.535     1682968.298 6   1152178.682 5
  20665588.621   -33376487.176 8 -18814970.694 9
  21029472.749   -29068819.275 8 -17507275.214 8
  21488370.131   -29923059.159 8 -16163422.495 7
 94  2  1  4 41 29.9990000  0  8  2 24  5 13  7  4  9 12
  23140436.429    10556949.838 5   8122288.231 2
  21659710.754   -19289509.683 7 -15192891.137 6
  22998982.566    -9973848.534 6  -7621426.142 3
  20597225.328   -21343031.867 9 -16794938.659 7
  22584671.008     1754993.999 6   1208302.606 5
  20661604.469   -33397418.255 8 -18831280.612 9
  21025078.571   -29091905.622 8 -17525264.550 8
  21477148.240   -29982029.898 8 -16209373.713 7
 94  2  1  4 41 59.9990000  0  8  2 24  5 13  7  4  9 12
  23154101.869    10628747.838 5   8178234.720 2
  21644149.487   -19371281.681 7 -15256609.577 6
  22983658.314   -10054346.247 6  -7684151.620 3
  20602980.324   -21312792.282 9 -16771375.351 7
  22598396.256     1827111.645 6   1264498.142 5
  20657731.690   -33417762.698 8 -18847133.420 9
  21020791.809   -29114420.337 8 -17542808.512 8
  21466003.425   -30040597.496 8 -16255010.818 7
 94  2  1  4 42 29.9990000  0  8  2 24  5 13  7  4  9 12
  23167800.346    10700771.612 5   8234357.076 2
  21628665.117   -19452657.410 7 -15320019.213 6
  22968354.059   -10134808.023 6  -7746849.097 3
  20608810.627   -21282150.556 9 -16747498.673 7
  22612137.873     1899324.954 6   1320768.259 5
  20653975.111   -33437510.040 8 -18862520.939 9
  21016623.045   -29136349.674 8 -17559896.315 8
  21454938.295   -30098753.432 8 -16300327.117 7
 94  2  1  4 42 59.9990000  0  8  2 24  5 13  7  4  9 12
  23181552.605    10773037.596 5   8290668.262 2
  21613248.260   -19533650.510 7 -15383130.710 6
  22953049.774   -10215235.222 6  -7809519.651 3
  20614719.357   -21251111.527 9 -16723312.412 7
  22625898.257     1971629.515 6   1377109.465 5
  20650331.043   -33456666.968 8 -18877448.416 9
  21012558.788   -29157701.925 8 -17576534.421 8
  21443949.433   -30156497.979 8 -16345322.863 7
 94  2  1  4 43 29.9990000  0  8  2 24  5 13  7  4  9 12
  23195350.583    10845563.707 5   8347182.078 2
  21597913.546   -19614277.071 7 -15445956.595 6
  22937750.106   -10295623.228 6  -7872159.622 3
  20620699.107   -21219678.717 9 -16698819.320 7
  22639670.962     2044006.346 6   1433506.982 5
  20646800.537   -33475225.460 8 -18891909.574 9
  21008598.110   -29178500.173 8 -17592740.861 8
  21433038.786   -30213829.964 8 -16389997.148 7
 94  2  1  4 43 59.9990000  0  8  2 24  5 13  7  4  9 12
  23209208.219    10918355.095 5   8403902.610 2
  21582642.567   -19694531.214 7 -15508492.289 6
  22922461.470   -10375982.617 6  -7934777.324 4
  20626758.392   -21187855.727 9 -16674022.171 7
  22653454.220     2116438.346 6   1489947.504 5
  20643382.424   -33493175.611 8 -18905896.689 9
  21004746.856   -29198756.665 8 -17608525.143 8
  21422206.115   -30270748.421 8 -16434349.193 7
 94  2  1  4 44 29.9990000  0  8  2 24  5 13  7  4  9 12
  23223112.654    10991413.168 5   8460830.946 2
  21567441.141   -19774409.701 7 -15570735.241 6
  22907173.913   -10456306.985 6  -7997367.733 4
  20632884.441   -21155643.212 9 -16648921.517 7
  22667248.780     2188930.950 6   1546435.242 5
  20640076.432   -33510541.205 8 -18919428.317 9
  21000995.254   -29218474.192 8 -17623889.460 8
  21411456.217   -30327249.290 8 -16478375.839 7
 94  2  1  4 44 59.9990000  0  8  2 24  5 13  7  4  9 12
  23237062.087    11064737.859 5   8517967.054 2
  21552307.108   -19853917.698 7 -15632689.512 6
  22891895.770   -10536585.602 6  -8059922.485 4
  20639087.687   -21123044.492 9 -16623519.914 7
  22681051.375     2261477.735 6   1602965.195 5
  20636886.461   -33527328.346 8 -18932509.188 9
  20997347.889   -29237648.031 8 -17638830.112 8
  21400783.426   -30383330.853 8 -16522075.758 7
 94  2  1  4 45 29.9990000  0  8  2 24  5 13  7  4  9 12
  23251061.105    11138308.819 5   8575295.043 2
  21537253.749   -19933035.202 7 -15694339.509 7
  22876632.677   -10616805.359 6  -8122431.391 4
  20645364.801   -21090061.158 9 -16597818.616 7
  22694866.501     2334070.246 6   1659530.780 5
  20633799.078   -33543536.595 8 -18945138.987 9
  20993803.562   -29256260.995 8 -17653333.722 8
  21390189.810   -30438990.554 8 -16565446.959 7
 94  2  1  4 45 59.9990000  0  8  2 24  5 13  7  4  9 12
  23265106.772    11212103.370 5   8632797.270 2
  21522274.350   -20011748.001 7 -15755674.139 7
  22861376.388   -10696973.830 6  -8184900.326 4
  20651717.763   -21056692.933 9 -16571817.394 7
  22708689.272     2406713.415 6   1716135.844 5
  20630824.597   -33559177.881 8 -18957326.995 9
  20990371.688   -29274293.843 8 -17667385.321 8
  21379683.823   -30494223.252 8 -16608485.425 7
 94  2  1  4 46 29.9990000  0  8  2 24  5 13  7  4  9 12
  23279195.039    11286115.513 5   8690469.027 2
  21507374.574   -20090051.573 7 -15816689.907 7
  22846128.974   -10777096.174 6  -8247333.293 4
  20658135.600   -21022943.163 9 -16545518.876 7
  22722528.321     2479412.682 7   1772784.618 5
  20627950.337   -33574268.275 8 -18969085.733 9
  20987051.636   -29291751.532 8 -17680988.700 8
  21369251.315   -30549027.512 8 -16651190.047 7
 94  2  1  4 46 59.9990000  0  8  2 24  5 13  7  4  9 12
  23293318.921    11360345.451 5   8748310.517 2
  21492552.386   -20167932.356 7 -15877376.210 7
  22830887.615   -10857166.660 6  -8309725.886 4
  20664631.683   -20988810.836 9 -16518922.256 7
  22736369.589     2552158.595 6   1829469.757 5
  20625189.548   -33588780.605 8 -18980394.027 9
  20983838.161   -29308632.357 8 -17694142.595 8
  21358905.567   -30603397.741 8 -16693556.466 7
 94  2  1  4 47 29.9990000  0  8  2 24  5 13  7  4  9 12
  23307477.279    11434785.968 5   8806316.051 2
  21477812.250   -20245388.000 7 -15937731.263 7
  22815666.733   -10937187.097 6  -8372079.475 4
  20671199.866   -20954297.376 9 -16492028.644 7
  22750225.547     2624959.999 6   1886198.121 4
  20622539.173   -33602705.167 8 -18991244.326 9
  20980735.519   -29324945.195 8 -17706853.887 8
  21348643.042   -30657330.732 8 -16735582.160 7
 94  2  1  4 47 59.9990000  0  8  2 24  5 13  7  4  9 12
  23321689.570    11509461.644 5   8864504.864 2
  21463153.328   -20322425.707 7 -15997760.629 7
  22800449.297   -11017158.473 6  -8434394.797 4
  20677842.098   -20919400.834 9 -16464836.521 7
  22764088.579     2697829.119 6   1942979.260 4
  20620002.959   -33616037.491 8 -19001633.150 9
  20977735.796   -29340698.446 8 -17719129.161 8
  21338466.137   -30710819.992 8 -16777262.114 7
 94  2  1  4 48 29.9990000  0  8  2 24  5 13  7  4  9 12
  23335949.348    11584385.887 5   8922887.393 2
  21448570.973   -20399064.011 7 -16057478.775 7
  22785242.355   -11097066.158 6  -8496660.536 4
  20684554.031   -20884128.268 9 -16437351.414 7
  22777966.302     2770768.357 6   1999815.000 4
  20617579.167   -33628769.348 8 -19011554.070 9
  20974843.818   -29355896.777 8 -17730972.033 8
  21328371.316   -30763867.916 8 -16818598.159 7
 94  2  1  4 48 59.9990000  0  8  2 24  5 13  7  4  9 12
  23350251.787    11659560.510 5   8981464.945 2
  21434062.158   -20475311.938 7 -16116892.732 7
  22770043.807   -11176907.025 6  -8558874.180 4
  20691338.484   -20848484.431 9 -16409577.009 7
  22791858.685     2843768.993 6   2056698.608 4
  20615272.474   -33640895.389 8 -19021002.926 9
  20972061.264   -29370527.541 8 -17742372.631 8
  21318360.766   -30816474.437 8 -16859590.255 7
 94  2  1  4 49 29.9990000  0  8  2 24  5 13  7  4  9 12
  23364607.109    11734992.319 5   9040242.969 2
  21419625.082   -20551182.667 7 -16176012.772 7
  22754863.126   -11256690.784 6  -8621043.325 4
  20698189.731   -20812472.762 9 -16381515.953 7
  22805766.716     2916838.046 6   2113635.544 4
  20613078.413   -33652432.025 8 -19029992.502 9
  20969384.807   -29384583.944 8 -17753325.679 8
  21308432.449   -30868638.387 8 -16900237.491 7
 94  2  1  4 49 59.9990000  0  8  2 24  5 13  7  4  9 12
  23379015.225    11810694.563 5   9099231.699 2
  21405262.745   -20626659.363 7 -16234825.768 7
  22739693.418   -11336416.838 6  -8683167.534 4
  20705112.719   -20776089.389 9 -16353165.278 7
  22819682.153     2989985.339 6   2170633.415 4
  20610990.508   -33663379.105 8 -19038522.687 9
  20966823.680   -29398043.853 8 -17763813.933 8
  21298593.650   -30920351.239 8 -16940533.227 7
 94  2  1  4 50 29.9990000  0  8  2 24  5 13  7  4  9 12
  23393467.709    11886655.955 5   9158422.377 2
  21390975.746   -20701727.212 7 -16293320.198 7
  22724530.215   -11416089.151 6  -8745249.838 4
  20712104.568   -20739339.290 9 -16324528.830 7
  22833618.725     3063199.987 6   2227683.802 4
  20609025.099   -33673742.370 8 -19046597.950 9
  20964373.896   -29410899.927 8 -17773831.640 8
  21288835.496   -30971613.527 8 -16980477.861 7
 94  2  1  4 50 59.9990000  0  8  2 24  5 13  7  4  9 12
  23407974.666    11962866.562 5   9217807.225 2
  21376773.408   -20776366.954 7 -16351481.015 7
  22709380.683   -11495719.037 6  -8807299.098 4
  20719167.559   -20702230.749 9 -16295613.090 7
  22847556.826     3136459.624 6   2284769.222 4
  20607156.732   -33683535.359 8 -19054228.838 9
  20962043.759   -29423159.512 8 -17783384.576 8
  21279170.007   -31022428.714 8 -17020074.117 7
 94  2  1  4 51 29.9990000  0  8  2 24  5 13  7  4  9 12
  23422519.607    12039324.580 5   9277384.834 2
  21362649.645   -20850578.399 7 -16409308.112 7
  22694238.226   -11575294.794 6  -8869306.188 4
  20726295.454   -20664763.547 9 -16266417.862 7
  22861513.214     3209775.015 6   2341898.090 4
  20605402.557   -33692751.259 8 -19061410.056 9
  20959824.875   -29434821.371 8 -17792471.754 8
  21269584.623   -31072792.317 8 -17059318.484 7
 94  2  1  4 51 59.9990000  0  8  2 24  5 13  7  4  9 12
  23437111.855    12116008.265 5   9337138.390 2
  21348609.555   -20924359.157 7 -16466799.579 7
  22679110.968   -11654801.580 6  -8931259.506 4
  20733492.991   -20626945.555 9 -16236949.294 7
  22875471.221     3283135.650 6   2399062.214 4
  20603761.133   -33701392.840 8 -19068143.735 9
  20957718.713   -29445897.269 8 -17801102.320 8
  21260082.311   -31122707.304 8 -17098213.273 7
 94  2  1  4 52 29.9990000  0  8  2 24  5 13  7  4  9 12
  23451744.095    12192904.812 5   9397057.739 2
  21334652.867   -20997709.597 7 -16523955.783 7
  22663998.310   -11734220.255 7  -8993144.166 4
  20740755.973   -20588773.077 9 -16207204.512 7
  22889438.791     3356536.007 6   2456257.285 4
  20602228.084   -33709452.236 8 -19074423.780 9
  20955718.618   -29456399.183 8 -17809285.642 8
  21250671.916   -31172165.416 8 -17136752.072 7
 94  2  1  4 52 59.9990000  0  8  2 24  5 13  7  4  9 12
  23466417.617    12270010.498 5   9457140.046 2
  21320774.095   -21070644.658 7 -16580788.263 7
  22648899.563   -11813549.542 6  -9054959.212 4
  20748089.077   -20550245.500 9 -16177183.023 7
  22903415.385     3429995.431 6   2513498.387 4
  20600809.496   -33716909.047 8 -19080234.285 9
  20953826.208   -29466330.681 8 -17817024.481 8
  21241350.079   -31221161.232 8 -17174930.629 8
 94  2  1  4 53 29.9990000  0  8  2 24  5 13  7  4  9 12
  23481128.943    12347314.598 5   9517376.985 2
  21306972.430   -21143179.545 7 -16637308.961 7
  22633818.653   -11892788.024 6  -9116703.466 4
  20755488.045   -20511366.157 9 -16146887.422 7
  22917410.417     3503526.672 6   2570795.451 4
  20599505.129   -33723758.439 8 -19085571.464 9
  20952048.169   -29475698.444 8 -17824324.037 8
  21232112.754   -31269694.010 8 -17212748.380 8
 94  2  1  4 53 59.9990000  0  8  2 24  5 13  7  4  9 12
  23495881.190    12424822.947 5   9577773.056 2
  21293245.533   -21215296.907 7 -16693504.295 7
  22618757.470   -11971947.964 6  -9178386.560 4
  20762952.157   -20472136.870 9 -16116319.157 7
  22931415.641     3577114.393 6   2628136.508 4
  20598316.033   -33730002.931 8 -19090437.299 9
  20950368.192   -29484511.064 8 -17831191.018 8
  21222968.874   -31317760.621 8 -17250202.893 8
 94  2  1  4 54 29.9990000  0  8  2 24  5 13  7  4  9 12
  23510673.190    12502556.934 5   9638344.951 2
  21279605.006   -21286991.042 7 -16749369.838 7
  22603707.079   -12051038.496 7  -9240015.523 4
  20770487.291   -20432555.243 9 -16085476.313 7
  22945425.093     3650765.802 6   2685527.223 4
  20597245.084   -33735631.463 8 -19094823.160 9
  20948797.579   -29492763.168 8 -17837621.237 8
  21213913.313   -31365354.078 8 -17287288.694 8
 94  2  1  4 54 59.9990000  0  8  2 24  5 13  7  4  9 12
  23525510.578    12580539.344 5   9699110.443 2
  21266043.085   -21358256.657 7 -16804901.476 7
  22588666.582   -12130071.257 7  -9301599.468 4
  20778083.372   -20392628.414 9 -16054364.516 7
  22959450.823     3724468.586 6   2742957.942 4
  20596291.174   -33740650.758 8 -19098734.303 9
  20947334.892   -29500451.827 8 -17843612.413 8
  21204944.872   -31412477.236 8 -17324008.043 8
 94  2  1  4 55 29.9990000  0  8  2 24  5 13  7  4  9 12
  23540396.832    12658774.600 5   9760072.977 2
  21252565.765   -21429067.163 7 -16860078.491 7
  22573640.984   -12209031.624 6  -9363127.045 4
  20785746.937   -20352357.990 9 -16022984.949 7
  22973483.238     3798194.802 6   2800406.925 4
  20595444.321   -33745076.297 8 -19102182.768 9
  20945981.539   -29507571.885 8 -17849160.512 8
  21196067.298   -31459126.807 8 -17360358.363 8
 94  2  1  4 55 59.9990000  0  8  2 24  5 13  7  4  9 12
  23555338.399    12737275.354 5   9821242.339 2
  21239182.460   -21499413.501 7 -16914893.802 7
  22558629.026   -12287919.058 6  -9424597.771 4
  20793472.558   -20311748.496 9 -15991341.191 7
  22987517.603     3871945.721 6   2857875.187 4
  20594715.825   -33748914.696 8 -19105173.713 9
  20944737.910   -29514111.896 8 -17854256.619 8
  21187279.362   -31505303.184 8 -17396339.947 8
 94  2  1  4 56 29.9990000  0  8  2 24  5 13  7  4  9 12
  23570327.692    12816038.599 5   9882616.265 2
  21225881.598   -21569307.185 7 -16969356.399 7
  22543632.688   -12366727.841 7  -9486007.208 4
  20801264.554   -20270801.679 8 -15959434.577 7
  23001563.749     3945737.711 6   2915375.430 4
  20594096.034   -33752169.774 8 -19107710.135 9
  20943602.476   -29520058.133 8 -17858890.064 8
  21178583.372   -31551003.137 8 -17431950.310 8
 94  2  1  4 56 59.9990000  0  8  2 24  5 13  7  4  9 12
  23585362.673    12895042.833 5   9944178.013 2
  21212668.065   -21638744.363 7 -17023463.276 7
  22528657.335   -12445458.905 7  -9547356.084 4
  20809121.095   -20229521.165 9 -15927267.946 7
  23015609.715     4019569.779 6   2972906.879 4
  20593588.216   -33754853.637 8 -19109801.441 9
  20942585.160   -29525405.351 8 -17863056.735 8
  21169979.118   -31596226.100 8 -17467188.976 8
 94  2  1  4 57 29.9990000  0  8  2 24  5 13  7  4  9 12
  23600430.692    12974258.223 5  10005904.234 2
  21199537.576   -21707745.058 7 -17077230.052 7
  22513682.822   -12524123.049 6  -9608652.795 4
  20817037.145   -20187915.363 9 -15894847.832 7
  23029671.780     4093455.848 6   3030480.439 4
  20593182.746   -33756972.122 8 -19111452.217 9
  20941684.583   -29530155.558 8 -17866758.191 8
  21161461.925   -31640975.959 8 -17502058.988 8
 94  2  1  4 57 59.9990000  0  8  2 24  5 13  7  4  9 12
  23615550.305    13053682.250 4  10067793.049 2
  21186484.732   -21776331.059 7 -17130673.669 7
  22498716.792   -12602736.224 6  -9669909.816 4
  20825017.740   -20145981.229 9 -15862171.893 7
  23043743.768     4167421.778 6   3088116.227 4
  20592889.489   -33758514.427 8 -19112654.001 9
  20940894.301   -29534307.639 8 -17869993.589 8
  21153037.757   -31685245.022 8 -17536554.373 8
 94  2  1  4 58 29.9990000  0  8  2 24  5 13  7  4  9 12
  23630696.839    13133298.732 5  10129831.832 2
  21173512.952   -21844501.948 7 -17183793.835 7
  22483773.068   -12681299.398 7  -9731127.866 4
  20833062.431   -20103717.859 9 -15829239.404 7
  23057833.354     4241453.642 6   3145803.371 4
  20592708.295   -33759477.796 8 -19113404.668 9
  20940213.892   -29537867.690 8 -17872767.656 8
  21144704.516   -31729027.797 8 -17570670.823 8
 94  2  1  4 58 59.9990000  0  8  2 24  5 13  7  4  9 12
  23645879.858    13213106.682 5  10192019.803 2
  21160621.996   -21912244.687 7 -17236580.373 7
  22468835.339   -12759807.541 7  -9792303.045 5
  20841167.530   -20061125.205 9 -15796050.316 7
  23071928.786     4315539.784 6   3203532.819 4
  20592633.766   -33759856.208 8 -19113699.530 9
  20939650.432   -29540842.887 8 -17875086.014 8
  21136469.217   -31772320.265 8 -17604405.211 8
 94  2  1  4 59 29.9990000  0  8  2 24  5 13  7  4  9 12
  23661113.602    13293123.102 5  10254370.216 2
  21147812.884   -21979563.502 7 -17289036.583 7
  22453904.895   -12838251.294 7  -9853428.039 5
  20849331.658   -20018207.483 9 -15762607.928 7
  23086038.278     4389674.369 6   3261300.016 4
  20592678.435   -33759642.613 8 -19113533.078 9
  20939195.976   -29543233.780 8 -17876949.047 8
  21128322.537   -31815121.841 8 -17637757.092 8
 94  2  1  4 59 59.9990000  0  8  2 24  5 13  7  4  9 12
  23676380.653    13373352.843 5  10316886.868 2
  21135083.636   -22046441.620 7 -17341149.395 8
  22438993.278   -12916613.188 7  -9914489.254 5
  20857559.132   -19974971.308 9 -15728917.409 7
  23100148.310     4463827.452 6   3319081.638 4
  20592827.252   -33758838.591 8 -19112906.577 9
  20938851.005   -29545047.062 8 -17878362.001 8
  21120271.670   -31857434.687 8 -17670728.141 8
 94  2  1  5  0 29.9990000  0  8  2 24  5 13  7  4  9 12
  23691688.835    13453811.161 4  10379581.670 2
  21122449.363   -22112849.903 7 -17392896.114 8
  22424100.158   -12994875.030 7  -9975472.504 5
  20865846.265   -19931416.850 9 -15694978.882 7
  23114262.389     4537993.982 6   3376873.708 4
  20593093.858   -33757441.784 8 -19111818.148 9
  20938617.107   -29546282.762 8 -17879324.891 8
  21112311.821   -31899254.591 8 -17703315.082 8
 94  2  1  5  0 59.9990000  0  8  2 24  5 13  7  4  9 12
  23707052.269    13534514.514 4  10442467.372 2
  21109898.941   -22178786.641 7 -17444275.370 8
  22409227.215   -13073033.270 7 -10036375.016 5
  20874195.695   -19887548.694 9 -15660795.889 7
  23128377.368     4612180.162 6   3434681.103 4
  20593472.855   -33755455.061 8 -19110270.043 9
  20938490.415   -29546948.253 8 -17879843.457 8
  21104448.924   -31940581.603 8 -17735517.951 8
 94  2  1  5  1 29.9990000  0  8  2 24  5 13  7  4  9 12
  23722455.666    13615476.358 4  10505554.465 2
  21097443.314   -22244249.837 7 -17495285.638 8
  22394376.456   -13151080.068 7 -10097190.713 5
  20882603.644   -19843367.416 9 -15626368.916 7
  23142498.941     4686395.759 6   3492511.470 4
  20593962.566   -33752875.153 8 -19108259.716 9
  20938468.230   -29547045.273 8 -17879919.052 8
  21096677.314   -31981412.205 8 -17767334.002 8
 94  2  1  5  1 59.9990000  0  8  2 24  5 13  7  4  9 12
  23737916.382    13696685.764 4  10568834.510 2
  21085074.746   -22309242.973 7 -17545929.635 8
  22379544.404   -13229020.057 7 -10157923.161 5
  20891069.544   -19798875.275 9 -15591699.714 7
  23156627.920     4760644.209 6   3550367.385 4
  20594565.419   -33749710.487 8 -19105793.742 9
  20938558.767   -29546571.381 8 -17879549.806 8
  21089004.936   -32021743.994 8 -17798761.371 8
 94  2  1  5  2 29.9990000  0  8  2 24  5 13  7  4  9 12
  23753403.811    13778139.371 4  10632304.860 2
  21072794.468   -22373783.727 7 -17596221.104 8
  22364733.457   -13306870.646 7 -10218585.966 5
  20899596.750   -19754078.475 9 -15556793.126 7
  23170770.120     4834937.054 6   3608257.905 4
  20595273.049   -33745973.337 8 -19102881.665 9
  20938757.320   -29545529.727 8 -17878738.119 8
  21081424.054   -32061578.911 8 -17829801.574 8
 94  2  1  5  2 59.9990000  0  8  2 24  5 13  7  4  9 12
  23768949.009    13859826.771 4  10695957.255 2
  21060594.204   -22437895.069 7 -17646178.003 8
  22349933.813   -13384617.989 7 -10279168.296 5
  20908175.581   -19708977.079 9 -15521649.180 7
  23184914.538     4909273.525 6   3666182.418 4
  20596098.378   -33741670.015 8 -19099528.431 9
  20939068.505   -29543909.613 8 -17877475.710 8
  21073938.896   -32100912.510 8 -17860451.137 8
 94  2  1  5  3 29.9990000  0  8  2 24  5 13  7  4  9 12
  23784538.876    13941730.712 5  10759778.515 2
  21048475.903   -22501578.091 7 -17695801.120 8
  22335158.631   -13462261.183 7 -10339669.484 5
  20916817.758   -19663570.277 9 -15486267.247 7
  23199067.770     4983646.053 6   3724135.019 4
  20597025.246   -33736789.697 8 -19095725.577 9
  20939488.933   -29541695.770 8 -17875750.639 8
  21066551.620   -32139739.782 8 -17890706.155 9
 94  2  1  5  3 59.9990000  0  8  2 24  5 13  7  4  9 12
  23800156.445    14023832.089 5  10823753.610 2
  21036441.125   -22564824.427 7 -17745083.957 8
  22320404.436   -13539810.426 7 -10400097.459 5
  20925516.716   -19617861.141 9 -15450649.741 7
  23213227.387     5058044.521 6   3782107.848 3
  20598062.798   -33731332.363 8 -19091473.102 9
  20940022.834   -29538895.095 8 -17873568.295 8
  21059257.669   -32178059.392 8 -17920565.594 8
 94  2  1  5  4 29.9990000  0  8  2 24  5 13  7  4  9 12
  23815819.941    14106136.988 5  10887887.307 2
  21024490.498   -22627622.826 7 -17794017.776 8
  22305664.480   -13617264.982 7 -10460451.654 5
  20934273.534   -19571852.969 9 -15414799.208 7
  23227385.596     5132466.838 6   3840099.290 3
  20599211.423   -33725285.386 8 -19086761.172 9
  20940660.013   -29535524.249 8 -17870941.676 8
  21052066.578   -32215870.484 8 -17950028.782 9
 94  2  1  5  4 59.9990000  0  8  2 24  5 13  7  4  9 12
  23831524.389    14188646.605 5  10952180.460 2
  21012628.850   -22689952.460 7 -17842586.310 8
  22290939.244   -13694628.384 7 -10520734.807 5
  20943081.167   -19525547.163 9 -15378716.760 7
  23241551.359     5206907.802 6   3898105.205 3
  20600479.035   -33718631.940 8 -19081576.655 9
  20941413.631   -29531575.777 8 -17867864.938 8
  21044966.233   -32253169.860 8 -17979093.229 9
 94  2  1  5  5 29.9990000  0  8  2 24  5 13  7  4  9 12
  23847263.253    14271375.120 5  11016644.276 2
  21000866.463   -22751779.979 7 -17890763.592 8
  22276232.655   -13771920.444 7 -10580962.390 5
  20951948.938   -19478947.405 9 -15342405.264 7
  23255718.801     5281373.412 6   3956130.330 3
  20601865.305   -33711363.370 8 -19075912.833 9
  20942272.327   -29527054.674 8 -17864342.012 8
  21037965.510   -32289957.172 8 -18007758.684 8
 94  2  1  5  5 59.9990000  0  8  2 24  5 13  7  4  9 12
  23863054.431    14354339.332 5  11081291.656 2
  20989194.103   -22813106.376 8 -17938550.375 8
  22261536.949   -13849140.169 7 -10641133.603 5
  20960871.571   -19432058.745 9 -15305868.641 7
  23269898.385     5355875.486 6   4014183.913 3
  20603359.921   -33703494.096 8 -19069780.932 9
  20943241.256   -29521961.481 8 -17860373.297 8
  21031062.099   -32326233.185 8 -18036025.699 8
 94  2  1  5  6 29.9990000  0  8  2 24  5 13  7  4  9 12
  23878885.871    14437547.895 5  11146129.434 1
  20977618.877   -22873937.706 8 -17985951.414 8
  22246862.138   -13926269.196 7 -10701234.146 5
  20969851.104   -19384878.497 9 -15269104.823 7
  23284082.255     5430420.049 6   4072270.581 3
  20604974.423   -33695025.846 8 -19063182.288 9
  20944324.406   -29516273.321 7 -17855940.974 8
  21024258.069   -32361990.822 8 -18063888.789 9
 94  2  1  5  6 59.9990000  0  8  2 24  5 13  7  4  9 12
  23894763.989    14520990.921 4  11211149.985 1
  20966137.125   -22934274.649 7 -18032967.201 8
  22232202.616   -14003299.734 7 -10761257.943 5
  20978882.982   -19337409.565 9 -15232116.034 7
  23298278.957     5505003.634 5   4130387.634 3
  20606692.234   -33685982.486 8 -19056135.516 9
  20945522.616   -29509992.326 7 -17851046.705 8
  21017552.851   -32397228.919 8 -18091347.064 8
 94  2  1  5  7 29.9990000  0  8  2 24  5 13  7  4  9 12
  23910688.605    14604656.051 5  11276343.586 1
  20954744.862   -22994130.856 7 -18079608.387 8
  22217571.455   -14080208.953 7 -10821187.175 5
  20987970.980   -19289655.435 9 -15194905.022 7
  23312473.081     5579625.893 6   4188534.811 3
  20608518.420   -33676393.653 8 -19048663.690 9
  20946826.294   -29503137.740 7 -17845705.475 8
  21010944.166   -32431946.775 8 -18118399.938 8
 94  2  1  5  7 59.9990000  0  8  2 24  5 13  7  4  9 12
  23926651.864    14688517.572 4  11341690.167 1
  20943442.237   -23053525.907 7 -18125890.233 8
  22202955.194   -14156985.229 7 -10881012.851 5
  20997112.372   -19241618.734 9 -15157473.827 7
  23326683.213     5654281.332 6   4246707.892 3
  20610443.837   -33666266.496 8 -19040772.395 9
  20948237.447   -29495720.881 7 -17839926.102 8
  21004438.520   -32466142.668 8 -18145046.077 8
 94  2  1  5  8 29.9990000  0  8  2 24  5 13  7  4  9 12
  23942639.496    14772565.311 4  11407181.867 1
  20932230.868   -23112454.655 8 -18171808.721 8
  22188373.019   -14233636.674 7 -10940741.245 5
  21006305.178   -19193306.095 9 -15119827.617 7
  23340893.406     5728961.168 5   4304899.968 3
  20612471.873   -33655608.954 8 -19032467.795 9
  20949749.270   -29487760.926 7 -17833723.552 8
  20998028.807   -32499819.187 8 -18171287.531 8
 94  2  1  5  8 59.9990000  0  8  2 24  5 13  7  4  9 12
  23958673.985    14856808.804 4  11472826.114 1
  20921106.409   -23170911.139 8 -18217359.221 8
  22173808.712   -14310164.328 7 -11000373.170 5
  21015552.366   -19144720.137 9 -15081968.420 7
  23355115.560     5803665.723 5   4363111.265 3
  20614599.979   -33644420.307 8 -19023749.372 9
  20951370.938   -29479256.613 7 -17827096.821 8
  20991720.724   -32532974.679 8 -18197122.995 8
 94  2  1  5  9 29.9990000  0  8  2 24  5 13  7  4  9 12
  23974746.428    14941264.578 4  11538635.825 1
  20910072.218   -23228892.057 8 -18262539.156 8
  22159267.608   -14386576.914 7 -11059915.445 5
  21024849.799   -19095862.060 9 -15043897.196 7
  23369334.986     5878393.217 6   4421340.492 3
  20616834.542   -33632670.638 8 -19014593.794 9
  20953096.963   -29470180.808 8 -17820024.780 8
  20985510.104   -32565605.286 8 -18222550.209 8
 94  2  1  5  9 59.9990000  0  8  2 24  5 13  7  4  9 12
  23990857.995    15025949.756 4  11604624.206 1
  20899131.772   -23286388.980 8 -18307341.926 8
  22144747.820   -14462892.933 7 -11119382.466 5
  21034199.247   -19046729.970 8 -15005612.454 7
  23383547.217     5953135.362 5   4479581.128 3
  20619184.436   -33620329.804 8 -19004977.551 9
  20954933.282   -29460517.646 7 -17812495.053 8
  20979402.852   -32597707.953 8 -18247564.506 8
 94  2  1  5 10 29.9990000  0  8  2 24  5 13  7  4  9 12
  24007016.089    15110875.761 5  11670800.288 1
  20888281.054   -23343399.275 8 -18351765.536 8
  22130241.702   -14539107.640 7 -11178770.534 5
  21043596.571   -18997329.444 8 -14967118.533 7
  23397782.592     6027881.431 6   4537824.788 3
  20621647.291   -33607396.387 8 -18994899.549 9
  20956888.168   -29450256.264 7 -17804499.161 8
  20973396.210   -32629281.267 8 -18272167.078 8
 94  2  1  5 10 59.9990000  0  8  2 24  5 13  7  4  9 12
  24023223.229    15196035.806 4  11737158.793 1
  20877522.972   -23399929.663 8 -18395815.184 8
  22115760.528   -14615217.681 7 -11238077.062 5
  21053051.036   -18947663.281 8 -14928417.625 7
  23411999.560     6102624.708 6   4596066.303 3
  20624221.549   -33593857.182 8 -18984349.521 9
  20958954.668   -29439395.753 7 -17796036.437 8
  20967487.780   -32660324.776 8 -18296356.834 8
 94  2  1  5 11 29.9990000  0  8  2 24  5 13  7  4  9 12
  24039477.436    15281424.966 4  11803695.757 1
  20866858.904   -23455975.786 8 -18439487.463 8
  22101295.871   -14691224.588 7 -11297303.216 5
  21062552.658   -18897726.533 8 -14889505.884 7
  23426228.340     6177377.044 6   4654314.816 3
  20626917.792   -33579709.953 8 -18973325.706 9
  20961134.788   -29427938.503 8 -17787108.730 8
  20961680.441   -32690829.675 8 -18320126.898 8
 94  2  1  5 11 59.9990000  0  8  2 24  5 13  7  4  9 12
  24055770.916    15367024.105 4  11870396.267 1
  20856283.635   -23511549.672 8 -18482791.790 8
  22086858.466   -14767114.406 7 -11356438.134 5
  21072105.335   -18847524.220 8 -14850387.189 7
  23440457.389     6252148.757 6   4712578.496 3
  20629721.781   -33564978.938 8 -18961846.981 9
  20963427.811   -29415894.585 7 -17777723.851 8
  20955981.056   -32720796.959 8 -18343478.026 8
 94  2  1  5 12 29.9990000  0  8  2 24  5 13  7  4  9 12
  24072092.577    15452831.909 4  11937259.551 1
  20845801.092   -23566651.412 8 -18525728.202 8
  22072435.541   -14842871.114 7 -11415469.335 6
  21081708.947   -18797064.038 9 -14811067.577 6
  23454688.177     6326952.694 6   4770867.309 3
  20632625.511   -33549688.878 8 -18949932.656 9
  20965829.538   -29403263.863 8 -17767881.745 8
  20950380.154   -32750230.269 8 -18366413.073 8
 94  2  1  5 12 59.9990000  0  8  2 24  5 13  7  4  9 12
  24088464.213    15538855.311 4  12004290.737 1
  20835404.140   -23621270.083 8 -18568288.205 8
  22058049.340   -14918493.277 7 -11474395.693 6
  21091359.745   -18746343.837 8 -14771545.345 7
  23468929.338     6401801.016 6   4829190.628 3
  20635640.943   -33533840.734 8 -18937583.452 9
  20968349.953   -29390035.113 8 -17757573.643 8
  20944879.622   -32779123.348 8 -18388927.188 8
 94  2  1  5 13 29.9990000  0  8  2 24  5 13  7  4  9 12
  24104871.105    15625102.069 4  12071495.957 1
  20825106.869   -23675390.248 8 -18610459.752 8
  22043684.755   -14993961.820 7 -11533202.364 6
  21101064.477   -18695359.372 8 -14731817.193 6
  23483185.429     6476706.455 6   4887558.486 3
  20638764.930   -33517439.286 8 -18924803.098 9
  20970980.242   -29376198.491 8 -17746791.859 8
  20939487.135   -32807468.146 8 -18411014.038 8
 94  2  1  5 13 59.9990000  0  8  2 24  5 13  7  4  9 12
  24121330.281    15711566.045 3  12138870.420 1
  20814902.893   -23729010.650 8 -18652241.879 8
  22029355.425   -15069271.721 7 -11591885.388 6
  21110809.411   -18644120.795 8 -14691891.039 6
  23497450.813     6551658.499 6   4945962.661 3
  20641990.967   -33500484.652 8 -18911591.694 9
  20973728.470   -29361773.099 8 -17735551.311 8
  20934193.130   -32835270.701 8 -18432678.371 8
 94  2  1  5 14 29.9990000  0  8  2 24  5 13  7  4  9 12
  24137818.566    15798248.656 3  12206415.388 1
  20804797.279   -23782126.130 8 -18693630.556 8
  22015050.528   -15144427.801 7 -11650448.572 6
  21120612.055   -18592625.604 8 -14651764.920 6
  23511721.594     6626643.656 6   5004392.645 3
  20645328.107   -33482959.615 8 -18897935.814 9
  20976582.854   -29346767.407 8 -17723858.566 8
  20929010.048   -32862524.756 8 -18453915.310 8
 94  2  1  5 14 59.9990000  0  8  2 24  5 13  7  4  9 12
  24154349.842    15885125.952 3  12274111.848 1
  20794783.671   -23834749.075 8 -18734635.430 8
  22000777.709   -15219451.159 7 -11708908.322 6
  21130457.419   -18540880.048 8 -14611443.701 6
  23525992.494     6701647.416 6   5062837.111 3
  20648774.101   -33464849.097 8 -18883823.722 9
  20979540.936   -29331202.099 8 -17711729.773 8
  20923926.587   -32889232.571 8 -18474726.594 8
 94  2  1  5 15 29.9990000  0  8  2 24  5 13  7  4  9 12
  24170927.615    15972183.952 4  12341949.214 1
  20784858.292   -23886891.532 8 -18775265.929 8
  21986524.766   -15294347.407 7 -11767269.032 6
  21140354.137   -18488887.047 8 -14570929.683 6
  23540269.990     6776670.099 6   5121296.379 3
  20652329.730   -33446155.894 8 -18869257.591 9
  20982608.712   -29315096.968 8 -17699180.334 8
  20918947.574   -32915393.450 8 -18495111.702 8
 94  2  1  5 15 59.9990000  0  8  2 24  5 13  7  4  9 12
  24187517.740    16059422.825 4  12409927.553 1
  20775026.628   -23938557.168 8 -18815524.839 8
  21972294.667   -15369131.854 7 -11825542.616 6
  21150292.437   -18436647.343 8 -14530223.408 6
  23554547.246     6851697.190 6   5179759.016 3
  20655999.699   -33426873.610 8 -18854232.424 9
  20985775.060   -29298444.712 8 -17686204.547 8
  20914074.478   -32941003.889 8 -18515067.875 8
 94  2  1  5 16 29.9990000  0  8  2 24  5 13  7  4  9 12
  24204156.671    16146858.141 4  12478058.989 1
  20765289.789   -23989728.769 8 -18855398.803 8
  21958085.194   -15443807.464 7 -11883731.407 6
  21160281.672   -18384157.161 8 -14489321.986 6
  23568828.550     6926736.227 6   5238230.993 3
  20659782.360   -33407006.891 8 -18838751.861 9
  20989049.873   -29281234.492 8 -17672793.993 8
  20909306.608   -32966056.484 8 -18534589.384 8
 94  2  1  5 16 59.9990000  0  8  2 24  5 13  7  4  9 12
  24220824.502    16234496.897 4  12546348.792 1
  20755646.035   -24040392.775 8 -18894877.260 8
  21943896.467   -15518372.216 7 -11941833.821 6
  21170314.286   -18331423.907 8 -14448231.141 6
  23583109.793     7001794.385 5   5296717.811 3
  20663667.371   -33386581.491 8 -18822835.977 9
  20992431.802   -29263467.396 8 -17658949.520 8
  20904647.264   -32990554.872 8 -18553679.046 8
 94  2  1  5 17 29.9990000  0  8  2 24  5 13  7  4  9 12
  24237558.228    16322348.339 4  12614804.478 1
  20746106.699   -24090533.215 8 -18933947.720 8
  21929728.395   -15592809.100 7 -11999836.575 6
  21180398.195   -18278446.754 8 -14406950.236 6
  23597389.657     7076868.219 5   5355216.908 3
  20667654.730   -33365622.446 8 -18806504.231 9
  20995919.917   -29245134.845 8 -17644664.419 8
  20900091.318   -33014494.098 8 -18572332.995 8
 94  2  1  5 17 59.9990000  0  8  2 24  5 13  7  4  9 12
  24254309.611    16410421.241 4  12683432.685 1
  20736666.684   -24140139.081 8 -18972601.636 8
  21915589.493   -15667108.322 7 -12057732.069 6
  21190527.283   -18225226.835 8 -14365480.173 6
  23611679.894     7151949.984 5   5413722.184 3
  20671746.238   -33344126.261 8 -18789753.953 9
  20999518.356   -29226230.587 8 -17629933.815 8
  20895641.289   -33037871.952 8 -18590549.508 8
 94  2  1  5 18 29.9990000  0  8  2 24  5 13  7  4  9 12
  24271118.644    16498702.235 4  12752223.101 1
  20727329.019   -24189219.878 8 -19010846.415 8
  21901481.050   -15741258.717 7 -12115511.605 6
  21200697.083   -18171772.108 8 -14323827.152 6
  23625969.951     7227048.264 5   5472240.285 2
  20675936.527   -33322111.308 8 -18772599.466 9
  21003223.011   -29206768.397 8 -17614768.532 8
  20891297.176   -33060692.703 8 -18608331.918 9
 94  2  1  5 18 59.9990000  0  8  2 24  5 13  7  4  9 12
  24287945.905    16587168.284 4  12821157.589 1
  20718083.689   -24237802.152 8 -19048702.712 8
  21887401.657   -15815254.610 7 -12173170.720 6
  21210912.391   -18118087.472 8 -14281994.955 6
  23640264.865     7302141.885 6   5530754.778 2
  20680226.017   -33299575.128 8 -18755038.781 9
  21007034.812   -29186740.571 8 -17599162.416 8
  20887059.879   -33082957.199 8 -18625680.891 9
 94  2  1  5 19 29.9990000  0  8  2 24  5 13  7  4  9 12
  24304819.154    16675806.683 4  12890226.439 1
  20708931.295   -24285893.693 8 -19086176.638 8
  21873347.926   -15889104.877 7 -12230716.397 6
  21221172.008   -18064181.014 8 -14239989.913 6
  23654551.385     7377219.406 5   5589256.741 2
  20684613.960   -33276507.174 8 -18737063.766 9
  21010951.331   -29166141.047 8 -17583110.850 8
  20882930.448   -33104670.115 8 -18642600.040 9
 94  2  1  5 19 59.9990000  0  8  2 24  5 13  7  4  9 12
  24321717.765    16764625.627 3  12959436.056 1
  20699874.055   -24333493.635 8 -19123267.497 8
  21859321.896   -15962798.873 7 -12288140.284 6
  21231471.468   -18010048.995 8 -14197809.132 6
  23668834.187     7452302.003 5   5647762.640 2
  20689112.346   -33252873.799 8 -18718648.138 9
  21014987.317   -29144955.728 8 -17566602.821 8
  20878905.045   -33125824.060 8 -18659083.637 9
 94  2  1  5 20 29.9990000  0  8  2 24  5 13  7  4  9 12
  24338649.713    16853635.523 4  13028794.403 1
  20690911.250   -24380583.526 8 -19159960.900 8
  21845331.662   -16036331.351 7 -12345438.321 6
  21241816.916   -17955686.337 8 -14155448.623 6
  23683121.246     7527400.438 5   5706280.893 2
  20693717.068   -33228667.152 8 -18699785.823 9
  21019131.258   -29123174.628 7 -17549630.541 8
  20874987.417   -33146410.296 8 -18675124.872 9
 94  2  1  5 20 59.9990000  0  7 24  5 13  7  4  9 12
  20682050.674   -24427149.385 8 -19196245.984 8
  21831369.487   -16109699.697 8 -12402608.457 6
  21252204.065   -17901093.136 8 -14112908.450 6
  23697423.715     7602523.158 5   5764818.077 2
  20698435.561   -33203872.321 8 -18680465.164 9
  21023388.731   -29100794.723 7 -17532191.660 8
  20871179.213   -33166425.264 8 -18690720.948 9
 94  2  1  5 21 29.9990000  0  7 24  5 13  7  4  9 12
  20673291.908   -24473182.829 7 -19232116.192 8
  21817441.250   -16182895.111 7 -12459643.845 6
  21262640.410   -17846273.407 8 -14070191.797 6
  23711724.655     7677684.969 5   5823385.686 2
  20703263.059   -33178488.560 8 -18660685.622 9
  21027762.313   -29077826.934 7 -17514294.703 8
  20867481.393   -33185869.648 8 -18705872.423 9
 94  2  1  5 21 59.9990000  0  7 24  5 13  7  4  9 12
  20664631.683   -24518696.795 7 -19267581.609 8
  21803543.801   -16255923.975 8 -12516549.459 6
  21273111.112   -17791231.361 8 -14027301.890 6
  23726034.138     7752876.939 5   5881976.805 2
  20708210.204   -33152522.394 8 -18640452.229 9
  21032235.426   -29054298.255 8 -17495960.673 8
  20863887.601   -33204743.595 8 -18720579.402 9
 94  2  1  5 22 29.9990000  0  7 24  5 13  7  4  9 12
  20656068.741   -24563685.916 7 -19302638.063 9
  21789676.661   -16328798.518 8 -12573334.813 6
  21283631.548   -17735964.718 8 -13984236.976 6
  23740346.200     7828092.899 5   5940586.609 2
  20713253.163   -33125989.705 8 -18619777.402 9
  21036816.975   -29030219.029 7 -17477197.642 8
  20860406.261   -33223041.694 8 -18734837.672 9
 94  2  1  5 22 59.9990000  0  7 24  5 13  7  4  9 12
  20647602.152   -24608174.426 7 -19337304.413 9
  21775836.622   -16401527.709 8 -12630006.888 6
  21294186.192   -17680484.593 8 -13941005.693 6
  23754658.172     7903326.310 5   5999210.077 2
  20718409.983   -33098909.580 8 -18598675.995 9
  21041501.801   -29005606.552 7 -17458019.087 8
  20857028.799   -33240771.499 8 -18748653.089 9
 94  2  1  5 23 29.9990000  0  7 24  5 13  7  4  9 12
  20639230.058   -24652159.586 7 -19371578.566 9
  21762022.395   -16474119.023 7 -12686571.549 6
  21304785.234   -17624791.938 8 -13897608.827 6
  23768982.556     7978565.181 5   6057837.766 2
  20723663.366   -33071292.839 8 -18577156.455 9
  21046284.720   -28980464.546 8 -17438427.934 8
  20853765.918   -33257930.591 8 -18762023.825 9
 94  2  1  5 23 59.9990000  0  7 24  5 13  7  4  9 12
  20630959.894   -24695643.359 7 -19405462.023 9
  21748232.422   -16546590.648 8 -12743042.952 6
  21315420.431   -17568894.180 8 -13854052.137 6
  23783307.389     8053808.577 5   6116468.966 2
  20729016.011   -33043161.627 8 -18555236.041 9
  21051172.057   -28954796.420 8 -17418426.807 8
  20850610.153   -33274522.920 8 -18774952.914 9
 94  2  1  5 24 29.9990000  0  7 24  5 13  7  4  9 12
  20622780.146   -24738624.369 7 -19438953.687 9
  21734467.151   -16618923.523 8 -12799406.222 6
  21326094.842   -17512797.288 8 -13810340.274 6
  23797615.134     8129061.885 5   6175107.878 2
  20734466.358   -33014530.255 8 -18532925.876 9
  21056155.657   -28928589.501 7 -17398005.835 8
  20847558.266   -33290550.937 8 -18787442.284 9
 94  2  1  5 24 59.9990000  0  7 24  5 13  7  4  9 12
  20614699.061   -24781091.212 7 -19472044.754 9
  21720734.978   -16691087.047 8 -12855637.546 6
  21336810.833   -17456497.534 8 -13766470.347 6
  23811945.723     8204331.072 5   6233759.139 2
  20740010.839   -32985387.612 8 -18510217.335 9
  21061249.700   -28901826.871 7 -17377151.852 8
  20844619.700   -33306007.674 8 -18799486.510 9
 94  2  1  5 25 29.9990000  0  7 24  5 13  7  4  9 12
  20606715.288   -24823038.139 7 -19504730.650 9
  21707034.163   -16763079.024 8 -12911735.187 7
  21347559.922   -17399997.778 8 -13722444.554 6
  23826271.426     8279610.450 5   6292418.439 2
  20745656.891   -32955722.894 8 -18487101.966 9
  21066451.429   -28874499.323 8 -17355857.669 8
  20841785.942   -33320892.776 8 -18811085.297 9
 94  2  1  5 25 59.9990000  0  7 24  5 13  7  4  9 12
  20598833.504   -24864468.233 8 -19537013.818 9
  21693370.972   -16834885.613 8 -12967688.360 7
  21358349.692   -17343302.659 8 -13678266.534 6
  23840598.657     8354895.483 5   6351082.081 2
  20751397.407   -32925536.826 8 -18463580.341 9
  21071758.355   -28846611.288 7 -17334126.734 8
  20839060.529   -33335207.155 8 -18822239.357 9
 94  2  1  5 26 29.9990000  0  7 24  5 13  7  4  9 12
  20591047.025   -24905377.766 8 -19568891.375 9
  21679742.557   -16906498.548 8 -13023490.645 7
  21369176.457   -17286415.356 8 -13633938.769 6
  23854916.505     8430174.604 5   6409741.151 2
  20757246.717   -32894814.466 8 -18439640.829 9
  21077172.247   -28818167.380 7 -17311962.652 8
  20836446.458   -33348950.978 8 -18832948.834 9
 94  2  1  5 26 59.9990000  0  7 24  5 13  7  4  9 12
  20583363.974   -24945751.951 8 -19600351.777 9
  21666150.326   -16977923.294 8 -13079146.286 7
  21380035.629   -17229333.325 8 -13589459.273 6
  23869238.430     8505448.596 5   6468396.160 2
  20763196.878   -32863548.183 8 -18415277.521 9
  21082689.088   -28789171.203 7 -17289368.248 8
  20833939.354   -33362118.415 8 -18843209.191 9
 94  2  1  5 27 29.9990000  0  7 24  5 13  7  4  9 12
  20575781.983   -24985597.628 8 -19631400.334 9
  21652594.341   -17049164.883 8 -13134659.210 7
  21390936.743   -17172057.179 8 -13544828.501 6
  23883566.051     8580720.838 6   6527049.825 2
  20769249.358   -32831740.084 8 -18390491.966 9
  21088312.415   -28759629.848 7 -17266349.012 8
  20831543.802   -33374706.734 8 -18853018.269 9
 94  2  1  5 27 59.9990000  0  7 24  5 13  7  4  9 12
  20568302.760   -25024910.113 8 -19662033.440 9
  21639073.491   -17120215.818 8 -13190023.586 7
  21401873.771   -17114585.609 8 -13500045.478 6
  23897894.122     8656002.872 5   6585711.134 2
  20775404.157   -32799399.508 8 -18365291.528 9
  21094035.663   -28729547.886 7 -17242908.534 8
  20829258.424   -33386711.538 8 -18862372.666 9
 94  2  1  5 28 29.9990000  0  7 24  5 13  7  4  9 12
  20560919.442   -25063696.441 8 -19692256.518 9
  21625586.668   -17191086.766 8 -13245247.673 7
  21412844.436   -17056922.060 8 -13455112.842 6
  23912220.514     8731301.839 5   6644385.647 2
  20781661.365   -32766527.801 8 -18339677.198 9
  21099862.729   -28698921.831 7 -17219044.080 8
  20827086.308   -33398133.248 8 -18871272.701 9
 94  2  1  5 28 59.9990000  0  7 24  5 13  7  4  9 12
  20553639.192   -25101959.990 8 -19722072.268 9
  21612134.830   -17261779.515 8 -13300332.943 7
  21423856.593   -16999069.104 8 -13410032.601 6
  23926551.463     8806618.660 5   6703074.067 2
  20788011.809   -32733138.681 8 -18313659.700 9
  21105791.964   -28667753.716 7 -17194757.245 8
  20825024.635   -33408971.071 8 -18879717.767 9
 94  2  1  5 29 29.9990000  0  7 24  5 13  7  4  9 12
  20546456.404   -25139711.043 8 -19751488.674 9
  21598715.011   -17332294.618 8 -13355279.767 7
  21434901.067   -16941026.562 8 -13364804.661 6
  23940889.727     8881952.813 5   6761776.009 2
  20794465.051   -32699230.655 8 -18287237.861 9
  21111829.904   -28636032.113 7 -17170039.137 8
  20823072.957   -33419221.878 8 -18887705.402 9
 94  2  1  5 29 59.9990000  0  7 24  5 13  7  4  9 12
  20539371.649   -25176937.951 7 -19780496.638 9
  21585330.087   -17402629.015 8 -13410085.790 7
  21445981.576   -16882793.960 8 -13319428.599 6
  23955228.410     8957299.611 5   6820487.802 2
  20801016.206   -32664803.892 8 -18260411.821 9
  21117971.093   -28603751.220 7 -17144885.183 8
  20821232.711   -33428882.113 8 -18895232.870 9
 94  2  1  5 30 29.9990000  0  7 24  5 13  7  4  9 12
  20532387.624   -25213643.916 8 -19809098.678 9
  21571983.686   -17472781.052 8 -13464749.708 7
  21457097.461   -16824374.376 8 -13273906.856 6
  23969565.235     9032645.610 5   6879198.952 2
  20807666.202   -32629858.350 8 -18233181.515 9
  21124223.384   -28570906.580 7 -17119291.983 8
  20819509.264   -33437951.532 8 -18902299.972 9
 94  2  1  5 30 59.9990000  0  7 24  5 13  7  4  9 12
  20525502.920   -25249826.507 8 -19837292.898 9
  21558667.265   -17542750.108 8 -13519271.057 7
  21468252.228   -16765772.922 8 -13228243.380 6
  23983903.949     9107969.473 5   6937892.852 2
  20814411.773   -32594404.163 8 -18205554.876 9
  21130577.755   -28537498.358 7 -17093259.605 8
  20817892.273   -33446432.442 8 -18908908.466 9
 94  2  1  5 31 29.9990000  0  7 24  5 13  7  4  9 12
  20518714.450   -25285485.195 7 -19865078.874 9
  21545389.038   -17612530.636 8 -13573645.478 7
  21479436.166   -16706990.023 8 -13182438.532 6
  23998231.960     9183273.645 5   6996571.396 2
  20821257.833   -32558435.629 8 -18177527.444 9
  21137045.418   -28503530.781 7 -17066791.372 8
  20816392.981   -33454322.291 8 -18915056.418 9
 94  2  1  5 31 59.9990000  0  7 24  5 13  7  4  9 12
  20512029.977   -25320616.749 7 -19892454.104 9
  21532150.532   -17682113.576 8 -13627865.958 7
  21490656.858   -16648025.420 8 -13136492.081 6
  24012563.088     9258563.760 5   7055239.004 2
  20828198.898   -32521951.885 8 -18149098.551 9
  21143614.620   -28469019.195 7 -17039899.232 8
  20815005.362   -33461617.872 8 -18920741.284 9
 94  2  1  5 32 29.9990000  0  7 24  5 13  7  4  9 12
  20505442.068   -25355227.823 7 -19919423.766 9
  21518945.994   -17751500.773 8 -13681933.907 7
  21501913.105   -16588884.317 8 -13090408.117 6
  24026878.838     9333849.551 5   7113903.251 2
  20835240.993   -32484949.402 8 -18120265.458 9
  21150281.285   -28433975.732 7 -17012592.649 8
  20813728.606   -33468321.608 8 -18925964.979 9
 94  2  1  5 32 59.9990000  0  7 24  5 13  7  4  9 12
  20498959.925   -25389306.481 7 -19945978.558 9
  21505779.019   -17820689.240 8 -13735846.984 7
  21513199.482   -16529566.139 8 -13044186.149 6
  24041205.380     9409145.480 5   7172575.400 2
  20842384.358   -32447416.873 8 -18091019.326 9
  21157043.823   -28398413.212 7 -16984881.611 8
  20812567.749   -33474430.005 8 -18930724.778 9
 94  2  1  5 33 29.9990000  0  7 24  5 13  7  4  9 12
  20492573.537   -25422865.204 8 -19972128.228 9
  21492647.210   -17889684.327 8 -13789609.394 7
  21524517.996   -16470078.450 8 -12997832.116 6
  24055538.187     9484462.960 5   7231264.275 2
  20849628.303   -32409349.885 8 -18061356.735 9
  21163909.640   -28362343.113 7 -16956775.041 8
  20811517.726   -33479947.610 8 -18935024.209 9
 94  2  1  5 33 59.9990000  0  7 24  5 13  7  4  9 12
  20486288.747   -25455897.321 8 -19997867.505 9
  21479557.492   -17958480.777 8 -13843217.020 7
  21535872.036   -16410421.294 8 -12951346.024 6
  24069877.021     9559798.963 5   7289967.644 2
  20856974.207   -32370747.964 8 -18031277.317 9
  21170873.639   -28325757.172 7 -16928266.533 8
  20810580.605   -33484871.738 8 -18938861.201 9
 94  2  1  5 34 29.9990000  0  7 24  5 13  7  4  9 12
  20480105.108   -25488388.490 7 -20023185.302 9
  21466503.419   -18027078.337 8 -13896669.658 7
  21547254.346   -16350599.132 8 -12904731.344 5
  24084218.552     9635143.940 5   7348678.017 2
  20864419.643   -32331618.153 8 -18000786.546 9
  21177933.572   -28288647.981 7 -16899350.287 7
  20809755.936   -33489203.969 8 -18942236.966 9
 94  2  1  5 34 59.9990000  0  8 24  5 13  7  4  9 20 12
  20474024.088   -25520339.374 8 -20048082.091 9
  21453486.041   -18095478.089 8 -13949968.173 7
  21558669.843   -16290617.051 8 -12857992.060 5
  24098547.882     9710481.738 5   7407382.787 2
  20871961.312   -32291975.340 8 -17969896.050 9
  21185098.911   -28251010.113 7 -16870022.091 7
  24405763.442    -8121644.30915   -203166.023
  20809042.969   -33492946.648 8 -18945153.357 9
 94  2  1  5 35 29.9990000  0  8 24  5 13  7  4  9 20 12
  20468049.524   -25551743.602 7 -20072552.911 9
  21440510.483   -18163667.784 8 -14003102.990 7
  21570116.939   -16230472.693 8 -12811126.332 5
  24112888.485     9785813.921 5   7466083.126 2
  20879601.403   -32251835.367 8 -17938618.154 9
  21192363.302   -28212827.518 7 -16840269.440 7
  24387028.931    -8220061.510 5   -279854.838 1
  20808445.213   -33496094.830 8 -18947606.493 9
 94  2  1  5 35 59.9990000  0  8 24  5 13  7  4  9 20 12
  20462178.868   -25582587.490 7 -20096587.106 9
  21427579.146   -18231636.049 8 -14056065.293 7
  21581591.345   -16170167.530 8 -12764135.298 5
  24127218.834     9861142.909 4   7524781.064 2
  20887330.922   -32211203.968 8 -17906957.322 9
  21199731.991   -28174104.901 7 -16810095.977 7
  24368293.821    -8318491.336 5   -356553.298 1
  20807959.879   -33498647.189 8 -18949595.348 9
 94  2  1  5 36 29.9990000  0  8 24  5 13  7  4  9 20 12
  20456414.279   -25612872.881 7 -20120186.112 9
  21414687.231   -18299387.427 8 -14108858.557 7
  21593095.461   -16109703.444 8 -12717020.436 5
  24141563.004     9936481.571 4   7583486.483 2
  20895160.152   -32170079.880 8 -17874912.564 9
  21207204.168   -28134843.820 7 -16779502.937 7
  24349553.465    -8416932.346 5   -433260.620 1
  20807589.605   -33500603.181 8 -18951119.499 9
 94  2  1  5 36 59.9990000  0  8 24  5 13  7  4  9 20 12
  20450758.005   -25642606.026 7 -20143354.781 9
  21401835.787   -18366915.799 8 -14161478.067 7
  21604636.631   -16049073.729 8 -12669776.483 5
  24155902.497    10011847.512 4   7642213.134 2
  20903081.148   -32128451.683 8 -17842475.011 9
  21214778.305   -28095038.832 7 -16748486.065 7
  24330827.649    -8515374.296 5   -509968.669 1
  20807331.784   -33501953.113 8 -18952171.407 9
 94  2  1  5 37 29.9990000  0  8 24  5 13  7  4  9 20 12
  20445201.142   -25671802.847 8 -20166105.548 9
  21389026.585   -18434223.500 8 -14213925.631 7
  21616199.566   -15988288.958 8 -12622411.740 5
  24170247.146    10087243.059 4   7700962.894 2
  20911096.489   -32086321.861 8 -17809646.589 9
  21222453.111   -28054709.767 7 -16717060.841 7
  24312101.173    -8613824.340 5   -586682.966 1
  20807190.582   -33502705.070 8 -18952757.354 9
 94  2  1  5 37 59.9990000  0  8 24  5 13  7  4  9 20 12
  20439744.679   -25700477.407 7 -20188449.334 9
  21376256.655   -18501322.337 8 -14266210.439 7
  21627795.629   -15927353.015 8 -12574929.183 5
  24184595.903    10162660.613 4   7759729.794 2
  20919213.370   -32043678.545 8 -17776418.023 9
  21230225.561   -28013868.222 7 -16685236.265 7
  24293364.684    -8712282.984 5   -663403.950 1
  20807156.915   -33502860.587 8 -18952878.537 9
 94  2  1  5 38 29.9990000  0  8 24  5 13  7  4  9 20 12
  20434386.788   -25728632.981 8 -20210388.737 9
  21363528.067   -18568216.560 8 -14318335.798 7
  21639420.831   -15866264.827 8 -12527327.993 5
  24198953.893    10238088.586 4   7818504.836 2
  20927423.186   -32000534.174 8 -17742799.028 9
  21238095.922   -27972506.861 7 -16653006.643 7
  24274623.428    -8810745.775 5   -740128.204 2
  20807241.127   -33502416.100 8 -18952532.188 9
 94  2  1  5 38 59.9990000  0  8 24  5 13  7  4  9 20 12
  20429129.268   -25756269.755 8 -20231923.886 9
  21350838.662   -18634891.787 8 -14370290.517 7
  21651070.526   -15805026.634 8 -12479609.918 5
  24213312.902    10313517.656 4   7877280.692 2
  20935724.380   -31956898.394 8 -17708797.123 9
  21246062.877   -27930631.653 7 -16620376.616 7
  24255882.592    -8909211.192 5   -816854.494 2
  20807443.247   -33501371.125 8 -18951717.926 9
 94  2  1  5 39 29.9990000  0  8 24  5 13  7  4  9 20 12
  20423969.270   -25783380.659 8 -20253049.251 9
  21338195.754   -18701343.451 8 -14422071.048 7
  21662756.526   -15743642.306 8 -12431777.988 5
  24227658.571    10388938.317 4   7936050.015 2
  20944123.245   -31912774.769 8 -17674415.082 9
  21254128.613   -27888250.419 7 -16587352.282 7
  24237144.904    -9007680.047 5   -893583.437 2
  20807750.054   -33499727.216 8 -18950436.971 9
 94  2  1  5 39 59.9990000  0  8 24  5 13  7  4  9 20 12
  20418910.452   -25809959.839 8 -20273760.296 9
  21325593.649   -18767577.354 8 -14473681.882 7
  21674465.400   -15682114.659 8 -12383834.353 5
  24242002.951    10464341.882 4   7994805.993 2
  20952609.141   -31868171.283 8 -17639659.105 9
  21262287.315   -27845364.627 7 -16553934.807 7
  24218412.432    -9106151.784 5   -970314.672 2
  20808181.006   -33497484.680 8 -18948689.538 9
 94  2  1  5 40 29.9990000  0  8 24  5 13  7  4  9 20 12
  20413956.562   -25836009.862 8 -20294059.014 9
  21313030.726   -18833578.663 8 -14525111.461 7
  21686199.307   -15620445.132 7 -12335780.191 5
  24256353.056    10539737.615 4   8053555.919 2
  20961192.079   -31823092.490 8 -17604532.780 9
  21270546.117   -27801968.349 7 -16520119.522 7
  24199669.527    -9204624.100 5  -1047046.326 2
  20808721.352   -33494642.449 8 -18946474.807 9
 94  2  1  5 40 59.9990000  0  8 24  5 13  7  4  9 20 12
  20409100.164   -25861528.479 8 -20313943.641 9
  21300517.778   -18899340.091 8 -14576354.143 8
  21697960.794   -15558632.289 7 -12287614.339 5
  24270702.173    10615134.908 5   8112307.033 2
  20969859.498   -31777525.898 8 -17569026.340 9
  21278901.543   -27758062.736 7 -16485907.373 7
  24180939.514    -9303092.452 5  -1123774.955 1
  20809375.649   -33491197.043 8 -18943790.090 9
 94  2  1  5 41 29.9990000  0  8 24  5 13  7  4  9 20 12
  20404341.169   -25886531.123 8 -20333426.205 9
  21288046.922   -18964881.672 8 -14627425.504 8
  21709750.043   -15496684.080 8 -12239342.998 5
  24285052.578    10690527.579 5   8171054.539 2
  20978619.704   -31731482.903 8 -17533148.683 9
  21287352.992   -27713656.734 7 -16451305.304 7
  24162192.982    -9401561.283 5  -1200503.869 2
  20810147.675   -33487154.300 8 -18940639.905 9
 94  2  1  5 41 59.9990000  0  8 24  5 13  7  4  9 20 12
  20399679.905   -25911014.563 8 -20352504.206 9
  21275615.308   -19030201.284 8 -14678323.904 8
  21721562.495   -15434602.162 8 -12190967.491 5
  24299392.850    10765909.963 5   8229794.071 1
  20987473.444   -31684970.795 8 -17496905.477 9
  21295898.756   -27668743.971 7 -16416308.359 7
  24143456.613    -9500028.654 5  -1277231.701 2
  20811026.306   -33482513.204 8 -18937023.484 9
 94  2  1  5 42 29.9990000  0  8 24  5 13  7  4  9 20 12
  20395122.820   -25934964.892 8 -20371166.793 9
  21263229.652   -19095288.265 8 -14729041.015 8
  21733404.087   -15372386.720 8 -12142487.942 5
  24313743.466    10841280.450 5   8288524.282 1
  20996414.065   -31637994.429 8 -17460300.525 9
  21304543.541   -27623323.987 7 -16380916.181 7
  24124721.023    -9598491.291 5  -1353955.786 2
  20812026.624   -33477271.727 8 -18932939.219 9
 94  2  1  5 42 59.9990000  0  8 24  5 13  7  4  9 20 12
  20390671.832   -25958362.161 8 -20389398.429 9
  21250888.186   -19160149.102 8 -14779581.936 8
  21745267.115   -15310038.288 8 -12093904.730 5
  24328082.389    10916636.080 5   8347242.954 1
  21005439.827   -31590553.490 8 -17423333.542 9
  21313280.723   -27577408.777 7 -16345138.085 7
  24105986.093    -9696946.316 5  -1430673.955 2
  20813139.513   -33471428.352 8 -18928385.942 9
 94  2  1  5 43 29.9990000  0  8 24  5 13  7  4  9 20 12
  20386325.261   -25981194.179 8 -20407189.590 9
  21238589.680   -19224777.051 8 -14829941.371 8
  21757157.723   -15247556.618 8 -12045217.713 5
  24342415.436    10991978.073 5   8405951.004 1
  21014556.665   -31542640.278 8 -17385998.576 9
  21322109.251   -27530999.589 7 -16308975.083 7
  24087245.557    -9795390.239 5  -1507383.486 2
  20814365.904   -33464980.440 8 -18923361.603 9
 94  2  1  5 43 59.9990000  0  8 24  5 13  7  4  9 20 12
  20382096.268   -26003438.611 8 -20424522.908 9
  21226338.512   -19289154.571 8 -14880105.667 8
  21769074.593   -15184941.963 8 -11996427.080 5
  24356751.092    11067315.705 5   8464655.679 1
  21023765.090   -31494244.594 8 -17348287.647 9
  21331038.719   -27484094.685 7 -16272425.821 7
  24068523.308    -9893819.790 5  -1584081.865 2
  20815709.334   -33457926.360 8 -18917864.927 9
 94  2  1  5 44 29.9990000  0  8 24  5 13  7  4  9 20 12
  20377968.186   -26025112.667 8 -20441411.771 9
  21214135.550   -19353278.207 8 -14930072.134 8
  21781014.547   -15122195.166 8 -11947533.493 5
  24371093.973    11142669.516 5   8523372.901 1
  21033068.340   -31445361.302 8 -17310196.767 9
  21340054.558   -27436693.852 7 -16235490.120 7
  24049788.558    -9992232.439 5  -1660767.015 2
  20817166.326   -33450264.684 8 -18911894.790 9
 94  2  1  5 44 59.9990000  0  8 24  5 13  7  4  9 20 12
  20373948.149   -26046247.549 8 -20457880.510 9
  21201978.666   -19417163.143 8 -14979852.614 8
  21792977.765   -15059325.438 8 -11898544.077 5
  24385431.937    11218034.916 5   8582099.143 1
  21042463.116   -31395995.240 8 -17271729.710 9
  21349166.570   -27388803.564 7 -16198173.027 7
  24031064.990   -10090633.792 5  -1737443.384 2
  20818738.767   -33442002.784 8 -18905456.953 9
 94  2  1  5 45 29.9990000  0  8 24  5 13  7  4  9 20 12
  20370027.763   -26066853.062 8 -20473936.734 9
  21189869.479   -19480792.165 8 -15029433.654 8
  21804962.449   -14996332.871 8 -11849458.960 5
  24399779.494    11293410.628 5   8640833.514 1
  21051947.290   -31346153.244 8 -17232891.780 9
  21358377.423   -27340411.200 7 -16160464.700 7
  24012347.987   -10189020.576 5  -1814108.385 2
  20820427.528   -33433138.550 8 -18898549.759 9
 94  2  1  5 45 59.9990000  0  8 24  5 13  7  4  9 20 12
  20366203.910   -26086942.990 8 -20489591.214 9
  21177813.954   -19544161.808 8 -15078812.594 8
  21816974.653   -14933217.391 8 -11800278.076 5
  24414119.887    11368797.516 5   8699576.507 1
  21061519.633   -31295859.787 8 -17193702.074 9
  21367682.231   -27291515.135 7 -16122363.875 7
  23993623.160   -10287389.152 5  -1890759.217 2
  20822226.373   -33423669.784 8 -18891171.503 9
 94  2  1  5 46 29.9990000  0  8 24  5 13  7  4  9 20 12
  20362473.293   -26106527.839 8 -20504852.137 9
  21165799.052   -19607282.158 8 -15127997.284 8
  21829008.022   -14869979.989 8 -11751002.185 5
  24428468.883    11444191.201 5   8758324.879 1
  21071173.250   -31245122.841 8 -17154166.791 9
  21377082.644   -27242117.041 7 -16083871.865 7
  23974913.653   -10385737.064 5  -1967393.950 2
  20824143.306   -33413595.762 8 -18883321.631 9
 94  2  1  5 46 59.9990000  0  8 24  5 13  7  4  9 20 12
  20358851.560   -26125587.352 8 -20519703.694 9
  21153838.203   -19670145.165 8 -15176981.443 8
  21841063.756   -14806621.053 8 -11701631.586 5
  24442812.153    11519573.001 5   8817063.906 1
  21080910.000   -31193952.247 8 -17114293.607 9
  21386582.167   -27192223.826 7 -16044994.048 7
  23956201.027   -10484061.312 5  -2044010.221 2
  20826173.140   -33402915.023 8 -18874998.972 9
 94  2  1  5 47 29.9990000  0  8 24  5 13  7  4  9 20 12
  20355324.472   -26144108.245 8 -20534135.539 9
  21141928.228   -19732735.696 8 -15225753.278 8
  21853143.174   -14743142.610 8 -11652167.860 5
  24457155.783    11594946.954 5   8875796.838 1
  21090728.802   -31142351.017 8 -17074084.854 9
  21396165.873   -27141833.245 7 -16005728.672 7
  23937493.498   -10582360.471 5  -2120606.905 2
  20828323.432   -33391627.554 8 -18866203.550 9
 94  2  1  5 47 59.9990000  0  8 24  5 13  7  4  9 20 12
  20351902.221   -26162085.941 8 -20548144.117 9
  21130069.757   -19795058.111 8 -15274316.205 8
  21865248.014   -14679542.094 8 -11602609.026 5
  24471495.546    11670322.109 5   8934530.693 1
  21100632.026   -31090306.907 8 -17033530.990 9
  21405851.657   -27090948.363 7 -15966078.130 7
  23918796.072   -10680628.633 5  -2197179.524 2
  20830586.925   -33379728.799 8 -18856931.797 9
 94  2  1  5 48 29.9990000  0  8 24  5 13  7  4  9 20 12
  20348587.086   -26179516.503 8 -20561726.386 9
  21118260.872   -19857113.109 8 -15322670.745 8
  21877371.681   -14615823.743 8 -11552958.377 5
  24485843.403    11745694.195 5   8993262.191 1
  21110625.158   -31037796.351 8 -16992613.686 9
  21415627.380   -27039580.098 7 -15926050.927 7
  23900097.956   -10778866.552 5  -2273728.562 2
  20832967.577   -33367221.524 8 -18847185.877 9
 94  2  1  5 48 59.9990000  0  8 24  5 13  7  4  9 20 12
  20345377.718   -26196408.538 8 -20574888.996 9
  21106503.911   -19918896.185 8 -15370813.401 8
  21889520.350   -14551991.509 8 -11503218.961 5
  24500183.766    11821064.906 4   9051992.600 2
  21120705.920   -30984818.168 8 -16951331.981 9
  21425491.931   -26987737.495 7 -15885654.109 7
  23881411.173   -10877074.719 5  -2350254.379 2
  20835466.407   -33354107.593 8 -18836967.246 9
 94  2  1  5 49 29.9990000  0  8 24  5 13  7  4  9 20 12
  20342257.388   -26212769.372 8 -20587637.684 9
  21094796.986   -19980417.395 8 -15418752.006 9
  21901685.958   -14488048.312 8 -11453393.098 5
  24514522.179    11896450.952 4   9110734.941 2
  21130877.278   -30931365.215 8 -16909680.342 8
  21435446.719   -26935426.052 7 -15844891.953 7
  23862730.505   -10975252.412 5  -2426756.456 2
  20838075.231   -33340388.253 8 -18826276.854 9
 94  2  1  5 49 59.9990000  0  8 24  5 13  7  4  9 20 12
  20339247.922   -26228592.286 8 -20599967.238 9
  21083137.098   -20041682.369 8 -15466490.953 8
  21913876.659   -14423996.354 8 -11403482.482 5
  24528884.996    11971847.834 4   9169485.684 2
  21141142.232   -30877439.780 8 -16867660.505 8
  21445484.880   -26882663.374 7 -15803778.187 7
  23844052.236   -11073398.585 5  -2503233.999 2
  20840802.653   -33326064.296 8 -18815115.351 9
 94  2  1  5 50 29.9990000  0  8 24  5 13  7  4  9 20 12
  20336342.933   -26243869.578 8 -20611871.605 9
  21071526.106   -20102691.729 8 -15514030.702 9
  21926084.118   -14359840.699 8 -11353491.067 5
  24543231.145    12047244.099 4   9228235.996 2
  21151490.318   -30823055.402 8 -16825283.066 8
  21455612.529   -26829450.159 7 -15762313.341 7
  23825381.612   -11171514.964 5  -2579688.291 2
  20843641.118   -33311138.717 8 -18803485.006 9
 94  2  1  5 50 59.9990000  0  7 24  5 13  4  9 20 12
  20333539.064   -26258603.574 8 -20623352.626 9
  21059967.158   -20163438.995 9 -15561366.242 9
  21938312.292   -14295582.439 7 -11303419.693 5
  21161920.038   -30768231.859 8 -16782563.431 8
  21465825.438   -26775770.373 7 -15720484.964 7
  23806716.473   -11269599.315 5  -2656117.647 2
  20846593.953   -33295611.295 8 -18791385.740 9
 94  2  1  5 51 29.9990000  0  7 24  5 13  4  9 20 12
  20330839.223   -26272783.864 8 -20634402.202 9
  21048461.663   -20223904.677 9 -15608482.355 9
  21950559.174   -14231220.470 7 -11253267.506 5
  21172437.417   -30712969.547 8 -16739501.893 8
  21476133.562   -26721610.555 7 -15678282.519 7
  23788060.089   -11367646.879 5  -2732518.323 2
  20849667.006   -33279479.236 8 -18778815.308 9
 94  2  1  5 51 59.9990000  0  7 24  5 13  4  9 20 12
  20328243.830   -26286422.832 8 -20645029.966 9
  21037011.030   -20284084.983 9 -15655376.091 9
  21962826.741   -14166761.192 7 -11203039.514 5
  21183035.620   -30657273.053 8 -16696102.016 8
  21486529.855   -26666972.324 7 -15635707.279 7
  23769408.111   -11465660.625 5  -2808892.671 2
  20852851.162   -33262747.513 8 -18765777.605 9
 94  2  1  5 52 29.9990000  0  7 24  5 13  4  9 20 12
  20325748.177   -26299533.323 8 -20655245.928 9
  21025613.730   -20343975.576 9 -15702044.086 9
  21975114.395   -14102201.057 7 -11152732.923 5
  21193717.165   -30601137.271 8 -16652359.850 8
  21497022.411   -26611829.447 7 -15592738.809 7
  23750768.755   -11563633.426 6  -2885235.115 2
  20856148.339   -33245410.770 7 -18752268.457 9
 94  2  1  5 52 59.9990000  0  7 24  5 13  4  9 20 12
  20323351.307   -26312130.972 8 -20665062.258 9
  21014271.053   -20403574.093 9 -15748484.488 9
  21987414.969   -14037541.861 7 -11102349.128 5
  21204485.170   -30544562.838 8 -16608275.872 8
  21507610.751   -26556194.355 7 -15549386.797 6
  23732131.048   -11661563.789 5  -2961544.459 2
  20859562.046   -33227469.708 7 -18738288.416 8
 94  2  1  5 53 29.9990000  0  7 24  5 13  4  9 20 12
  20321053.457   -26324205.595 8 -20674471.049 9
  21002984.946   -20462889.981 9 -15794704.662 9
  21999737.818   -13972785.849 7 -11051889.897 5
  21215335.439   -30487548.867 8 -16563849.404 8
  21518286.630   -26500083.400 7 -15505663.978 6
  23713508.570   -11759450.584 5  -3037819.890 2
  20863094.320   -33208924.940 8 -18723837.958 8
 94  2  1  5 53 59.9990000  0  7 24  5 13  4  9 20 12
  20318856.698   -26335759.628 8 -20683474.183 9
  20991745.727   -20521953.656 9 -15840728.301 9
  22012079.944   -13907934.615 7 -11001356.478 4
  21226264.553   -30430108.258 8 -16519090.489 8
  21529053.946   -26443506.132 7 -15461577.809 6
  23694881.655   -11857291.824 5  -3114059.798 2
  20866737.069   -33189776.710 7 -18708917.263 8
 94  2  1  5 54 29.9990000  0  7 24  5 13  4  9 20 12
  20316756.712   -26346773.955 8 -20692056.774 9
  20980552.016   -20580763.264 9 -15886553.965 9
  22024437.299   -13842983.729 7 -10950745.420 4
  21237274.611   -30372250.019 8 -16474006.150 8
  21539906.193   -26386466.595 7 -15417131.430 6
  23676273.687   -11955079.450 5  -3190257.905 2
  20870495.027   -33170019.073 7 -18693521.711 8
 94  2  1  5 54 59.9990000  0  7 24  5 13  4  9 20 12
  20314767.559   -26357248.525 8 -20700218.778 9
  20969408.101   -20639324.446 8 -15932186.055 9
  22036814.980   -13777945.785 7 -10900066.487 4
  21248361.176   -30313991.598 8 -16428609.986 8
  21550846.579   -26329004.413 7 -15372355.716 6
  23657673.214   -12052823.074 5  -3266421.797 2
  20874370.954   -33149663.347 8 -18677660.115 8
 94  2  1  5 55 29.9990000  0  7 24  5 13  4  9 20 12
  20312877.308   -26367169.511 8 -20707949.404 9
  20958315.810   -20697627.051 9 -15977616.662 9
  22049206.932   -13712817.342 7 -10849317.061 4
  21259524.727   -30255330.491 8 -16382900.036 8
  21561858.826   -26271106.253 7 -15327240.275 6
  23639082.754   -12150515.629 6  -3342545.864 2
  20878357.294   -33128704.907 8 -18661328.865 8
 94  2  1  5 55 59.9990000  0  7 24  5 13  4  9 20 12
  20311094.712   -26376546.690 8 -20715256.291 9
  20947269.177   -20755659.643 9 -16022836.865 9
  22061618.789   -13647602.988 7 -10798500.686 4
  21270764.036   -30196264.563 8 -16336874.635 8
  21572960.710   -26212780.025 7 -15281791.262 6
  23620506.863   -12248158.034 6  -3418630.822 2
  20882460.763   -33107146.955 7 -18644530.467 8
 94  2  1  5 56 29.9990000  0  7 24  5 13  4  9 20 12
  20309411.917   -26385377.317 8 -20722137.285 9
  20936284.962   -20813388.704 9 -16067820.549 9
  22074043.178   -13582306.763 7 -10747620.520 4
  21282083.810   -30136779.736 8 -16290522.834 8
  21584136.433   -26154038.205 7 -15236018.436 6
  23601934.241   -12345751.181 5  -3494677.442 2
  20886676.325   -33084992.477 8 -18627267.252 8
 94  2  1  5 56 59.9990000  0  7 24  5 13  4  9 20 12
  20307832.250   -26393680.578 8 -20728607.357 9
  20925360.314   -20870812.165 8 -16112566.104 9
  22086483.755   -13516935.988 7 -10696682.245 4
  21293483.478   -30076873.378 8 -16243842.551 8
  21595398.227   -26094872.788 7 -15189915.466 6
  23583372.411   -12443298.849 5  -3570688.590 2
  20891003.229   -33062247.502 7 -18609543.907 8
 94  2  1  5 57 29.9990000  0  7 24  5 13  4  9 20 12
  20306349.207   -26401457.947 8 -20734667.627 9
  20914492.478   -20927920.341 8 -16157065.980 9
  22098939.383   -13451484.841 7 -10645681.356 4
  21304963.161   -30016535.626 8 -16196826.125 8
  21606741.414   -26035265.148 7 -15143468.025 6
  23564812.170   -12540791.848 5  -3646657.136 2
  20895445.044   -33038905.045 7 -18591354.971 8
 94  2  1  5 57 59.9990000  0  7 24  5 13  4  9 20 12
  20304970.491   -26408714.496 8 -20740322.083 9
  20903682.142   -20984717.782 9 -16201323.729 9
  22111408.620   -13385954.697 7 -10594618.916 4
  21316527.565   -29955765.598 8 -16149472.854 8
  21618162.428   -25975227.203 7 -15096685.221 6
  23546274.953   -12638228.050 5  -3722581.461 2
  20900003.988   -33014965.658 7 -18572700.920 8
 94  2  1  5 58 29.9990000  0  7 24  5 13  4  9 20 12
  20303694.695   -26415447.970 8 -20745568.944 9
  20892936.021   -21041200.557 9 -16245336.286 9
  22123896.325   -13320342.659 7 -10543492.664 4
  21328173.783   -29894575.366 8 -16101792.152 8
  21629672.030   -25914753.552 7 -15049562.909 6
  23527745.411   -12735601.196 6  -3798456.612 2
  20904671.937   -32990425.166 7 -18553578.471 8
 94  2  1  5 58 59.9990000  0  7 24  5 13  4  9 20 12
  20302507.966   -26421654.477 8 -20750405.181 9
  20882244.013   -21097379.005 8 -16289111.697 9
  22136392.844   -13254650.010 7 -10492303.580 4
  21339890.241   -29832984.421 8 -16053799.208 8
  21641266.173   -25853828.555 7 -15002088.886 6
  23509231.518   -12832909.120 6  -3874280.968 2
  20909453.537   -32965283.578 8 -18533987.620 8
 94  2  1  5 59 29.9990000  0  7 24  5 13  4  9 20 12
  20301429.823   -26427328.148 8 -20754826.222 9
  20871613.373   -21153244.091 9 -16332642.940 9
  22148912.327   -13188881.193 7 -10441055.145 4
  21351686.175   -29771010.567 8 -16005507.905 8
  21652940.571   -25792471.878 7 -14954278.496 6
  23490724.460   -12930152.669 6  -3950055.193 2
  20914353.344   -32939544.636 7 -18513931.304 8
 94  2  1  5 59 59.9990000  0  7 24  5 13  4  9 20 12
  20300453.758   -26432451.142 8 -20758818.161 9
  20861045.539   -21208781.242 9 -16375918.644 9
  22161439.515   -13123036.685 7 -10389747.757 4
  21363551.481   -29708662.725 8 -15956925.165 8
  21664699.451   -25730688.240 7 -14906135.399 6
  23472238.268   -13027329.161 5  -4025777.125 2
  20919365.784   -32913207.866 8 -18493409.155 8
 94  2  1  6  0 29.9990000  0  8 24 16  5 13  4  9 20 12
  20299583.821   -26437019.867 8 -20762378.192 9
  24672771.106    -3751262.66615  -2757582.993 2
  20850540.931   -21263981.308 9 -16418931.681 9
  22173981.602   -13057120.817 7 -10338384.745 4
  21375485.050   -29645948.990 8 -15908057.341 8
  21676538.015   -25668474.271 7 -14857656.992 6
  23453753.454   -13124439.500 5  -4101447.483 2
  20924491.396   -32886276.654 7 -18472423.815 8
 94  2  1  6  0 59.9990000  0  8 24 16  5 13  4  9 20 12
  20298822.408   -26441038.848 8 -20765509.868 9
  24654940.620    -3844911.735 5  -2830556.302 2
  20840101.618   -21318841.029 9 -16461679.507 9
  22186539.998   -12991131.000 7 -10286964.111 4
  21387492.697   -29582863.166 8 -15858899.531 8
  21688460.641   -25605828.149 7 -14808841.845 6
  23435287.948   -13221477.612 5  -4177061.565 2
  20929728.231   -32858747.480 7 -18450972.502 8
 94  2  1  6  1 29.9990000  0  8 24 16  5 13  4  9 20 12
  20298156.778   -26444520.720 8 -20768223.009 9
  24637111.543    -3938655.982 5  -2903603.678 2
  20829725.531   -21373365.443 9 -16504166.081 9
  22199113.054   -12925070.239 7 -10235488.177 4
  21399568.517   -29519394.157 8 -15809443.168 8
  21700460.404   -25542772.137 7 -14759707.295 6
  23416836.262   -13318442.917 6  -4252618.953 2
  20935080.605   -32830622.471 8 -18429056.926 8
 94  2  1  6  1 59.9990000  0  8 24 16  5 13  4  9 20 12
  20297598.115   -26447464.804 8 -20770517.087 9
  24619253.236    -4032508.402 5  -2976735.488 2
  20819409.703   -21427577.988 9 -16546409.606 9
  22211694.564   -12858941.998 7 -10183959.690 4
  21411719.285   -29455534.692 8 -15759682.546 8
  21712537.003   -25479301.077 7 -14710249.319 6
  23398393.090   -13415335.602 6  -4328119.760 2
  20940545.672   -32801904.484 7 -18406679.290 8
 94  2  1  6  2 29.9990000  0  8 24 16  5 13  4  9 20 12
  20297135.266   -26449894.796 8 -20772410.588 9
  24601367.857    -4126474.235 5  -3049955.595 2
  20809148.616   -21481498.263 9 -16588425.400 9
  22224295.410   -12792749.543 7 -10132381.156 4
  21423946.710   -29391285.880 8 -15709618.549 8
  21724694.007   -25415418.128 7 -14660470.414 6
  23379974.650   -13512155.254 6  -4403563.655 2
  20946123.640   -32772595.804 7 -18383841.356 8
 94  2  1  6  2 59.9990000  0  8 24 16  5 13  4  9 20 12
  20296770.748   -26451814.498 8 -20773906.469 9
  24583470.667    -4220542.354 5  -3123255.377 2
  20798941.163   -21535125.593 9 -16630212.946 9
  22236902.823   -12726489.273 7 -10080749.799 4
  21436246.535   -29326648.938 8 -15659252.104 8
  21736927.009   -25351129.066 7 -14610375.057 6
  23361567.723   -13608895.247 6  -4478945.478 2
  20951810.883   -32742692.265 7 -18360539.923 8
 94  2  1  6  3 29.9990000  0  8 24 16  5 13  4  9 20 12
  20296502.224   -26453217.287 8 -20774999.530 9
  24565550.843    -4314700.235 5  -3196625.203 2
  20788794.747   -21588461.534 9 -16671773.415 9
  22249522.346   -12660163.344 7 -10029067.242 4
  21448620.199   -29261620.613 8 -15608580.673 8
  21749236.847   -25286431.615 7 -14559961.479 6
  23343167.541   -13705553.846 6  -4554263.861 2
  20957617.263   -32712195.126 8 -18336775.917 8
 94  2  1  6  3 59.9990000  0  8 24 16  5 13  4  9 20 12
  20296333.860   -26454117.973 8 -20775701.350 9
  24547618.218    -4408941.701 4  -3270060.021 2
  20778702.594   -21641500.611 9 -16713102.564 9
  22262157.789   -12593778.178 7  -9977338.555 4
  21461067.552   -29196215.735 8 -15557615.832 8
  21761630.747   -25221323.453 7 -14509227.840 6
  23324794.161   -13802134.282 6  -4629521.307 2
  20963531.689   -32681110.295 7 -18312553.981 8
 94  2  1  6  4 29.9990000  0  8 24 16  5 13  4  9 20 12
  20296253.546   -26454533.141 8 -20776024.866 9
  24529678.127    -4503255.662 4  -3343551.399 2
  20768668.960   -21694220.600 9 -16754183.079 9
  22274797.219   -12527334.661 7  -9925564.392 4
  21473585.266   -29130434.957 8 -15506358.104 8
  21774096.567   -25155806.528 7 -14458175.701 6
  23306426.267   -13898634.011 6  -4704715.901 2
  20969560.066   -32649438.027 7 -18287874.297 8
 94  2  1  6  4 59.9990000  0  8 24 16  5 13  4  9 20 12
  20296265.358   -26454458.502 8 -20775966.699 9
  24511710.156    -4597630.074 4  -3417089.921 2
  20758701.040   -21746603.516 9 -16795000.949 9
  22287453.227   -12460834.794 7  -9873746.331 4
  21486174.661   -29064272.581 8 -15454803.002 7
  21786642.791   -25089870.237 7 -14406796.770 6
  23288082.176   -13995051.794 6  -4779846.609 2
  20975698.526   -32617179.881 7 -18262738.101 8
 94  2  1  6  5 29.9990000  0  8 24 16  5 13  4  9 20 12
  20296374.272   -26453892.058 8 -20775525.303 9
  24493746.682    -4692066.224 4  -3490676.520 2
  20748796.527   -21798651.941 9 -16835558.144 9
  22300123.656   -12394280.052 7  -9821885.482 4
  21498835.346   -28997725.056 8 -15402947.788 7
  21799268.880   -25023510.648 7 -14355088.008 6
  23269749.028   -14091385.546 6  -4854911.895 2
  20981948.419   -32584336.580 7 -18237145.918 8
 94  2  1  6  5 59.9990000  0  8 24 16  5 13  4  9 20 12
  20296576.123   -26452831.769 8 -20774699.103 9
  24475766.180    -4786575.793 5  -3564320.349 2
  20738958.508   -21850357.023 9 -16875847.827 9
  22312792.105   -12327672.913 7  -9769983.827 4
  21511571.969   -28930802.124 8 -15350800.050 7
  21811976.573   -24956739.473 7 -14303058.535 6
  23251436.386   -14187634.251 6  -4929910.853 2
  20988309.865   -32550910.289 7 -18211099.462 8
 94  2  1  6  6 29.9990000  0  8 24 16  5 13  4  9 20 12
  20296876.335   -26451254.034 8 -20773469.703 9
  24457761.574    -4881154.587 5  -3638018.143 2
  20729182.875   -21901718.690 9 -16915869.908 9
  22325474.855   -12261013.616 7  -9718041.563 4
  21524379.642   -28863509.488 8 -15298364.230 7
  21824758.434   -24889568.905 7 -14250717.833 6
  23233134.266   -14283794.841 6  -5004841.207 2
  20994778.128   -32516900.451 7 -18184598.312 8
 94  2  1  6  6 59.9990000  0  8 24 16  5 13  4  9 20 12
  20297277.337   -26449138.739 8 -20771821.417 9
  24439756.938    -4975789.691 5  -3711759.733 2
  20719474.936   -21952738.567 9 -16955625.656 9
  22338171.845   -12194299.137 7  -9666056.227 4
  21537250.901   -28795856.400 8 -15245647.541 7
  21837613.115   -24822012.119 7 -14198076.201 6
  23214852.862   -14379860.914 6  -5079697.883 2
  21001362.829   -32482303.907 7 -18157639.968 8
 94  2  1  6  7 29.9990000  0  8 24 16  5 13  4  9 20 12
  20297785.635   -26446477.005 8 -20769747.337 9
  24421731.257    -5070482.391 5  -3785546.257 2
  20709828.784   -22003434.887 9 -16995129.280 9
  22350881.157   -12127533.901 7  -9614031.374 4
  21550191.293   -28727849.549 8 -15192655.203 7
  21850539.626   -24754090.863 7 -14145150.549 6
  23196588.606   -14475833.635 6  -5154481.803 2
  21008055.666   -32447124.658 7 -18130227.564 8
 94  2  1  6  7 59.9990000  0  8 24 16  5 13  4  9 20 12
  20298396.313   -26443268.670 8 -20767247.334 9
  24403702.248    -5165233.461 5  -3859378.286 2
  20700245.858   -22053796.170 9 -17034371.832 9
  22363596.914   -12060719.727 7  -9561968.377 4
  21563206.693   -28659486.506 8 -15139385.289 7
  21863528.644   -24685816.128 7 -14091949.469 6
  23178347.524   -14571711.152 6  -5229191.562 3
  21014862.004   -32411363.883 7 -18102362.029 8
 94  2  1  6  8 29.9990000  0  8 24 16  5 13  4  9 20 12
  20299107.720   -26439520.663 8 -20764326.804 9
  24385665.325    -5260034.432 5  -3933249.135 2
  20690724.180   -22103825.331 9 -17073355.590 9
  22376316.418   -11993855.686 7  -9509866.556 4
  21576283.430   -28590760.863 8 -15085832.848 7
  21876593.779   -24617175.988 7 -14038463.666 6
  23160119.513   -14667489.556 6  -5303824.093 3
  21021775.488   -32375020.782 7 -18074042.755 8
 94  2  1  6  8 59.9990000  0  8 24 16  5 13  4  9 20 12
  20299921.027   -26435247.423 8 -20760997.002 9
  24367611.883    -5354888.793 5  -4007161.707 2
  20681268.306   -22153521.937 9 -17112080.217 9
  22389045.996   -11926942.929 7  -9457726.732 4
  21589433.916   -28521660.672 8 -15031988.543 7
  21889724.059   -24548156.512 7 -13984682.255 6
  23141917.884   -14763166.169 6  -5378377.248 3
  21028807.659   -32338095.962 7 -18045270.186 8
 94  2  1  6  9 29.9990000  0  8 24 16  5 13  4  9 20 12
  20300834.585   -26430454.859 8 -20757262.536 9
  24349544.771    -5449809.604 5  -4081125.945 2
  20671878.416   -22202865.234 9 -17150529.554 9
  22401790.713   -11859979.648 7  -9405547.554 4
  21602654.374   -28452171.383 8 -14977841.041 7
  21902931.566   -24478742.924 7 -13930593.735 6
  23123729.505   -14858735.932 6  -5452847.206 3
  21035942.750   -32300587.339 7 -18016042.681 8
 94  2  1  6  9 59.9990000  0  8 24 16  5 13  4  9 20 12
  20301845.964   -26425149.589 8 -20753128.554 9
  24331468.605    -5544799.923 5  -4155144.416 2
  20662559.817   -22251836.359 9 -17188688.873 9
  22414544.963   -11792962.329 7  -9353326.279 4
  21615954.306   -28382306.523 8 -14923400.916 7
  21916212.192   -24408925.554 7 -13876190.621 6
  23105563.941   -14954192.276 6  -5527228.755 3
  21043193.171   -32262491.426 7 -17986357.564 8
 94  2  1  6 10 29.9990000  0  8 24 16  5 13  4  9 20 12
  20302950.880   -26419336.240 8 -20748598.671 9
  24313383.235    -5639851.981 5  -4229210.929 2
  20653309.122   -22300447.240 9 -17226567.479 9
  22427308.387   -11725897.002 7  -9301067.625 3
  21629307.302   -28312092.719 8 -14868688.840 7
  21929591.240   -24338706.069 7 -13821474.136 6
  23087415.795   -15049537.273 6  -5601523.560 3
  21050553.795   -32223813.692 7 -17956219.083 8
 94  2  1  6 10 59.9990000  0  8 24 16  5 13  4  9 20 12
  20304152.927   -26413009.214 8 -20743668.510 9
  24295282.786    -5734952.291 5  -4303315.051 2
  20644128.008   -22348694.255 9 -17264162.554 9
  22440080.536   -11658784.853 7  -9248772.403 4
  21642736.146   -28241544.556 8 -14813716.238 7
  21943018.045   -24268103.605 7 -13766459.225 6
  23069297.178   -15144768.862 6  -5675729.994 3
  21058023.993   -32184555.270 7 -17925628.120 8
 94  2  1  6 11 29.9990000  0  8 24 16  5 13  4  9 20 12
  20305456.485   -26406172.620 8 -20738341.302 9
  24277188.272    -5830091.287 5  -4377449.414 2
  20635014.077   -22396579.440 9 -17301475.683 9
  22452854.722   -11591628.825 7  -9196443.020 4
  21656219.761   -28170684.641 7 -14758500.741 7
  21956526.003   -24197128.517 7 -13711153.981 6
  23051196.968   -15239886.766 6  -5749847.864 3
  21065602.927   -32144719.231 7 -17894587.048 8
 94  2  1  6 11 59.9990000  0  8 24 16  5 13  4  9 20 12
  20306853.308   -26398823.966 8 -20732615.069 9
  24259080.298    -5925245.810 5  -4451595.741 2
  20625969.458   -22444120.330 9 -17338520.534 9
  22465645.937   -11524425.761 7  -9144077.033 3
  21669764.354   -28099520.440 7 -14703048.119 7
  21970099.676   -24125791.608 7 -13655566.765 6
  23033119.423   -15334884.344 6  -5823871.922 3
  21073292.063   -32104302.199 7 -17863093.269 8
 94  2  1  6 12 29.9990000  0  8 24 16  5 13  4  9 20 12
  20308343.936   -26390977.839 8 -20726501.196 9
  24240968.067    -6020404.703 5  -4525745.524 2
  20616986.867   -22491313.896 9 -17375294.741 9
  22478444.227   -11457187.278 7  -9091683.413 3
  21683362.640   -28028039.384 7 -14647348.596 7
  21983740.833   -24054119.981 7 -13599718.749 6
  23015065.232   -15429769.682 6  -5897808.552 3
  21081092.693   -32063315.745 7 -17831155.776 8
 94  2  1  6 12 59.9990000  0  8 24 16  5 13  4  9 20 12
  20309933.466   -26382635.049 8 -20720000.325 9
  24222859.853    -6115575.493 5  -4599904.558 2
  20608074.547   -22538149.622 9 -17411790.114 9
  22491245.455   -11389908.701 7  -9039258.545 3
  21697035.545   -27956201.968 8 -14591371.413 7
  21997444.706   -23982115.435 7 -13543611.336 6
  22997026.930   -15524534.766 6  -5971651.463 3
  21089002.717   -32021755.256 7 -17798770.990 8
 94  2  1  6 13 29.9990000  0  8 24 16  5 13  4  9 20 12
  20311613.742   -26373796.978 8 -20713113.519 9
  24204751.879    -6210765.902 5  -4674078.906 2
  20599233.427   -22584620.021 9 -17448000.817 9
  22504053.278   -11322584.974 7  -8986798.467 4
  21710773.145   -27883981.287 7 -14535095.545 7
  22011211.026   -23909767.065 7 -13487235.981 6
  22979020.915   -15619171.352 6  -6045394.268 3
  21097023.664   -31979615.834 7 -17765935.093 8
 94  2  1  6 13 59.9990000  0  8 24 16  5 13  4  9 20 12
  20313391.122   -26364464.860 8 -20705841.730 9
  24186623.219    -6305981.955 5  -4748273.207 2
  20590460.361   -22630715.933 9 -17483919.705 9
  22516875.551   -11255224.417 7  -8934309.727 3
  21724590.789   -27811383.878 7 -14478526.143 7
  22025038.113   -23837094.265 7 -13430607.827 6
  22961033.637   -15713684.477 6  -6119040.864 3
  21105151.847   -31936905.632 7 -17732654.432 8
 94  2  1  6 14 29.9990000  0  8 24 16  5 13  4  9 20 12
  20315265.155   -26354623.694 8 -20698173.281 9
  24168500.046    -6401225.397 5  -4822488.826 2
  20581761.703   -22676426.512 9 -17519538.351 9
  22529698.125   -11187826.782 7  -8881792.122 3
  21738474.507   -27738419.959 8 -14421671.140 7
  22038935.353   -23764082.426 7 -13373715.499 6
  22943072.951   -15808070.657 6  -6192588.560 3
  21113385.347   -31893624.776 7 -17698929.084 8
 94  2  1  6 14 59.9990000  0  8 24 16  5 13  4  9 20 12
  20317234.761   -26344266.615 8 -20690102.841 9
  24150375.103    -6496507.373 5  -4896734.498 2
  20573134.965   -22721774.506 9 -17554874.449 9
  22542529.482   -11120398.093 7  -8829250.293 3
  21752421.092   -27665128.736 8 -14364561.112 7
  22052892.730   -23690717.341 6 -13316547.898 6
  22925136.938   -15902332.443 6  -6266039.262 3
  21121728.841   -31849779.332 7 -17664763.809 8
 94  2  1  6 15 29.9990000  0  8 24 16  5 13  4  9 20 12
  20319307.286   -26333386.286 8 -20681624.647 9
  24132238.229    -6591807.748 5  -4970994.533 2
  20564575.381   -22766745.867 9 -17589917.066 9
  22555364.856   -11052939.904 7  -8776685.434 4
  21766423.409   -27591552.740 8 -14307229.169 7
  22066921.368   -23616993.367 6 -13259100.659 6
  22907224.279   -15996467.795 6  -6339391.514 3
  21130181.010   -31805370.870 7 -17630159.845 8
 94  2  1  6 15 59.9990000  0  8 24 16  5 13  4  9 20 12
  20321480.002   -26321973.128 8 -20672731.282 9
  24114101.025    -6687110.369 5  -5045256.289 2
  20556090.265   -22811336.723 9 -17624663.203 9
  22568205.656   -10985451.117 7  -8724096.785 4
  21780477.020   -27517711.574 8 -14249690.602 7
  22081023.426   -23542906.799 7 -13201370.868 5
  22889337.162   -16090472.374 6  -6412641.810 3
  21138738.316   -31760398.626 7 -17595116.524 7
 94  2  1  6 16 29.9990000  0  8 24 16  5 13  4  9 20 12
  20323747.752   -26310036.603 8 -20663430.096 9
  24095964.151    -6782419.422 5  -5119523.044 2
  20547674.251   -22855564.461 9 -17659126.378 9
  22581056.530   -10917934.759 7  -8671486.648 3
  21794582.734   -27443583.978 8 -14191928.850 7
  22095189.609   -23468443.536 6 -13143347.557 5
  22871470.011   -16184345.781 6  -6485789.905 3
  21147402.768   -31714865.856 7 -17559636.455 8
 94  2  1  6 16 59.9990000  0  8 24 16  5 13  4  9 20 12
  20326115.363   -26297600.889 8 -20653739.924 9
  24077822.690    -6877735.394 5  -5193795.236 2
  20539326.380   -22899419.958 9 -17693299.489 9
  22593911.451   -10850393.249 7  -8618856.912 3
  21808744.690   -27369156.933 8 -14133933.737 7
  22109429.001   -23393612.391 6 -13085037.576 5
  22853635.298   -16278087.212 6  -6558835.200 3
  21156173.406   -31668775.222 8 -17523721.683 7
 94  2  1  6 17 29.9990000  0  8 24 16  5 13  4  9 20 12
  20328574.201   -26284685.988 8 -20643676.351 9
  24059683.927    -6973055.398 5  -5268070.594 2
  20531055.796   -22942890.124 9 -17727172.358 9
  22606763.973   -10782828.439 6  -8566208.996 3
  21822967.144   -27294409.844 8 -14075689.260 7
  22123736.806   -23318427.749 6 -13026452.141 5
  22835819.321   -16371695.386 6  -6631776.625 3
  21165051.820   -31622129.177 7 -17487374.123 7
 94  2  1  6 17 59.9990000  0  8 24 16  5 13  4  9 20 12
  20331119.979   -26271295.828 8 -20633242.461 9
  24041547.113    -7068379.482 5  -5342349.040 2
  20522856.592   -22985983.579 9 -17760751.681 9
  22619627.228   -10715239.583 6  -8513542.372 3
  21837257.681   -27219326.446 8 -14017182.708 6
  22138108.706   -23242896.253 6 -12967596.447 5
  22818031.466   -16465165.812 6  -6704610.728 3
  21174032.342   -31574927.227 7 -17450593.396 7
 94  2  1  6 18 29.9990000  0  8 24 16  5 13  4  9 20 12
  20333756.983   -26257441.780 8 -20622447.106 9
  24023405.652    -7163707.874 5  -5416630.921 2
  20514729.129   -23028694.714 9 -17794033.081 9
  22632492.731   -10647630.083 6  -8460859.666 3
  21851608.236   -27143907.770 8 -13958414.905 6
  22152546.651   -23167026.993 6 -12908477.541 5
  22800271.221   -16558498.326 6  -6777337.367 3
  21183119.741   -31527173.005 7 -17413382.311 7
 94  2  1  6 18 59.9990000  0  8 24 16  5 13  4  9 20 12
  20336480.987   -26243127.692 8 -20611293.264 9
  24005265.720    -7259033.741 5  -5490910.800 2
  20506675.264   -23071006.701 9 -17827003.459 9
  22645363.931   -10580000.513 6  -8408161.305 3
  21866017.641   -27068180.674 7 -13899406.793 6
  22167045.364   -23090839.835 6 -12849110.930 5
  22782544.493   -16651690.751 6  -6849954.839 3
  21192308.200   -31478867.584 7 -17375741.740 7
 94  2  1  6 19 29.9990000  0  8 24 16  5 13  4  9 20 12
  20339294.030   -26228344.238 8 -20599773.705 9
  23987125.908    -7354350.223 5  -5565183.374 2
  20498700.245   -23112917.872 9 -17859661.533 9
  22658234.770   -10512349.157 6  -8355445.973 3
  21880486.764   -26992142.817 7 -13840156.502 6
  22181604.964   -23014339.412 6 -12789500.250 5
  22764832.874   -16744737.934 6  -6922459.125 3
  21201607.343   -31430009.769 8 -17337670.741 7
 94  2  1  6 19 59.9990000  0  8 24 16  5 13  4  9 20 12
  20342198.539   -26213077.780 8 -20587877.744 9
  23968993.231    -7449662.865 5  -5639452.951 2
  20490801.343   -23154431.748 9 -17892010.004 9
  22671116.732   -10444676.541 6  -8302714.064 3
  21895014.107   -26915803.892 7 -13780671.643 6
  22196218.857   -22937530.232 6 -12729648.942 5
  22747153.933   -16837637.023 6  -6994847.986 3
  21211009.823   -31380600.582 7 -17299170.080 7
 94  2  1  6 20 29.9990000  0  8 24 16  5 13  4  9 20 12
  20345197.243   -26197328.669 8 -20575605.718 9
  23950856.057    -7544977.515 5  -5713724.053 2
  20482979.518   -23195543.543 9 -17924045.177 9
  22683995.996   -10376983.581 6  -8249966.328 3
  21909598.950   -26839161.843 7 -13720950.577 6
  22210898.975   -22860412.485 6 -12669557.242 5
  22729503.562   -16930385.655 6  -7067119.679 3
  21220516.782   -31330641.401 7 -17260240.858 7
 94  2  1  6 20 59.9990000  0  8 24 16  5 13  4  9 20 12
  20348284.506   -26181097.153 8 -20562957.791 9
  23932716.455    -7640287.671 5  -5787991.721 2
  20475227.875   -23236264.310 9 -17955775.649 9
  22696883.834   -10309274.911 6  -8197206.342 3
  21924240.214   -26762224.975 7 -13660999.763 6
  22225632.425   -22782988.481 6 -12609226.840 5
  22711886.528   -17022985.071 6  -7139275.059 3
  21230129.957   -31280137.328 7 -17220887.047 7
 94  2  1  6 21 29.9990000  0  8 24 16  5 13  4  9 20 12
  20351470.820   -26164359.440 8 -20549915.403 9
  23914583.358    -7735584.099 5  -5862248.650 2
  20467553.667   -23276601.799 9 -17987207.452 9
  22709770.023   -10241547.401 6  -8144431.638 3
  21938939.338   -26684994.349 7 -13600820.048 6
  22240420.647   -22705248.175 6 -12548649.973 5
  22694292.968   -17115428.813 6  -7211309.142 3
  21239844.462   -31229085.980 7 -17181106.786 7
 94  2  1  6 21 59.9990000  0  8 24 16  5 13  4  9 20 12
  20354750.549   -26147115.786 8 -20536478.790 9
  23896454.639    -7830866.089 5  -5936494.343 2
  20459950.421   -23316557.954 9 -18018342.128 9
  22722660.709   -10173805.093 7  -8091645.442 3
  21953682.712   -26607498.242 7 -13540433.489 6
  22255274.794   -22627198.234 6 -12487831.847 5
  22676730.286   -17207717.454 6  -7283222.362 3
  21249660.446   -31177492.157 7 -17140903.814 7
 94  2  1  6 22 29.9990000  0  8 24 16  5 13  4  9 20 12
  20358129.390   -26129371.396 8 -20522651.985 9
  23878322.921    -7926111.188 5  -6010711.272 2
  20452420.684   -23356125.075 9 -18049173.667 9
  22735552.385   -10106045.188 7  -8038845.532 3
  21968481.037   -26529732.273 7 -13479836.646 6
  22270186.141   -22548836.032 6 -12426770.407 5
  22659202.081   -17299845.001 6  -7355010.055 3
  21259582.407   -31125353.493 7 -17100276.291 7
 94  2  1  6 22 59.9990000  0  8 24 16  5 13  4  9 20 12
  20361603.056   -26111123.570 8 -20508432.912 9
  23860209.011    -8021308.622 5  -6084891.111 2
  20444965.355   -23395295.121 9 -18079695.771 9
  22748451.255   -10038267.989 7  -7986032.145 3
  21983328.858   -26451700.498 7 -13419032.672 6
  22285156.067   -22470167.356 6 -12365470.152 5
  22641701.216   -17391808.637 6  -7426670.034 3
  21269609.086   -31072671.091 7 -17059225.087 7
 94  2  1  6 23 29.9990000  0  8 24 16  5 13  4  9 20 12
  20365165.849   -26092386.613 8 -20493832.671 9
  23842098.369    -8116472.548 5  -6159044.734 2
  20437588.602   -23434058.514 9 -18109901.014 9
  22761350.635    -9970477.796 7  -7933208.566 3
  21998229.203   -26373407.255 7 -13358024.941 6
  22300186.642   -22391207.244 6 -12303942.806 5
  22624232.340   -17483609.146 6  -7498202.868 3
  21279735.416   -31019449.864 7 -17017753.997 7
 94  2  1  6 23 59.9990000  0  8 24 16  5 13  4  9 20 12
  20368817.471   -26073192.920 8 -20478876.545 9
  23823996.720    -8211599.919 5  -6233169.951 2
  20430292.133   -23472409.629 9 -18139785.022 9
  22774256.790    -9902676.852 7  -7880376.694 3
  22013178.923   -26294839.613 7 -13296803.419 6
  22315257.389   -22311967.517 6 -12242197.587 5
  22606792.693   -17575245.567 6  -7569607.875 3
  21289966.403   -30965692.948 7 -16975865.497 7
 94  2  1  6 24 29.9990000  0  8 24 16  5 13  4  9 20 12
  20372558.431   -26053543.038 8 -20463564.941 9
  23805903.346    -8306678.436 5  -6307257.090 2
  20423073.610   -23510345.085 9 -18169345.110 9
  22787158.089    -9834859.684 7  -7827532.185 2
  22028186.983   -26215970.028 7 -13235346.600 6
  22330396.218   -22232444.981 6 -12180231.983 5
  22589386.263   -17666709.121 6  -7640878.188 3
  21300297.191   -30911395.669 7 -16933555.932 7
 94  2  1  6 24 59.9990000  0  8 24 16  5 13  4  9 20 12
  20376387.111   -26033428.227 8 -20447891.064 9
  23787820.075    -8401713.432 5  -6381310.300 2
  20415932.944   -23547862.630 9 -18198579.561 9
  22800068.321    -9767029.125 7  -7774677.188 3
  22043252.604   -26136808.650 7 -13173662.408 6
  22345578.998   -22152642.633 6 -12118048.356 5
  22572015.988   -17757999.206 6  -7712013.319 3
  21310732.457   -30856561.621 7 -16890828.135 7
 94  2  1  6 25 29.9990000  0  8 24 16  5 13  4  9 20 12
  20380299.402   -26012848.393 8 -20431854.830 9
  23769748.885    -8496692.955 5  -6455320.330 2
  20408872.651   -23584959.486 9 -18227486.206 9
  22812978.194    -9699180.214 7  -7721807.897 3
  22058374.975   -26057360.747 7 -13111754.966 6
  22360823.474   -22072549.672 6 -12055638.241 5
  22554679.171   -17849108.040 6  -7783007.205 3
  21321268.693   -30801186.879 7 -16847678.991 7
 94  2  1  6 25 59.9990000  0  8 24 16  5 13  4  9 20 12
  20384307.538   -25991795.021 8 -20415449.606 9
  23751682.103    -8591614.982 5  -6529285.531 2
  20401892.074   -23621645.782 9 -18256072.924 9
  22825892.983    -9631319.623 7  -7668929.534 3
  22073541.535   -25977625.944 7 -13049623.951 6
  22376120.114   -21992165.333 6 -11993001.080 4
  22537376.139   -17940038.817 7  -7853862.354 4
  21331910.785   -30745278.901 7 -16804114.333 7
